| time (UTC) | temp C | wind direction | speed KPH | gust KPH | rain 1hr cm | rain 24hr cm | rain mn cm | humidity % | barometer mb |
| 20260901234803 | 36 | 248 | 6.4 | 12.9 | 0.00 | 0.00 | 0.00 | 38 | 1012.9 |
| 20260901234703 | 36 | 248 | 8.0 | 14.5 | 0.00 | 0.00 | 0.00 | 39 | 1012.9 |
| 20260901234624 | 36 | 247 | 8.0 | 14.5 | 0.00 | 0.00 | 0.00 | 39 | 1012.9 |
| 20260901234503 | 36 | 248 | 8.0 | 14.5 | 0.00 | 0.00 | 0.00 | 38 | 1012.9 |
| 20260901234424 | 36 | 248 | 8.0 | 14.5 | 0.00 | 0.00 | 0.00 | 38 | 1012.9 |
| 20260901234303 | 36 | 248 | 8.0 | 14.5 | 0.00 | 0.00 | 0.00 | 38 | 1013.0 |
| 20260901234203 | 36 | 249 | 8.0 | 14.5 | 0.00 | 0.00 | 0.00 | 38 | 1013.0 |
| 20260901234103 | 36 | 252 | 8.0 | 14.5 | 0.00 | 0.00 | 0.00 | 38 | 1013.0 |
| 20260901234003 | 36 | 255 | 8.0 | 14.5 | 0.00 | 0.00 | 0.00 | 39 | 1013.0 |
| 20260901233903 | 36 | 257 | 8.0 | 14.5 | 0.00 | 0.00 | 0.00 | 38 | 1012.9 |
| 20260901233824 | 36 | 257 | 8.0 | 14.5 | 0.00 | 0.00 | 0.00 | 38 | 1013.0 |
| 20260901233703 | 36 | 257 | 8.0 | 14.5 | 0.00 | 0.00 | 0.00 | 38 | 1012.9 |
| 20260901233603 | 36 | 258 | 8.0 | 14.5 | 0.00 | 0.00 | 0.00 | 38 | 1012.9 |
| 20260901233503 | 36 | 256 | 8.0 | 14.5 | 0.00 | 0.00 | 0.00 | 38 | 1012.9 |
| 20260901233403 | 36 | 255 | 8.0 | 14.5 | 0.00 | 0.00 | 0.00 | 38 | 1012.9 |
| 20260901233303 | 36 | 255 | 8.0 | 14.5 | 0.00 | 0.00 | 0.00 | 38 | 1012.9 |
| 20260901233203 | 36 | 256 | 8.0 | 16.1 | 0.00 | 0.00 | 0.00 | 38 | 1012.8 |
| 20260901233103 | 36 | 256 | 8.0 | 16.1 | 0.00 | 0.00 | 0.00 | 38 | 1012.9 |
| 20260901233003 | 36 | 257 | 8.0 | 16.1 | 0.00 | 0.00 | 0.00 | 38 | 1012.8 |
| 20260901232903 | 36 | 259 | 8.0 | 16.1 | 0.00 | 0.00 | 0.00 | 38 | 1012.8 |
| 20260901232803 | 36 | 262 | 8.0 | 16.1 | 0.00 | 0.00 | 0.00 | 38 | 1012.9 |
| 20260901232703 | 36 | 260 | 8.0 | 16.1 | 0.00 | 0.00 | 0.00 | 38 | 1012.8 |
| 20260901232604 | 36 | 259 | 6.4 | 16.1 | 0.00 | 0.00 | 0.00 | 38 | 1012.8 |
| 20260901232503 | 36 | 258 | 6.4 | 16.1 | 0.00 | 0.00 | 0.00 | 38 | 1012.8 |
| 20260901232403 | 36 | 256 | 6.4 | 16.1 | 0.00 | 0.00 | 0.00 | 37 | 1012.8 |
| 20260901232324 | 36 | 253 | 6.4 | 16.1 | 0.00 | 0.00 | 0.00 | 37 | 1012.8 |
| 20260901232224 | 36 | 251 | 4.8 | 16.1 | 0.00 | 0.00 | 0.00 | 37 | 1012.9 |
| 20260901232103 | 36 | 247 | 4.8 | 11.3 | 0.00 | 0.00 | 0.00 | 37 | 1012.8 |
| 20260901232024 | 36 | 245 | 6.4 | 11.3 | 0.00 | 0.00 | 0.00 | 37 | 1012.9 |
| 20260901231924 | 36 | 236 | 6.4 | 12.9 | 0.00 | 0.00 | 0.00 | 38 | 1012.9 |
| 20260901231804 | 36 | 232 | 6.4 | 12.9 | 0.00 | 0.00 | 0.00 | 38 | 1012.9 |
| 20260901231703 | 36 | 230 | 4.8 | 12.9 | 0.00 | 0.00 | 0.00 | 38 | 1012.9 |
| 20260901231604 | 36 | 232 | 6.4 | 14.5 | 0.00 | 0.00 | 0.00 | 38 | 1012.8 |
| 20260901231503 | 36 | 234 | 6.4 | 14.5 | 0.00 | 0.00 | 0.00 | 37 | 1012.8 |
| 20260901231403 | 36 | 236 | 6.4 | 14.5 | 0.00 | 0.00 | 0.00 | 37 | 1012.8 |
| 20260901231324 | 36 | 237 | 6.4 | 14.5 | 0.00 | 0.00 | 0.00 | 37 | 1012.8 |
| 20260901231203 | 36 | 238 | 6.4 | 14.5 | 0.00 | 0.00 | 0.00 | 37 | 1012.8 |
| 20260901231103 | 36 | 239 | 6.4 | 14.5 | 0.00 | 0.00 | 0.00 | 37 | 1012.9 |
| 20260901231003 | 36 | 239 | 4.8 | 14.5 | 0.00 | 0.00 | 0.00 | 37 | 1012.8 |
| 20260901230903 | 36 | 244 | 4.8 | 14.5 | 0.00 | 0.00 | 0.00 | 37 | 1012.9 |
| 20260901230803 | 36 | 246 | 6.4 | 14.5 | 0.00 | 0.00 | 0.00 | 37 | 1012.9 |
| 20260901230703 | 36 | 247 | 4.8 | 14.5 | 0.00 | 0.00 | 0.00 | 37 | 1012.9 |
| 20260901230603 | 36 | 249 | 4.8 | 14.5 | 0.00 | 0.00 | 0.00 | 38 | 1012.9 |
| 20260901230524 | 36 | 248 | 4.8 | 12.9 | 0.00 | 0.00 | 0.00 | 38 | 1012.9 |
| 20260901230403 | 36 | 250 | 4.8 | 12.9 | 0.00 | 0.00 | 0.00 | 38 | 1012.9 |
| 20260901230303 | 36 | 255 | 4.8 | 12.9 | 0.00 | 0.00 | 0.00 | 38 | 1012.9 |
| 20260901230203 | 36 | 261 | 4.8 | 12.9 | 0.00 | 0.00 | 0.00 | 38 | 1012.9 |
| 20260901230124 | 36 | 267 | 4.8 | 12.9 | 0.00 | 0.00 | 0.00 | 38 | 1012.9 |
| 20260901230004 | 36 | 280 | 4.8 | 12.9 | 0.00 | 0.00 | 0.00 | 38 | 1012.9 |
| 20260901225903 | 36 | 291 | 4.8 | 12.9 | 0.00 | 0.00 | 0.00 | 38 | 1012.9 |
| 20260901225803 | 36 | 307 | 6.4 | 20.9 | 0.00 | 0.00 | 0.00 | 38 | 1012.9 |
| 20260901225703 | 36 | 315 | 6.4 | 20.9 | 0.00 | 0.00 | 0.00 | 38 | 1012.8 |
| 20260901225603 | 36 | 322 | 6.4 | 20.9 | 0.00 | 0.00 | 0.00 | 38 | 1012.9 |
| 20260901225503 | 36 | 323 | 6.4 | 20.9 | 0.00 | 0.00 | 0.00 | 38 | 1012.9 |
| 20260901225403 | 36 | 320 | 6.4 | 20.9 | 0.00 | 0.00 | 0.00 | 38 | 1012.9 |
| 20260901225306 | 36 | 314 | 6.4 | 20.9 | 0.00 | 0.00 | 0.00 | 38 | 1012.9 |
| 20260901225203 | 36 | 301 | 6.4 | 20.9 | 0.00 | 0.00 | 0.00 | 38 | 1012.9 |
| 20260901225103 | 36 | 292 | 6.4 | 20.9 | 0.00 | 0.00 | 0.00 | 38 | 1012.9 |
| 20260901225003 | 36 | 282 | 6.4 | 20.9 | 0.00 | 0.00 | 0.00 | 38 | 1012.9 |
| 20260901224903 | 36 | 274 | 6.4 | 20.9 | 0.00 | 0.00 | 0.00 | 38 | 1012.9 |
| 20260901224803 | 36 | 260 | 4.8 | 16.1 | 0.00 | 0.00 | 0.00 | 39 | 1012.8 |
| 20260901224724 | 36 | 254 | 4.8 | 12.9 | 0.00 | 0.00 | 0.00 | 39 | 1012.9 |
| 20260901224603 | 36 | 245 | 4.8 | 12.9 | 0.00 | 0.00 | 0.00 | 39 | 1012.9 |
| 20260901224503 | 36 | 243 | 4.8 | 12.9 | 0.00 | 0.00 | 0.00 | 39 | 1012.9 |
| 20260901224403 | 36 | 242 | 4.8 | 9.7 | 0.00 | 0.00 | 0.00 | 39 | 1012.9 |
| 20260901224303 | 36 | 242 | 4.8 | 9.7 | 0.00 | 0.00 | 0.00 | 39 | 1012.9 |
| 20260901224203 | 36 | 243 | 4.8 | 9.7 | 0.00 | 0.00 | 0.00 | 39 | 1012.9 |
| 20260901224125 | 36 | 243 | 6.4 | 9.7 | 0.00 | 0.00 | 0.00 | 38 | 1012.9 |
| 20260901224003 | 36 | 247 | 6.4 | 20.9 | 0.00 | 0.00 | 0.00 | 38 | 1013.0 |
| 20260901223924 | 36 | 248 | 6.4 | 20.9 | 0.00 | 0.00 | 0.00 | 38 | 1013.0 |
| 20260901223803 | 36 | 250 | 6.4 | 20.9 | 0.00 | 0.00 | 0.00 | 38 | 1013.0 |
| 20260901223703 | 36 | 251 | 8.0 | 20.9 | 0.00 | 0.00 | 0.00 | 38 | 1013.1 |
| 20260901223624 | 36 | 252 | 8.0 | 20.9 | 0.00 | 0.00 | 0.00 | 39 | 1013.1 |
| 20260901223503 | 36 | 253 | 8.0 | 20.9 | 0.00 | 0.00 | 0.00 | 39 | 1013.1 |
| 20260901223424 | 36 | 253 | 6.4 | 20.9 | 0.00 | 0.00 | 0.00 | 39 | 1013.0 |
| 20260901223303 | 36 | 253 | 6.4 | 20.9 | 0.00 | 0.00 | 0.00 | 39 | 1013.1 |
| 20260901223203 | 36 | 252 | 6.4 | 20.9 | 0.00 | 0.00 | 0.00 | 39 | 1013.0 |
| 20260901223103 | 36 | 251 | 6.4 | 20.9 | 0.00 | 0.00 | 0.00 | 39 | 1013.0 |
| 20260901223024 | 36 | 250 | 6.4 | 20.9 | 0.00 | 0.00 | 0.00 | 39 | 1013.1 |
| 20260901222903 | 36 | 247 | 6.4 | 14.5 | 0.00 | 0.00 | 0.00 | 39 | 1013.1 |
| 20260901222803 | 36 | 245 | 6.4 | 12.9 | 0.00 | 0.00 | 0.00 | 39 | 1013.1 |
| 20260901222703 | 36 | 245 | 6.4 | 16.1 | 0.00 | 0.00 | 0.00 | 39 | 1013.1 |
| 20260901222624 | 36 | 245 | 6.4 | 16.1 | 0.00 | 0.00 | 0.00 | 39 | 1013.1 |
| 20260901222503 | 36 | 244 | 6.4 | 16.1 | 0.00 | 0.00 | 0.00 | 39 | 1013.1 |
| 20260901222403 | 36 | 245 | 6.4 | 16.1 | 0.00 | 0.00 | 0.00 | 39 | 1013.1 |
| 20260901222306 | 36 | 245 | 6.4 | 16.1 | 0.00 | 0.00 | 0.00 | 39 | 1013.1 |
| 20260901222224 | 36 | 246 | 6.4 | 16.1 | 0.00 | 0.00 | 0.00 | 39 | 1013.1 |
| 20260901222103 | 36 | 249 | 8.0 | 16.1 | 0.00 | 0.00 | 0.00 | 39 | 1013.1 |
| 20260901222003 | 36 | 249 | 8.0 | 16.1 | 0.00 | 0.00 | 0.00 | 39 | 1013.0 |
| 20260901221903 | 36 | 251 | 6.4 | 16.1 | 0.00 | 0.00 | 0.00 | 38 | 1013.0 |
| 20260901221824 | 36 | 251 | 6.4 | 16.1 | 0.00 | 0.00 | 0.00 | 38 | 1013.0 |
| 20260901221703 | 36 | 246 | 6.4 | 14.5 | 0.00 | 0.00 | 0.00 | 38 | 1013.0 |
| 20260901221603 | 36 | 246 | 6.4 | 14.5 | 0.00 | 0.00 | 0.00 | 38 | 1013.0 |
| 20260901221503 | 36 | 246 | 6.4 | 14.5 | 0.00 | 0.00 | 0.00 | 38 | 1013.0 |
| 20260901221403 | 36 | 245 | 8.0 | 16.1 | 0.00 | 0.00 | 0.00 | 38 | 1013.0 |
| 20260901221303 | 36 | 243 | 8.0 | 16.1 | 0.00 | 0.00 | 0.00 | 37 | 1012.9 |
| 20260901221203 | 36 | 242 | 8.0 | 16.1 | 0.00 | 0.00 | 0.00 | 37 | 1013.0 |
| 20260901221124 | 37 | 242 | 8.0 | 16.1 | 0.00 | 0.00 | 0.00 | 37 | 1013.1 |
| 20260901221003 | 37 | 242 | 6.4 | 16.1 | 0.00 | 0.00 | 0.00 | 37 | 1013.0 |
| 20260901220924 | 37 | 240 | 6.4 | 16.1 | 0.00 | 0.00 | 0.00 | 38 | 1013.0 |
| 20260901220824 | 37 | 240 | 8.0 | 16.1 | 0.00 | 0.00 | 0.00 | 37 | 1013.0 |
| 20260901220703 | 37 | 244 | 6.4 | 16.1 | 0.00 | 0.00 | 0.00 | 37 | 1013.0 |
| 20260901220603 | 37 | 242 | 6.4 | 16.1 | 0.00 | 0.00 | 0.00 | 37 | 1013.0 |
| 20260901220503 | 37 | 239 | 6.4 | 16.1 | 0.00 | 0.00 | 0.00 | 37 | 1013.0 |
| 20260901220403 | 37 | 235 | 6.4 | 14.5 | 0.00 | 0.00 | 0.00 | 37 | 1013.0 |
| 20260901220303 | 37 | 238 | 6.4 | 14.5 | 0.00 | 0.00 | 0.00 | 37 | 1013.0 |
| 20260901220205 | 37 | 240 | 6.4 | 14.5 | 0.00 | 0.00 | 0.00 | 37 | 1013.0 |
| 20260901220124 | 37 | 239 | 6.4 | 14.5 | 0.00 | 0.00 | 0.00 | 37 | 1013.0 |
| 20260901220003 | 36 | 238 | 6.4 | 14.5 | 0.00 | 0.00 | 0.00 | 37 | 1013.0 |
| 20260901215903 | 36 | 233 | 6.4 | 14.5 | 0.00 | 0.00 | 0.00 | 37 | 1013.0 |
| 20260901215803 | 36 | 228 | 6.4 | 14.5 | 0.00 | 0.00 | 0.00 | 37 | 1013.0 |
| 20260901215703 | 37 | 220 | 8.0 | 14.5 | 0.00 | 0.00 | 0.00 | 37 | 1013.0 |
| 20260901215603 | 37 | 214 | 8.0 | 14.5 | 0.00 | 0.00 | 0.00 | 37 | 1013.0 |
| 20260901215524 | 36 | 214 | 8.0 | 14.5 | 0.00 | 0.00 | 0.00 | 37 | 1013.1 |
| 20260901215403 | 36 | 211 | 8.0 | 14.5 | 0.00 | 0.00 | 0.00 | 37 | 1013.0 |
| 20260901215306 | 36 | 210 | 6.4 | 14.5 | 0.00 | 0.00 | 0.00 | 37 | 1013.1 |
| 20260901215203 | 36 | 208 | 6.4 | 14.5 | 0.00 | 0.00 | 0.00 | 37 | 1013.1 |
| 20260901215124 | 36 | 209 | 6.4 | 14.5 | 0.00 | 0.00 | 0.00 | 37 | 1013.1 |
| 20260901215003 | 36 | 212 | 6.4 | 14.5 | 0.00 | 0.00 | 0.00 | 37 | 1013.1 |
| 20260901214903 | 36 | 216 | 6.4 | 14.5 | 0.00 | 0.00 | 0.00 | 37 | 1013.1 |
| 20260901214803 | 36 | 220 | 6.4 | 14.5 | 0.00 | 0.00 | 0.00 | 37 | 1013.1 |
| 20260901214703 | 36 | 226 | 6.4 | 14.5 | 0.00 | 0.00 | 0.00 | 37 | 1013.0 |
| 20260901214603 | 36 | 234 | 6.4 | 14.5 | 0.00 | 0.00 | 0.00 | 37 | 1013.1 |
| 20260901214503 | 36 | 239 | 4.8 | 14.5 | 0.00 | 0.00 | 0.00 | 38 | 1013.1 |
| 20260901214403 | 36 | 245 | 4.8 | 14.5 | 0.00 | 0.00 | 0.00 | 37 | 1013.1 |
| 20260901214303 | 36 | 245 | 6.4 | 14.5 | 0.00 | 0.00 | 0.00 | 37 | 1013.1 |
| 20260901214224 | 36 | 246 | 6.4 | 14.5 | 0.00 | 0.00 | 0.00 | 37 | 1013.1 |
| 20260901214103 | 36 | 246 | 6.4 | 17.7 | 0.00 | 0.00 | 0.00 | 38 | 1013.1 |
| 20260901214003 | 36 | 249 | 6.4 | 17.7 | 0.00 | 0.00 | 0.00 | 38 | 1013.1 |
| 20260901213925 | 36 | 250 | 6.4 | 17.7 | 0.00 | 0.00 | 0.00 | 38 | 1013.1 |
| 20260901213824 | 36 | 251 | 6.4 | 17.7 | 0.00 | 0.00 | 0.00 | 38 | 1013.1 |
| 20260901213703 | 36 | 252 | 6.4 | 17.7 | 0.00 | 0.00 | 0.00 | 39 | 1013.2 |
| 20260901213603 | 36 | 253 | 6.4 | 17.7 | 0.00 | 0.00 | 0.00 | 39 | 1013.2 |
| 20260901213503 | 36 | 254 | 6.4 | 17.7 | 0.00 | 0.00 | 0.00 | 38 | 1013.2 |
| 20260901213424 | 36 | 255 | 6.4 | 17.7 | 0.00 | 0.00 | 0.00 | 38 | 1013.2 |
| 20260901213324 | 36 | 255 | 6.4 | 17.7 | 0.00 | 0.00 | 0.00 | 38 | 1013.2 |
| 20260901213203 | 36 | 250 | 6.4 | 14.5 | 0.00 | 0.00 | 0.00 | 39 | 1013.1 |
| 20260901213124 | 36 | 247 | 4.8 | 14.5 | 0.00 | 0.00 | 0.00 | 39 | 1013.1 |
| 20260901213003 | 36 | 237 | 4.8 | 14.5 | 0.00 | 0.00 | 0.00 | 38 | 1013.1 |
| 20260901212903 | 36 | 232 | 4.8 | 12.9 | 0.00 | 0.00 | 0.00 | 38 | 1013.1 |
| 20260901212803 | 36 | 226 | 4.8 | 11.3 | 0.00 | 0.00 | 0.00 | 38 | 1013.1 |
| 20260901212703 | 36 | 220 | 4.8 | 11.3 | 0.00 | 0.00 | 0.00 | 38 | 1013.1 |
| 20260901212603 | 36 | 215 | 4.8 | 11.3 | 0.00 | 0.00 | 0.00 | 38 | 1013.1 |
| 20260901212503 | 36 | 209 | 4.8 | 11.3 | 0.00 | 0.00 | 0.00 | 37 | 1013.2 |
| 20260901212403 | 36 | 205 | 4.8 | 11.3 | 0.00 | 0.00 | 0.00 | 38 | 1013.1 |
| 20260901212306 | 36 | 193 | 3.2 | 9.7 | 0.00 | 0.00 | 0.00 | 38 | 1013.1 |
| 20260901212203 | 36 | 190 | 3.2 | 6.4 | 0.00 | 0.00 | 0.00 | 39 | 1013.1 |
| 20260901212104 | 35 | 193 | 4.8 | 14.5 | 0.00 | 0.00 | 0.00 | 39 | 1013.2 |
| 20260901212003 | 35 | 196 | 4.8 | 14.5 | 0.00 | 0.00 | 0.00 | 39 | 1013.2 |
| 20260901211903 | 35 | 198 | 4.8 | 14.5 | 0.00 | 0.00 | 0.00 | 38 | 1013.2 |
| 20260901211803 | 35 | 201 | 4.8 | 14.5 | 0.00 | 0.00 | 0.00 | 39 | 1013.3 |
| 20260901211703 | 35 | 205 | 4.8 | 14.5 | 0.00 | 0.00 | 0.00 | 38 | 1013.3 |
| 20260901211624 | 35 | 208 | 4.8 | 14.5 | 0.00 | 0.00 | 0.00 | 38 | 1013.3 |
| 20260901211503 | 35 | 213 | 4.8 | 14.5 | 0.00 | 0.00 | 0.00 | 39 | 1013.3 |
| 20260901211403 | 35 | 220 | 6.4 | 14.5 | 0.00 | 0.00 | 0.00 | 39 | 1013.3 |
| 20260901211304 | 35 | 224 | 6.4 | 14.5 | 0.00 | 0.00 | 0.00 | 39 | 1013.3 |
| 20260901211203 | 35 | 231 | 6.4 | 14.5 | 0.00 | 0.00 | 0.00 | 39 | 1013.3 |
| 20260901211103 | 35 | 236 | 6.4 | 16.1 | 0.00 | 0.00 | 0.00 | 39 | 1013.3 |
| 20260901211003 | 35 | 241 | 6.4 | 16.1 | 0.00 | 0.00 | 0.00 | 39 | 1013.3 |
| 20260901210924 | 35 | 238 | 6.4 | 16.1 | 0.00 | 0.00 | 0.00 | 39 | 1013.4 |
| 20260901210803 | 35 | 241 | 6.4 | 16.1 | 0.00 | 0.00 | 0.00 | 39 | 1013.4 |
| 20260901210704 | 35 | 243 | 6.4 | 16.1 | 0.00 | 0.00 | 0.00 | 40 | 1013.4 |
| 20260901210603 | 35 | 243 | 6.4 | 16.1 | 0.00 | 0.00 | 0.00 | 39 | 1013.3 |
| 20260901210524 | 35 | 243 | 4.8 | 16.1 | 0.00 | 0.00 | 0.00 | 39 | 1013.4 |
| 20260901210403 | 35 | 242 | 4.8 | 16.1 | 0.00 | 0.00 | 0.00 | 39 | 1013.4 |
| 20260901210303 | 35 | 242 | 4.8 | 16.1 | 0.00 | 0.00 | 0.00 | 39 | 1013.5 |
| 20260901210203 | 35 | 241 | 4.8 | 16.1 | 0.00 | 0.00 | 0.00 | 39 | 1013.5 |
| 20260901210003 | 36 | 240 | 3.2 | 6.4 | 0.00 | 0.00 | 0.00 | 39 | 1013.4 |
| 20260901205924 | 36 | 247 | 3.2 | 8.0 | 0.00 | 0.00 | 0.00 | 39 | 1013.5 |
| 20260901205804 | 36 | 248 | 3.2 | 8.0 | 0.00 | 0.00 | 0.00 | 39 | 1013.5 |
| 20260901205703 | 36 | 250 | 3.2 | 14.5 | 0.00 | 0.00 | 0.00 | 38 | 1013.5 |
| 20260901205624 | 36 | 250 | 4.8 | 14.5 | 0.00 | 0.00 | 0.00 | 39 | 1013.6 |
| 20260901205503 | 36 | 254 | 4.8 | 14.5 | 0.00 | 0.00 | 0.00 | 39 | 1013.6 |
| 20260901205403 | 36 | 255 | 4.8 | 14.5 | 0.00 | 0.00 | 0.00 | 38 | 1013.6 |
| 20260901205306 | 36 | 254 | 6.4 | 14.5 | 0.00 | 0.00 | 0.00 | 38 | 1013.6 |
| 20260901205203 | 36 | 249 | 6.4 | 14.5 | 0.00 | 0.00 | 0.00 | 38 | 1013.6 |
| 20260901205103 | 36 | 246 | 6.4 | 14.5 | 0.00 | 0.00 | 0.00 | 38 | 1013.7 |
| 20260901205024 | 36 | 244 | 6.4 | 14.5 | 0.00 | 0.00 | 0.00 | 38 | 1013.7 |
| 20260901204924 | 36 | 241 | 6.4 | 14.5 | 0.00 | 0.00 | 0.00 | 38 | 1013.6 |
| 20260901204803 | 36 | 236 | 6.4 | 14.5 | 0.00 | 0.00 | 0.00 | 38 | 1013.7 |
| 20260901204703 | 36 | 227 | 6.4 | 14.5 | 0.00 | 0.00 | 0.00 | 37 | 1013.7 |
| 20260901204603 | 36 | 212 | 6.4 | 14.5 | 0.00 | 0.00 | 0.00 | 37 | 1013.6 |
| 20260901204503 | 36 | 195 | 6.4 | 12.9 | 0.00 | 0.00 | 0.00 | 37 | 1013.7 |
| 20260901204403 | 36 | 183 | 6.4 | 12.9 | 0.00 | 0.00 | 0.00 | 38 | 1013.7 |
| 20260901204303 | 36 | 178 | 6.4 | 12.9 | 0.00 | 0.00 | 0.00 | 37 | 1013.7 |
| 20260901204203 | 36 | 179 | 6.4 | 12.9 | 0.00 | 0.00 | 0.00 | 37 | 1013.7 |
| 20260901204103 | 36 | 175 | 6.4 | 12.9 | 0.00 | 0.00 | 0.00 | 37 | 1013.8 |
| 20260901204003 | 36 | 175 | 6.4 | 12.9 | 0.00 | 0.00 | 0.00 | 37 | 1013.8 |
| 20260901203903 | 36 | 178 | 6.4 | 12.9 | 0.00 | 0.00 | 0.00 | 38 | 1013.8 |
| 20260901203803 | 36 | 183 | 6.4 | 12.9 | 0.00 | 0.00 | 0.00 | 37 | 1013.8 |
| 20260901203703 | 36 | 190 | 6.4 | 12.9 | 0.00 | 0.00 | 0.00 | 38 | 1013.8 |
| 20260901203603 | 36 | 202 | 4.8 | 11.3 | 0.00 | 0.00 | 0.00 | 37 | 1013.8 |
| 20260901203503 | 37 | 218 | 4.8 | 11.3 | 0.00 | 0.00 | 0.00 | 37 | 1013.8 |
| 20260901203403 | 37 | 233 | 3.2 | 9.7 | 0.00 | 0.00 | 0.00 | 38 | 1013.8 |
| 20260901203303 | 37 | 242 | 3.2 | 9.7 | 0.00 | 0.00 | 0.00 | 38 | 1013.8 |
| 20260901203203 | 36 | 246 | 3.2 | 9.7 | 0.00 | 0.00 | 0.00 | 37 | 1013.8 |
| 20260901203124 | 36 | 248 | 4.8 | 11.3 | 0.00 | 0.00 | 0.00 | 37 | 1013.9 |
| 20260901203003 | 37 | 248 | 4.8 | 11.3 | 0.00 | 0.00 | 0.00 | 37 | 1013.9 |
| 20260901202903 | 37 | 243 | 3.2 | 11.3 | 0.00 | 0.00 | 0.00 | 36 | 1013.9 |
| 20260901202803 | 37 | 240 | 4.8 | 11.3 | 0.00 | 0.00 | 0.00 | 37 | 1013.9 |
| 20260901202703 | 37 | 240 | 4.8 | 11.3 | 0.00 | 0.00 | 0.00 | 37 | 1013.9 |
| 20260901202603 | 36 | 239 | 4.8 | 11.3 | 0.00 | 0.00 | 0.00 | 37 | 1013.9 |
| 20260901202524 | 36 | 237 | 4.8 | 11.3 | 0.00 | 0.00 | 0.00 | 37 | 1014.0 |
| 20260901202403 | 36 | 239 | 4.8 | 11.3 | 0.00 | 0.00 | 0.00 | 37 | 1014.0 |
| 20260901202306 | 36 | 241 | 6.4 | 11.3 | 0.00 | 0.00 | 0.00 | 37 | 1014.0 |
| 20260901202224 | 36 | 242 | 6.4 | 11.3 | 0.00 | 0.00 | 0.00 | 37 | 1014.0 |
| 20260901202103 | 36 | 245 | 6.4 | 14.5 | 0.00 | 0.00 | 0.00 | 37 | 1014.0 |
| 20260901202003 | 36 | 250 | 6.4 | 14.5 | 0.00 | 0.00 | 0.00 | 37 | 1014.1 |
| 20260901201903 | 36 | 258 | 6.4 | 14.5 | 0.00 | 0.00 | 0.00 | 37 | 1014.1 |
| 20260901201803 | 36 | 265 | 6.4 | 14.5 | 0.00 | 0.00 | 0.00 | 36 | 1014.1 |
| 20260901201703 | 37 | 268 | 6.4 | 14.5 | 0.00 | 0.00 | 0.00 | 36 | 1014.2 |
| 20260901201603 | 37 | 272 | 6.4 | 14.5 | 0.00 | 0.00 | 0.00 | 37 | 1014.1 |
| 20260901201503 | 37 | 277 | 6.4 | 14.5 | 0.00 | 0.00 | 0.00 | 37 | 1014.2 |
| 20260901201403 | 37 | 280 | 6.4 | 14.5 | 0.00 | 0.00 | 0.00 | 37 | 1014.1 |
| 20260901201303 | 36 | 276 | 4.8 | 14.5 | 0.00 | 0.00 | 0.00 | 37 | 1014.2 |
| 20260901201224 | 36 | 277 | 4.8 | 14.5 | 0.00 | 0.00 | 0.00 | 37 | 1014.2 |
| 20260901201103 | 37 | 279 | 4.8 | 14.5 | 0.00 | 0.00 | 0.00 | 37 | 1014.1 |
| 20260901201003 | 37 | 279 | 6.4 | 14.5 | 0.00 | 0.00 | 0.00 | 36 | 1014.2 |
| 20260901200903 | 37 | 275 | 4.8 | 14.5 | 0.00 | 0.00 | 0.00 | 37 | 1014.2 |
| 20260901200803 | 37 | 276 | 4.8 | 14.5 | 0.00 | 0.00 | 0.00 | 37 | 1014.1 |
| 20260901200703 | 37 | 277 | 4.8 | 14.5 | 0.00 | 0.00 | 0.00 | 37 | 1014.2 |
| 20260901200603 | 37 | 280 | 4.8 | 14.5 | 0.00 | 0.00 | 0.00 | 36 | 1014.2 |
| 20260901200524 | 37 | 283 | 4.8 | 14.5 | 0.00 | 0.00 | 0.00 | 37 | 1014.3 |
| 20260901200424 | 37 | 289 | 4.8 | 14.5 | 0.00 | 0.00 | 0.00 | 37 | 1014.3 |
| 20260901200303 | 36 | 291 | 4.8 | 14.5 | 0.00 | 0.00 | 0.00 | 37 | 1014.2 |
| 20260901200203 | 36 | 293 | 3.2 | 14.5 | 0.00 | 0.00 | 0.00 | 37 | 1014.2 |
| 20260901200103 | 36 | 295 | 3.2 | 11.3 | 0.00 | 0.00 | 0.00 | 37 | 1014.3 |
| 20260901200003 | 37 | 297 | 3.2 | 11.3 | 0.00 | 0.00 | 0.00 | 36 | 1014.3 |
| 20260901195903 | 36 | 298 | 3.2 | 11.3 | 0.00 | 0.00 | 0.00 | 37 | 1014.3 |
| 20260901195803 | 36 | 297 | 3.2 | 11.3 | 0.00 | 0.00 | 0.00 | 37 | 1014.3 |
| 20260901195703 | 36 | 292 | 3.2 | 11.3 | 0.00 | 0.00 | 0.00 | 37 | 1014.3 |
| 20260901195603 | 36 | 286 | 4.8 | 11.3 | 0.00 | 0.00 | 0.00 | 37 | 1014.3 |
| 20260901195503 | 36 | 282 | 3.2 | 11.3 | 0.00 | 0.00 | 0.00 | 37 | 1014.4 |
| 20260901195405 | 36 | 266 | 4.8 | 11.3 | 0.00 | 0.00 | 0.00 | 38 | 1014.4 |
| 20260901195306 | 36 | 247 | 4.8 | 11.3 | 0.00 | 0.00 | 0.00 | 37 | 1014.4 |
| 20260901195203 | 36 | 241 | 4.8 | 11.3 | 0.00 | 0.00 | 0.00 | 37 | 1014.4 |
| 20260901195124 | 36 | 235 | 4.8 | 11.3 | 0.00 | 0.00 | 0.00 | 38 | 1014.5 |
| 20260901195003 | 36 | 221 | 4.8 | 11.3 | 0.00 | 0.00 | 0.00 | 38 | 1014.4 |
| 20260901194903 | 36 | 212 | 4.8 | 11.3 | 0.00 | 0.00 | 0.00 | 38 | 1014.4 |
| 20260901194824 | 36 | 210 | 4.8 | 11.3 | 0.00 | 0.00 | 0.00 | 38 | 1014.5 |
| 20260901194703 | 36 | 208 | 4.8 | 11.3 | 0.00 | 0.00 | 0.00 | 37 | 1014.5 |
| 20260901194625 | 36 | 206 | 4.8 | 11.3 | 0.00 | 0.00 | 0.00 | 37 | 1014.5 |
| 20260901194524 | 36 | 205 | 4.8 | 11.3 | 0.00 | 0.00 | 0.00 | 38 | 1014.5 |
| 20260901194403 | 36 | 209 | 4.8 | 16.1 | 0.00 | 0.00 | 0.00 | 38 | 1014.6 |
| 20260901194303 | 36 | 218 | 4.8 | 16.1 | 0.00 | 0.00 | 0.00 | 38 | 1014.5 |
| 20260901194224 | 36 | 222 | 6.4 | 16.1 | 0.00 | 0.00 | 0.00 | 38 | 1014.6 |
| 20260901194103 | 36 | 224 | 6.4 | 16.1 | 0.00 | 0.00 | 0.00 | 38 | 1014.6 |
| 20260901194003 | 36 | 224 | 6.4 | 16.1 | 0.00 | 0.00 | 0.00 | 37 | 1014.5 |
| 20260901193903 | 36 | 226 | 4.8 | 16.1 | 0.00 | 0.00 | 0.00 | 38 | 1014.6 |
| 20260901193803 | 36 | 230 | 4.8 | 16.1 | 0.00 | 0.00 | 0.00 | 38 | 1014.6 |
| 20260901193703 | 36 | 234 | 6.4 | 16.1 | 0.00 | 0.00 | 0.00 | 38 | 1014.6 |
| 20260901193603 | 36 | 230 | 6.4 | 16.1 | 0.00 | 0.00 | 0.00 | 38 | 1014.6 |
| 20260901193503 | 36 | 230 | 4.8 | 16.1 | 0.00 | 0.00 | 0.00 | 38 | 1014.6 |
| 20260901193403 | 36 | 231 | 4.8 | 11.3 | 0.00 | 0.00 | 0.00 | 37 | 1014.7 |
| 20260901193303 | 36 | 230 | 4.8 | 11.3 | 0.00 | 0.00 | 0.00 | 37 | 1014.8 |
| 20260901193203 | 36 | 230 | 4.8 | 11.3 | 0.00 | 0.00 | 0.00 | 37 | 1014.8 |
| 20260901193124 | 36 | 232 | 3.2 | 11.3 | 0.00 | 0.00 | 0.00 | 37 | 1014.8 |
| 20260901193003 | 36 | 244 | 3.2 | 11.3 | 0.00 | 0.00 | 0.00 | 37 | 1014.8 |
| 20260901192903 | 36 | 255 | 3.2 | 11.3 | 0.00 | 0.00 | 0.00 | 37 | 1014.8 |
| 20260901192824 | 36 | 259 | 3.2 | 11.3 | 0.00 | 0.00 | 0.00 | 37 | 1014.7 |
| 20260901192703 | 36 | 266 | 3.2 | 12.9 | 0.00 | 0.00 | 0.00 | 37 | 1014.7 |
| 20260901192603 | 36 | 272 | 3.2 | 12.9 | 0.00 | 0.00 | 0.00 | 36 | 1014.8 |
| 20260901192503 | 36 | 263 | 3.2 | 12.9 | 0.00 | 0.00 | 0.00 | 36 | 1014.8 |
| 20260901192403 | 36 | 260 | 3.2 | 12.9 | 0.00 | 0.00 | 0.00 | 37 | 1014.8 |
| 20260901192306 | 36 | 260 | 3.2 | 12.9 | 0.00 | 0.00 | 0.00 | 36 | 1014.8 |
| 20260901192203 | 36 | 258 | 3.2 | 12.9 | 0.00 | 0.00 | 0.00 | 36 | 1014.8 |
| 20260901192103 | 36 | 258 | 4.8 | 12.9 | 0.00 | 0.00 | 0.00 | 36 | 1014.9 |
| 20260901192003 | 36 | 258 | 4.8 | 12.9 | 0.00 | 0.00 | 0.00 | 36 | 1014.9 |
| 20260901191903 | 36 | 255 | 4.8 | 12.9 | 0.00 | 0.00 | 0.00 | 36 | 1014.9 |
| 20260901191803 | 36 | 248 | 4.8 | 12.9 | 0.00 | 0.00 | 0.00 | 36 | 1014.9 |
| 20260901191703 | 36 | 244 | 4.8 | 11.3 | 0.00 | 0.00 | 0.00 | 36 | 1014.9 |
| 20260901191603 | 36 | 246 | 3.2 | 11.3 | 0.00 | 0.00 | 0.00 | 36 | 1014.9 |
| 20260901191524 | 36 | 252 | 4.8 | 11.3 | 0.00 | 0.00 | 0.00 | 36 | 1014.9 |
| 20260901191403 | 36 | 258 | 4.8 | 11.3 | 0.00 | 0.00 | 0.00 | 36 | 1014.9 |
| 20260901191303 | 36 | 260 | 4.8 | 11.3 | 0.00 | 0.00 | 0.00 | 36 | 1014.9 |
| 20260901191203 | 36 | 264 | 4.8 | 11.3 | 0.00 | 0.00 | 0.00 | 36 | 1015.0 |
| 20260901191103 | 36 | 267 | 4.8 | 11.3 | 0.00 | 0.00 | 0.00 | 36 | 1014.9 |
| 20260901191024 | 36 | 275 | 4.8 | 11.3 | 0.00 | 0.00 | 0.00 | 36 | 1014.9 |
| 20260901190904 | 36 | 277 | 4.8 | 11.3 | 0.00 | 0.00 | 0.00 | 36 | 1014.9 |
| 20260901190803 | 36 | 276 | 4.8 | 11.3 | 0.00 | 0.00 | 0.00 | 36 | 1014.9 |
| 20260901190703 | 36 | 274 | 4.8 | 11.3 | 0.00 | 0.00 | 0.00 | 36 | 1015.0 |
| 20260901190603 | 36 | 279 | 4.8 | 11.3 | 0.00 | 0.00 | 0.00 | 36 | 1015.0 |
| 20260901190503 | 36 | 283 | 4.8 | 11.3 | 0.00 | 0.00 | 0.00 | 36 | 1015.0 |
| 20260901190403 | 36 | 286 | 4.8 | 11.3 | 0.00 | 0.00 | 0.00 | 36 | 1015.0 |
| 20260901190303 | 36 | 290 | 4.8 | 11.3 | 0.00 | 0.00 | 0.00 | 36 | 1015.0 |
| 20260901190224 | 36 | 292 | 4.8 | 11.3 | 0.00 | 0.00 | 0.00 | 36 | 1015.0 |
| 20260901190124 | 36 | 295 | 4.8 | 11.3 | 0.00 | 0.00 | 0.00 | 36 | 1015.0 |
| 20260901190003 | 36 | 290 | 4.8 | 11.3 | 0.00 | 0.00 | 0.00 | 36 | 1015.0 |
| 20260901185903 | 36 | 285 | 4.8 | 11.3 | 0.00 | 0.00 | 0.00 | 35 | 1015.1 |
| 20260901185803 | 36 | 277 | 4.8 | 11.3 | 0.00 | 0.00 | 0.00 | 35 | 1015.1 |
| 20260901185703 | 36 | 279 | 4.8 | 11.3 | 0.00 | 0.00 | 0.00 | 36 | 1015.1 |
| 20260901185603 | 36 | 246 | 4.8 | 11.3 | 0.00 | 0.00 | 0.00 | 36 | 1015.1 |
| 20260901185503 | 36 | 224 | 4.8 | 9.7 | 0.00 | 0.00 | 0.00 | 36 | 1015.2 |
| 20260901185403 | 35 | 215 | 4.8 | 9.7 | 0.00 | 0.00 | 0.00 | 36 | 1015.2 |
| 20260901185305 | 35 | 206 | 4.8 | 9.7 | 0.00 | 0.00 | 0.00 | 37 | 1015.2 |
| 20260901185203 | 35 | 200 | 4.8 | 9.7 | 0.00 | 0.00 | 0.00 | 36 | 1015.2 |
| 20260901185103 | 35 | 198 | 3.2 | 9.7 | 0.00 | 0.00 | 0.00 | 36 | 1015.2 |
| 20260901185003 | 35 | 203 | 4.8 | 9.7 | 0.00 | 0.00 | 0.00 | 36 | 1015.3 |
| 20260901184903 | 35 | 213 | 4.8 | 9.7 | 0.00 | 0.00 | 0.00 | 36 | 1015.3 |
| 20260901184803 | 35 | 220 | 4.8 | 9.7 | 0.00 | 0.00 | 0.00 | 36 | 1015.3 |
| 20260901184703 | 36 | 224 | 4.8 | 9.7 | 0.00 | 0.00 | 0.00 | 35 | 1015.3 |
| 20260901184603 | 35 | 228 | 4.8 | 9.7 | 0.00 | 0.00 | 0.00 | 36 | 1015.4 |
| 20260901184503 | 35 | 229 | 4.8 | 9.7 | 0.00 | 0.00 | 0.00 | 36 | 1015.4 |
| 20260901184424 | 35 | 229 | 4.8 | 11.3 | 0.00 | 0.00 | 0.00 | 36 | 1015.4 |
| 20260901184303 | 35 | 229 | 4.8 | 11.3 | 0.00 | 0.00 | 0.00 | 36 | 1015.4 |
| 20260901184203 | 35 | 230 | 4.8 | 11.3 | 0.00 | 0.00 | 0.00 | 36 | 1015.4 |
| 20260901184103 | 35 | 230 | 4.8 | 11.3 | 0.00 | 0.00 | 0.00 | 36 | 1015.5 |
| 20260901184003 | 35 | 230 | 4.8 | 11.3 | 0.00 | 0.00 | 0.00 | 36 | 1015.5 |
| 20260901183924 | 35 | 231 | 4.8 | 11.3 | 0.00 | 0.00 | 0.00 | 36 | 1015.5 |
| 20260901183803 | 35 | 232 | 4.8 | 11.3 | 0.00 | 0.00 | 0.00 | 36 | 1015.5 |
| 20260901183703 | 35 | 229 | 4.8 | 11.3 | 0.00 | 0.00 | 0.00 | 36 | 1015.5 |
| 20260901183624 | 35 | 228 | 4.8 | 11.3 | 0.00 | 0.00 | 0.00 | 36 | 1015.5 |
| 20260901183503 | 35 | 228 | 3.2 | 11.3 | 0.00 | 0.00 | 0.00 | 36 | 1015.5 |
| 20260901183403 | 35 | 231 | 3.2 | 11.3 | 0.00 | 0.00 | 0.00 | 36 | 1015.6 |
| 20260901183324 | 35 | 232 | 4.8 | 11.3 | 0.00 | 0.00 | 0.00 | 36 | 1015.7 |
| 20260901183203 | 35 | 235 | 3.2 | 11.3 | 0.00 | 0.00 | 0.00 | 36 | 1015.6 |
| 20260901183103 | 35 | 239 | 4.8 | 11.3 | 0.00 | 0.00 | 0.00 | 37 | 1015.7 |
| 20260901183004 | 35 | 242 | 4.8 | 11.3 | 0.00 | 0.00 | 0.00 | 37 | 1015.7 |
| 20260901182903 | 34 | 245 | 4.8 | 11.3 | 0.00 | 0.00 | 0.00 | 36 | 1015.7 |
| 20260901182803 | 34 | 249 | 4.8 | 11.3 | 0.00 | 0.00 | 0.00 | 37 | 1015.7 |
| 20260901182703 | 34 | 252 | 4.8 | 11.3 | 0.00 | 0.00 | 0.00 | 37 | 1015.7 |
| 20260901182603 | 34 | 253 | 4.8 | 11.3 | 0.00 | 0.00 | 0.00 | 37 | 1015.7 |
| 20260901182503 | 34 | 255 | 4.8 | 11.3 | 0.00 | 0.00 | 0.00 | 36 | 1015.7 |
| 20260901182403 | 34 | 258 | 4.8 | 11.3 | 0.00 | 0.00 | 0.00 | 36 | 1015.8 |
| 20260901182305 | 34 | 260 | 4.8 | 9.7 | 0.00 | 0.00 | 0.00 | 37 | 1015.8 |
| 20260901182203 | 34 | 260 | 4.8 | 9.7 | 0.00 | 0.00 | 0.00 | 36 | 1015.8 |
| 20260901182103 | 34 | 260 | 4.8 | 9.7 | 0.00 | 0.00 | 0.00 | 36 | 1015.8 |
| 20260901182003 | 35 | 260 | 4.8 | 9.7 | 0.00 | 0.00 | 0.00 | 36 | 1015.8 |
| 20260901181924 | 35 | 259 | 4.8 | 9.7 | 0.00 | 0.00 | 0.00 | 36 | 1015.9 |
| 20260901181803 | 35 | 255 | 3.2 | 9.7 | 0.00 | 0.00 | 0.00 | 36 | 1015.8 |
| 20260901181703 | 35 | 255 | 3.2 | 8.0 | 0.00 | 0.00 | 0.00 | 36 | 1015.8 |
| 20260901181624 | 35 | 257 | 4.8 | 8.0 | 0.00 | 0.00 | 0.00 | 36 | 1015.9 |
| 20260901181503 | 34 | 260 | 4.8 | 9.7 | 0.00 | 0.00 | 0.00 | 36 | 1015.9 |
| 20260901181406 | 34 | 266 | 4.8 | 9.7 | 0.00 | 0.00 | 0.00 | 36 | 1015.9 |
| 20260901181303 | 34 | 273 | 4.8 | 11.3 | 0.00 | 0.00 | 0.00 | 36 | 1015.9 |
| 20260901181203 | 35 | 272 | 4.8 | 14.5 | 0.00 | 0.00 | 0.00 | 36 | 1015.9 |
| 20260901181124 | 35 | 273 | 4.8 | 14.5 | 0.00 | 0.00 | 0.00 | 36 | 1015.9 |
| 20260901181003 | 35 | 277 | 4.8 | 14.5 | 0.00 | 0.00 | 0.00 | 36 | 1015.9 |
| 20260901180903 | 35 | 278 | 4.8 | 14.5 | 0.00 | 0.00 | 0.00 | 35 | 1016.0 |
| 20260901180803 | 35 | 282 | 4.8 | 14.5 | 0.00 | 0.00 | 0.00 | 35 | 1016.0 |
| 20260901180703 | 35 | 284 | 4.8 | 14.5 | 0.00 | 0.00 | 0.00 | 35 | 1016.0 |
| 20260901180603 | 35 | 282 | 4.8 | 14.5 | 0.00 | 0.00 | 0.00 | 35 | 1015.9 |
| 20260901180503 | 35 | 278 | 4.8 | 14.5 | 0.00 | 0.00 | 0.00 | 36 | 1015.9 |
| 20260901180424 | 35 | 274 | 4.8 | 14.5 | 0.00 | 0.00 | 0.00 | 36 | 1016.0 |
| 20260901180303 | 35 | 264 | 4.8 | 14.5 | 0.00 | 0.00 | 0.00 | 36 | 1016.0 |
| 20260901180203 | 35 | 264 | 4.8 | 11.3 | 0.00 | 0.00 | 0.00 | 35 | 1016.0 |
| 20260901180103 | 35 | 263 | 4.8 | 11.3 | 0.00 | 0.00 | 0.00 | 35 | 1016.0 |
| 20260901180003 | 35 | 262 | 4.8 | 11.3 | 0.00 | 0.00 | 0.00 | 35 | 1016.1 |
| 20260901175903 | 35 | 259 | 4.8 | 11.3 | 0.00 | 0.00 | 0.00 | 35 | 1016.1 |
| 20260901175803 | 34 | 256 | 4.8 | 11.3 | 0.00 | 0.00 | 0.00 | 35 | 1016.1 |
| 20260901175703 | 34 | 248 | 4.8 | 12.9 | 0.00 | 0.00 | 0.00 | 36 | 1016.2 |
| 20260901175603 | 34 | 247 | 4.8 | 12.9 | 0.00 | 0.00 | 0.00 | 36 | 1016.2 |
| 20260901175503 | 34 | 244 | 4.8 | 12.9 | 0.00 | 0.00 | 0.00 | 36 | 1016.2 |
| 20260901175403 | 34 | 242 | 4.8 | 12.9 | 0.00 | 0.00 | 0.00 | 36 | 1016.2 |
| 20260901175305 | 33 | 240 | 6.4 | 12.9 | 0.00 | 0.00 | 0.00 | 36 | 1016.2 |
| 20260901175203 | 33 | 240 | 6.4 | 12.9 | 0.00 | 0.00 | 0.00 | 36 | 1016.2 |
| 20260901175103 | 33 | 239 | 6.4 | 12.9 | 0.00 | 0.00 | 0.00 | 36 | 1016.2 |
| 20260901175003 | 33 | 237 | 6.4 | 12.9 | 0.00 | 0.00 | 0.00 | 36 | 1016.3 |
| 20260901174903 | 33 | 236 | 6.4 | 12.9 | 0.00 | 0.00 | 0.00 | 36 | 1016.3 |
| 20260901174803 | 33 | 235 | 4.8 | 12.9 | 0.00 | 0.00 | 0.00 | 36 | 1016.3 |
| 20260901174703 | 33 | 234 | 4.8 | 11.3 | 0.00 | 0.00 | 0.00 | 36 | 1016.4 |
| 20260901174603 | 33 | 232 | 3.2 | 11.3 | 0.00 | 0.00 | 0.00 | 36 | 1016.4 |
| 20260901174503 | 33 | 234 | 3.2 | 9.7 | 0.00 | 0.00 | 0.00 | 36 | 1016.4 |
| 20260901174403 | 33 | 234 | 3.2 | 9.7 | 0.00 | 0.00 | 0.00 | 36 | 1016.4 |
| 20260901174303 | 33 | 232 | 3.2 | 9.7 | 0.00 | 0.00 | 0.00 | 36 | 1016.4 |
| 20260901174203 | 33 | 232 | 3.2 | 9.7 | 0.00 | 0.00 | 0.00 | 36 | 1016.5 |
| 20260901174103 | 34 | 235 | 3.2 | 11.3 | 0.00 | 0.00 | 0.00 | 36 | 1016.5 |
| 20260901174003 | 34 | 242 | 3.2 | 12.9 | 0.00 | 0.00 | 0.00 | 36 | 1016.5 |
| 20260901173903 | 34 | 245 | 4.8 | 12.9 | 0.00 | 0.00 | 0.00 | 35 | 1016.5 |
| 20260901173803 | 34 | 248 | 4.8 | 12.9 | 0.00 | 0.00 | 0.00 | 35 | 1016.5 |
| 20260901173703 | 34 | 253 | 4.8 | 12.9 | 0.00 | 0.00 | 0.00 | 35 | 1016.4 |
| 20260901173603 | 34 | 253 | 4.8 | 12.9 | 0.00 | 0.00 | 0.00 | 35 | 1016.4 |
| 20260901173503 | 34 | 254 | 4.8 | 12.9 | 0.00 | 0.00 | 0.00 | 35 | 1016.5 |
| 20260901173403 | 34 | 255 | 4.8 | 12.9 | 0.00 | 0.00 | 0.00 | 35 | 1016.5 |
| 20260901173303 | 34 | 259 | 4.8 | 12.9 | 0.00 | 0.00 | 0.00 | 34 | 1016.5 |
| 20260901173203 | 34 | 261 | 4.8 | 12.9 | 0.00 | 0.00 | 0.00 | 35 | 1016.5 |
| 20260901173103 | 34 | 258 | 4.8 | 12.9 | 0.00 | 0.00 | 0.00 | 34 | 1016.5 |
| 20260901173024 | 34 | 257 | 4.8 | 12.9 | 0.00 | 0.00 | 0.00 | 34 | 1016.5 |
| 20260901172924 | 34 | 254 | 4.8 | 11.3 | 0.00 | 0.00 | 0.00 | 34 | 1016.6 |
| 20260901172803 | 34 | 248 | 3.2 | 11.3 | 0.00 | 0.00 | 0.00 | 34 | 1016.5 |
| 20260901172703 | 34 | 238 | 3.2 | 11.3 | 0.00 | 0.00 | 0.00 | 34 | 1016.5 |
| 20260901172603 | 34 | 235 | 3.2 | 11.3 | 0.00 | 0.00 | 0.00 | 34 | 1016.6 |
| 20260901172524 | 34 | 236 | 4.8 | 11.3 | 0.00 | 0.00 | 0.00 | 34 | 1016.6 |
| 20260901172403 | 34 | 237 | 4.8 | 11.3 | 0.00 | 0.00 | 0.00 | 34 | 1016.7 |
| 20260901172305 | 34 | 233 | 3.2 | 11.3 | 0.00 | 0.00 | 0.00 | 34 | 1016.7 |
| 20260901172203 | 34 | 232 | 3.2 | 9.7 | 0.00 | 0.00 | 0.00 | 33 | 1016.7 |
| 20260901172124 | 34 | 237 | 3.2 | 9.7 | 0.00 | 0.00 | 0.00 | 33 | 1016.7 |
| 20260901172003 | 34 | 241 | 4.8 | 9.7 | 0.00 | 0.00 | 0.00 | 34 | 1016.7 |
| 20260901171903 | 34 | 241 | 4.8 | 9.7 | 0.00 | 0.00 | 0.00 | 34 | 1016.8 |
| 20260901171803 | 34 | 244 | 4.8 | 11.3 | 0.00 | 0.00 | 0.00 | 34 | 1016.7 |
| 20260901171703 | 34 | 246 | 4.8 | 11.3 | 0.00 | 0.00 | 0.00 | 34 | 1016.8 |
| 20260901171603 | 34 | 246 | 4.8 | 11.3 | 0.00 | 0.00 | 0.00 | 34 | 1016.8 |
| 20260901171503 | 34 | 246 | 4.8 | 11.3 | 0.00 | 0.00 | 0.00 | 33 | 1016.8 |
| 20260901171403 | 34 | 246 | 4.8 | 11.3 | 0.00 | 0.00 | 0.00 | 33 | 1016.8 |
| 20260901171303 | 34 | 244 | 4.8 | 11.3 | 0.00 | 0.00 | 0.00 | 34 | 1016.8 |
| 20260901171203 | 33 | 243 | 4.8 | 11.3 | 0.00 | 0.00 | 0.00 | 33 | 1016.8 |
| 20260901171124 | 33 | 243 | 4.8 | 11.3 | 0.00 | 0.00 | 0.00 | 33 | 1016.8 |
| 20260901171003 | 33 | 244 | 4.8 | 11.3 | 0.00 | 0.00 | 0.00 | 33 | 1016.8 |
| 20260901170903 | 33 | 244 | 4.8 | 11.3 | 0.00 | 0.00 | 0.00 | 33 | 1016.8 |
| 20260901170803 | 33 | 244 | 4.8 | 11.3 | 0.00 | 0.00 | 0.00 | 33 | 1016.8 |
| 20260901170703 | 33 | 245 | 3.2 | 11.3 | 0.00 | 0.00 | 0.00 | 33 | 1016.8 |
| 20260901170603 | 33 | 245 | 3.2 | 11.3 | 0.00 | 0.00 | 0.00 | 33 | 1016.8 |
| 20260901170504 | 33 | 243 | 3.2 | 11.3 | 0.00 | 0.00 | 0.00 | 33 | 1016.8 |
| 20260901170403 | 33 | 240 | 3.2 | 9.7 | 0.00 | 0.00 | 0.00 | 33 | 1016.8 |
| 20260901170303 | 33 | 236 | 3.2 | 9.7 | 0.00 | 0.00 | 0.00 | 33 | 1016.9 |
| 20260901170203 | 33 | 229 | 3.2 | 9.7 | 0.00 | 0.00 | 0.00 | 33 | 1016.9 |
| 20260901170024 | 33 | 221 | 1.6 | 9.7 | 0.00 | 0.00 | 0.00 | 32 | 1016.9 |
| 20260901165903 | 33 | 216 | 3.2 | 8.0 | 0.00 | 0.00 | 0.00 | 32 | 1016.9 |
| 20260901165824 | 33 | 214 | 3.2 | 8.0 | 0.00 | 0.00 | 0.00 | 32 | 1016.9 |
| 20260901165724 | 33 | 215 | 3.2 | 8.0 | 0.00 | 0.00 | 0.00 | 32 | 1016.9 |
| 20260901165603 | 33 | 214 | 1.6 | 8.0 | 0.00 | 0.00 | 0.00 | 32 | 1017.0 |
| 20260901165503 | 33 | 211 | 1.6 | 8.0 | 0.00 | 0.00 | 0.00 | 32 | 1016.9 |
| 20260901165403 | 33 | 218 | 3.2 | 9.7 | 0.00 | 0.00 | 0.00 | 32 | 1017.0 |
| 20260901165324 | 33 | 222 | 3.2 | 9.7 | 0.00 | 0.00 | 0.00 | 32 | 1017.0 |
| 20260901165203 | 33 | 233 | 3.2 | 11.3 | 0.00 | 0.00 | 0.00 | 32 | 1017.0 |
| 20260901165103 | 33 | 236 | 3.2 | 11.3 | 0.00 | 0.00 | 0.00 | 32 | 1017.0 |
| 20260901165004 | 33 | 238 | 3.2 | 11.3 | 0.00 | 0.00 | 0.00 | 32 | 1017.0 |
| 20260901164903 | 33 | 245 | 3.2 | 11.3 | 0.00 | 0.00 | 0.00 | 32 | 1017.0 |
| 20260901164803 | 33 | 262 | 3.2 | 11.3 | 0.00 | 0.00 | 0.00 | 32 | 1017.0 |
| 20260901164703 | 33 | 267 | 3.2 | 11.3 | 0.00 | 0.00 | 0.00 | 32 | 1017.0 |
| 20260901164603 | 33 | 274 | 3.2 | 11.3 | 0.00 | 0.00 | 0.00 | 32 | 1017.1 |
| 20260901164524 | 33 | 276 | 3.2 | 11.3 | 0.00 | 0.00 | 0.00 | 31 | 1017.0 |
| 20260901164403 | 34 | 39 | 3.2 | 11.3 | 0.00 | 0.00 | 0.00 | 31 | 1017.0 |
| 20260901164303 | 34 | 57 | 3.2 | 11.3 | 0.00 | 0.00 | 0.00 | 30 | 1017.0 |
| 20260901164203 | 34 | 65 | 3.2 | 11.3 | 0.00 | 0.00 | 0.00 | 30 | 1017.0 |
| 20260901164103 | 34 | 69 | 3.2 | 9.7 | 0.00 | 0.00 | 0.00 | 30 | 1017.0 |
| 20260901164003 | 34 | 71 | 3.2 | 9.7 | 0.00 | 0.00 | 0.00 | 30 | 1016.9 |
| 20260901163903 | 34 | 72 | 3.2 | 9.7 | 0.00 | 0.00 | 0.00 | 30 | 1017.0 |
| 20260901163803 | 33 | 73 | 3.2 | 9.7 | 0.00 | 0.00 | 0.00 | 30 | 1017.0 |
| 20260901163703 | 33 | 74 | 3.2 | 9.7 | 0.00 | 0.00 | 0.00 | 29 | 1017.0 |
| 20260901163603 | 33 | 75 | 3.2 | 9.7 | 0.00 | 0.00 | 0.00 | 29 | 1017.1 |
| 20260901163503 | 33 | 75 | 3.2 | 9.7 | 0.00 | 0.00 | 0.00 | 29 | 1017.0 |
| 20260901163427 | 33 | 76 | 3.2 | 9.7 | 0.00 | 0.00 | 0.00 | 29 | 1017.0 |
| 20260901163303 | 33 | 79 | 1.6 | 8.0 | 0.00 | 0.00 | 0.00 | 29 | 1017.0 |
| 20260901163203 | 33 | 81 | 1.6 | 8.0 | 0.00 | 0.00 | 0.00 | 28 | 1017.0 |
| 20260901163103 | 33 | 82 | 1.6 | 6.4 | 0.00 | 0.00 | 0.00 | 28 | 1017.0 |
| 20260901163024 | 33 | 81 | 1.6 | 6.4 | 0.00 | 0.00 | 0.00 | 28 | 1017.0 |
| 20260901162924 | 33 | 80 | 1.6 | 6.4 | 0.00 | 0.00 | 0.00 | 28 | 1017.0 |
| 20260901162803 | 33 | 78 | 1.6 | 6.4 | 0.00 | 0.00 | 0.00 | 27 | 1017.0 |
| 20260901162703 | 33 | 78 | 1.6 | 4.8 | 0.00 | 0.00 | 0.00 | 28 | 1017.1 |
| 20260901162624 | 33 | 77 | 1.6 | 4.8 | 0.00 | 0.00 | 0.00 | 28 | 1017.1 |
| 20260901162524 | 33 | 77 | 1.6 | 4.8 | 0.00 | 0.00 | 0.00 | 28 | 1017.1 |
| 20260901162403 | 33 | 76 | 1.6 | 4.8 | 0.00 | 0.00 | 0.00 | 28 | 1017.1 |
| 20260901162306 | 33 | 76 | 1.6 | 4.8 | 0.00 | 0.00 | 0.00 | 28 | 1017.1 |
| 20260901162203 | 33 | 74 | 1.6 | 4.8 | 0.00 | 0.00 | 0.00 | 27 | 1017.1 |
| 20260901162103 | 33 | 73 | 1.6 | 4.8 | 0.00 | 0.00 | 0.00 | 27 | 1017.1 |
| 20260901162003 | 33 | 72 | 1.6 | 4.8 | 0.00 | 0.00 | 0.00 | 26 | 1017.2 |
| 20260901161924 | 33 | 71 | 1.6 | 4.8 | 0.00 | 0.00 | 0.00 | 26 | 1017.2 |
| 20260901161803 | 33 | 70 | 1.6 | 4.8 | 0.00 | 0.00 | 0.00 | 26 | 1017.2 |
| 20260901161703 | 33 | 70 | 1.6 | 4.8 | 0.00 | 0.00 | 0.00 | 26 | 1017.2 |
| 20260901161603 | 33 | 70 | 1.6 | 4.8 | 0.00 | 0.00 | 0.00 | 25 | 1017.2 |
| 20260901161503 | 33 | 70 | 1.6 | 4.8 | 0.00 | 0.00 | 0.00 | 25 | 1017.2 |
| 20260901161424 | 33 | 70 | 1.6 | 4.8 | 0.00 | 0.00 | 0.00 | 26 | 1017.2 |
| 20260901161303 | 33 | 69 | 1.6 | 4.8 | 0.00 | 0.00 | 0.00 | 26 | 1017.2 |
| 20260901161203 | 33 | 69 | 3.2 | 6.4 | 0.00 | 0.00 | 0.00 | 26 | 1017.2 |
| 20260901161103 | 33 | 69 | 3.2 | 6.4 | 0.00 | 0.00 | 0.00 | 25 | 1017.2 |
| 20260901161003 | 32 | 68 | 3.2 | 6.4 | 0.00 | 0.00 | 0.00 | 25 | 1017.2 |
| 20260901160903 | 32 | 68 | 3.2 | 6.4 | 0.00 | 0.00 | 0.00 | 25 | 1017.2 |
| 20260901160803 | 32 | 68 | 3.2 | 6.4 | 0.00 | 0.00 | 0.00 | 25 | 1017.2 |
| 20260901160703 | 32 | 68 | 3.2 | 6.4 | 0.00 | 0.00 | 0.00 | 25 | 1017.2 |
| 20260901160603 | 32 | 68 | 3.2 | 6.4 | 0.00 | 0.00 | 0.00 | 25 | 1017.2 |
| 20260901160503 | 32 | 68 | 1.6 | 6.4 | 0.00 | 0.00 | 0.00 | 25 | 1017.2 |
| 20260901160403 | 32 | 67 | 1.6 | 6.4 | 0.00 | 0.00 | 0.00 | 25 | 1017.2 |
| 20260901160324 | 32 | 67 | 1.6 | 6.4 | 0.00 | 0.00 | 0.00 | 24 | 1017.2 |
| 20260901160203 | 32 | 68 | 1.6 | 6.4 | 0.00 | 0.00 | 0.00 | 24 | 1017.2 |
| 20260901160024 | 32 | 68 | 1.6 | 8.0 | 0.00 | 0.00 | 0.00 | 23 | 1017.2 |
| 20260901155903 | 32 | 68 | 3.2 | 8.0 | 0.00 | 0.00 | 0.00 | 23 | 1017.2 |
| 20260901155803 | 32 | 68 | 3.2 | 9.7 | 0.00 | 0.00 | 0.00 | 23 | 1017.2 |
| 20260901155703 | 32 | 69 | 3.2 | 9.7 | 0.00 | 0.00 | 0.00 | 24 | 1017.2 |
| 20260901155603 | 32 | 69 | 3.2 | 9.7 | 0.00 | 0.00 | 0.00 | 24 | 1017.2 |
| 20260901155503 | 32 | 70 | 3.2 | 9.7 | 0.00 | 0.00 | 0.00 | 23 | 1017.3 |
| 20260901155403 | 32 | 71 | 4.8 | 9.7 | 0.00 | 0.00 | 0.00 | 24 | 1017.2 |
| 20260901155306 | 32 | 72 | 4.8 | 9.7 | 0.00 | 0.00 | 0.00 | 24 | 1017.2 |
| 20260901155203 | 32 | 73 | 4.8 | 9.7 | 0.00 | 0.00 | 0.00 | 24 | 1017.3 |
| 20260901155103 | 32 | 74 | 4.8 | 9.7 | 0.00 | 0.00 | 0.00 | 23 | 1017.3 |
| 20260901155024 | 32 | 75 | 3.2 | 9.7 | 0.00 | 0.00 | 0.00 | 24 | 1017.3 |
| 20260901154903 | 32 | 76 | 3.2 | 9.7 | 0.00 | 0.00 | 0.00 | 23 | 1017.2 |
| 20260901154803 | 32 | 78 | 3.2 | 6.4 | 0.00 | 0.00 | 0.00 | 22 | 1017.3 |
| 20260901154724 | 32 | 78 | 3.2 | 6.4 | 0.00 | 0.00 | 0.00 | 22 | 1017.3 |
| 20260901154603 | 32 | 78 | 3.2 | 6.4 | 0.00 | 0.00 | 0.00 | 23 | 1017.3 |
| 20260901154503 | 32 | 78 | 3.2 | 6.4 | 0.00 | 0.00 | 0.00 | 22 | 1017.3 |
| 20260901154403 | 32 | 77 | 3.2 | 6.4 | 0.00 | 0.00 | 0.00 | 22 | 1017.2 |
| 20260901154324 | 32 | 77 | 3.2 | 6.4 | 0.00 | 0.00 | 0.00 | 22 | 1017.3 |
| 20260901154224 | 32 | 76 | 3.2 | 6.4 | 0.00 | 0.00 | 0.00 | 22 | 1017.2 |
| 20260901154103 | 32 | 76 | 3.2 | 6.4 | 0.00 | 0.00 | 0.00 | 21 | 1017.3 |
| 20260901154005 | 32 | 75 | 3.2 | 6.4 | 0.00 | 0.00 | 0.00 | 21 | 1017.3 |
| 20260901153903 | 32 | 75 | 3.2 | 6.4 | 0.00 | 0.00 | 0.00 | 21 | 1017.3 |
| 20260901153803 | 32 | 75 | 3.2 | 6.4 | 0.00 | 0.00 | 0.00 | 21 | 1017.2 |
| 20260901153703 | 32 | 76 | 3.2 | 6.4 | 0.00 | 0.00 | 0.00 | 20 | 1017.2 |
| 20260901153603 | 32 | 76 | 3.2 | 6.4 | 0.00 | 0.00 | 0.00 | 20 | 1017.2 |
| 20260901153503 | 32 | 76 | 3.2 | 6.4 | 0.00 | 0.00 | 0.00 | 19 | 1017.2 |
| 20260901153403 | 32 | 76 | 3.2 | 6.4 | 0.00 | 0.00 | 0.00 | 18 | 1017.2 |
| 20260901153303 | 32 | 76 | 3.2 | 6.4 | 0.00 | 0.00 | 0.00 | 18 | 1017.2 |
| 20260901153203 | 32 | 76 | 3.2 | 6.4 | 0.00 | 0.00 | 0.00 | 17 | 1017.2 |
| 20260901153104 | 32 | 76 | 1.6 | 6.4 | 0.00 | 0.00 | 0.00 | 15 | 1017.2 |
| 20260901153003 | 32 | 77 | 1.6 | 6.4 | 0.00 | 0.00 | 0.00 | 15 | 1017.2 |
| 20260901152903 | 32 | 77 | 1.6 | 6.4 | 0.00 | 0.00 | 0.00 | 15 | 1017.2 |
| 20260901152824 | 32 | 77 | 1.6 | 6.4 | 0.00 | 0.00 | 0.00 | 15 | 1017.2 |
| 20260901152703 | 32 | 77 | 1.6 | 4.8 | 0.00 | 0.00 | 0.00 | 14 | 1017.2 |
| 20260901152624 | 32 | 77 | 1.6 | 4.8 | 0.00 | 0.00 | 0.00 | 14 | 1017.2 |
| 20260901152503 | 32 | 77 | 1.6 | 4.8 | 0.00 | 0.00 | 0.00 | 13 | 1017.2 |
| 20260901152403 | 32 | 77 | 1.6 | 4.8 | 0.00 | 0.00 | 0.00 | 12 | 1017.2 |
| 20260901152324 | 32 | 77 | 1.6 | 4.8 | 0.00 | 0.00 | 0.00 | 11 | 1017.2 |
| 20260901152224 | 32 | 78 | 1.6 | 3.2 | 0.00 | 0.00 | 0.00 | 10 | 1017.2 |
| 20260901152103 | 32 | 78 | 1.6 | 4.8 | 0.00 | 0.00 | 0.00 | 10 | 1017.2 |
| 20260901152003 | 31 | 77 | 1.6 | 4.8 | 0.00 | 0.00 | 0.00 | 11 | 1017.2 |
| 20260901151903 | 31 | 77 | 1.6 | 4.8 | 0.00 | 0.00 | 0.00 | 10 | 1017.2 |
| 20260901151824 | 31 | 77 | 1.6 | 4.8 | 0.00 | 0.00 | 0.00 | 10 | 1017.2 |
| 20260901151703 | 31 | 77 | 3.2 | 6.4 | 0.00 | 0.00 | 0.00 | 9 | 1017.3 |
| 20260901151603 | 31 | 77 | 1.6 | 6.4 | 0.00 | 0.00 | 0.00 | 9 | 1017.2 |
| 20260901151503 | 31 | 77 | 3.2 | 6.4 | 0.00 | 0.00 | 0.00 | 9 | 1017.2 |
| 20260901151404 | 31 | 77 | 3.2 | 6.4 | 0.00 | 0.00 | 0.00 | 8 | 1017.2 |
| 20260901151303 | 31 | 76 | 3.2 | 8.0 | 0.00 | 0.00 | 0.00 | 8 | 1017.2 |
| 20260901151203 | 31 | 77 | 3.2 | 8.0 | 0.00 | 0.00 | 0.00 | 8 | 1017.2 |
| 20260901151103 | 31 | 78 | 3.2 | 8.0 | 0.00 | 0.00 | 0.00 | 8 | 1017.2 |
| 20260901151024 | 31 | 79 | 3.2 | 8.0 | 0.00 | 0.00 | 0.00 | 8 | 1017.2 |
| 20260901150903 | 31 | 80 | 3.2 | 8.0 | 0.00 | 0.00 | 0.00 | 6 | 1017.2 |
| 20260901150803 | 31 | 80 | 3.2 | 8.0 | 0.00 | 0.00 | 0.00 | 4 | 1017.2 |
| 20260901150724 | 31 | 81 | 3.2 | 8.0 | 0.00 | 0.00 | 0.00 | 2 | 1017.2 |
| 20260901150603 | 31 | 82 | 3.2 | 8.0 | 0.00 | 0.00 | 0.00 | 4 | 1017.2 |
| 20260901150503 | 31 | 82 | 3.2 | 8.0 | 0.00 | 0.00 | 0.00 | 3 | 1017.1 |
| 20260901150403 | 31 | 83 | 3.2 | 8.0 | 0.00 | 0.00 | 0.00 | 3 | 1017.2 |
| 20260901150303 | 31 | 85 | 3.2 | 8.0 | 0.00 | 0.00 | 0.00 | 1 | 1017.1 |
| 20260901150203 | 31 | 85 | 3.2 | 6.4 | 0.00 | 0.00 | 0.00 | 1 | 1017.2 |
| 20260901150124 | 31 | 85 | 3.2 | 8.0 | 0.00 | 0.00 | 0.00 | 1 | 1017.2 |
| 20260901150024 | 31 | 85 | 3.2 | 8.0 | 0.00 | 0.00 | 0.00 | 1 | 1017.2 |
| 20260901145903 | 31 | 85 | 3.2 | 8.0 | 0.00 | 0.00 | 0.00 | 1 | 1017.2 |
| 20260901145824 | 31 | 84 | 3.2 | 8.0 | 0.00 | 0.00 | 0.00 | 1 | 1017.2 |
| 20260901145703 | 31 | 86 | 3.2 | 8.0 | 0.00 | 0.00 | 0.00 | 1 | 1017.2 |
| 20260901145603 | 31 | 87 | 3.2 | 8.0 | 0.00 | 0.00 | 0.00 | 1 | 1017.2 |
| 20260901145503 | 31 | 87 | 3.2 | 8.0 | 0.00 | 0.00 | 0.00 | 1 | 1017.2 |
| 20260901145403 | 31 | 87 | 3.2 | 8.0 | 0.00 | 0.00 | 0.00 | 1 | 1017.2 |
| 20260901145306 | 30 | 88 | 3.2 | 8.0 | 0.00 | 0.00 | 0.00 | 1 | 1017.2 |
| 20260901145203 | 30 | 88 | 3.2 | 8.0 | 0.00 | 0.00 | 0.00 | 1 | 1017.2 |
| 20260901145103 | 30 | 88 | 3.2 | 8.0 | 0.00 | 0.00 | 0.00 | 1 | 1017.2 |
| 20260901145003 | 30 | 89 | 3.2 | 8.0 | 0.00 | 0.00 | 0.00 | 1 | 1017.2 |
| 20260901144903 | 30 | 91 | 1.6 | 8.0 | 0.00 | 0.00 | 0.00 | 1 | 1017.2 |
| 20260901144824 | 30 | 92 | 1.6 | 6.4 | 0.00 | 0.00 | 0.00 | 1 | 1017.2 |
| 20260901144703 | 30 | 91 | 1.6 | 4.8 | 0.00 | 0.00 | 0.00 | 1 | 1017.2 |
| 20260901144603 | 30 | 89 | 1.6 | 8.0 | 0.00 | 0.00 | 0.00 | 1 | 1017.2 |
| 20260901144503 | 30 | 88 | 3.2 | 8.0 | 0.00 | 0.00 | 0.00 | 1 | 1017.1 |
| 20260901144403 | 30 | 88 | 3.2 | 8.0 | 0.00 | 0.00 | 0.00 | 1 | 1017.2 |
| 20260901144303 | 30 | 87 | 3.2 | 8.0 | 0.00 | 0.00 | 0.00 | 1 | 1017.2 |
| 20260901144203 | 30 | 87 | 3.2 | 8.0 | 0.00 | 0.00 | 0.00 | 1 | 1017.2 |
| 20260901144104 | 30 | 86 | 3.2 | 8.0 | 0.00 | 0.00 | 0.00 | 1 | 1017.2 |
| 20260901144003 | 30 | 85 | 3.2 | 8.0 | 0.00 | 0.00 | 0.00 | 1 | 1017.2 |
| 20260901143903 | 30 | 85 | 3.2 | 8.0 | 0.00 | 0.00 | 0.00 | 1 | 1017.3 |
| 20260901143803 | 30 | 84 | 3.2 | 8.0 | 0.00 | 0.00 | 0.00 | 1 | 1017.3 |
| 20260901143703 | 30 | 84 | 3.2 | 8.0 | 0.00 | 0.00 | 0.00 | 1 | 1017.3 |
| 20260901143604 | 30 | 83 | 3.2 | 8.0 | 0.00 | 0.00 | 0.00 | 1 | 1017.3 |
| 20260901143504 | 30 | 82 | 3.2 | 8.0 | 0.00 | 0.00 | 0.00 | 1 | 1017.3 |
| 20260901143424 | 30 | 82 | 3.2 | 8.0 | 0.00 | 0.00 | 0.00 | 1 | 1017.3 |
| 20260901143303 | 30 | 82 | 3.2 | 8.0 | 0.00 | 0.00 | 0.00 | 1 | 1017.3 |
| 20260901143203 | 30 | 82 | 3.2 | 8.0 | 0.00 | 0.00 | 0.00 | 1 | 1017.3 |
| 20260901143124 | 30 | 82 | 3.2 | 8.0 | 0.00 | 0.00 | 0.00 | 1 | 1017.3 |
| 20260901143003 | 30 | 82 | 3.2 | 8.0 | 0.00 | 0.00 | 0.00 | 1 | 1017.3 |
| 20260901142903 | 30 | 82 | 3.2 | 8.0 | 0.00 | 0.00 | 0.00 | 1 | 1017.3 |
| 20260901142803 | 30 | 82 | 3.2 | 8.0 | 0.00 | 0.00 | 0.00 | 1 | 1017.3 |
| 20260901142703 | 30 | 82 | 3.2 | 8.0 | 0.00 | 0.00 | 0.00 | 1 | 1017.3 |
| 20260901142603 | 30 | 83 | 3.2 | 8.0 | 0.00 | 0.00 | 0.00 | 1 | 1017.3 |
| 20260901142503 | 30 | 83 | 3.2 | 8.0 | 0.00 | 0.00 | 0.00 | 1 | 1017.3 |
| 20260901142403 | 30 | 83 | 1.6 | 8.0 | 0.00 | 0.00 | 0.00 | 1 | 1017.4 |
| 20260901142305 | 30 | 83 | 1.6 | 8.0 | 0.00 | 0.00 | 0.00 | 1 | 1017.4 |
| 20260901142224 | 30 | 83 | 1.6 | 8.0 | 0.00 | 0.00 | 0.00 | 1 | 1017.4 |
| 20260901142103 | 30 | 83 | 1.6 | 8.0 | 0.00 | 0.00 | 0.00 | 1 | 1017.4 |
| 20260901142003 | 30 | 83 | 1.6 | 8.0 | 0.00 | 0.00 | 0.00 | 1 | 1017.4 |
| 20260901141904 | 30 | 84 | 1.6 | 8.0 | 0.00 | 0.00 | 0.00 | 1 | 1017.4 |
| 20260901141824 | 30 | 84 | 1.6 | 4.8 | 0.00 | 0.00 | 0.00 | 1 | 1017.4 |
| 20260901141703 | 30 | 84 | 1.6 | 4.8 | 0.00 | 0.00 | 0.00 | 1 | 1017.4 |
| 20260901141603 | 30 | 84 | 1.6 | 4.8 | 0.00 | 0.00 | 0.00 | 1 | 1017.5 |
| 20260901141503 | 30 | 83 | 0.0 | 4.8 | 0.00 | 0.00 | 0.00 | 1 | 1017.5 |
| 20260901141403 | 31 | 82 | 0.0 | 3.2 | 0.00 | 0.00 | 0.00 | 1 | 1017.5 |
| 20260901141303 | 31 | 82 | 0.0 | 3.2 | 0.00 | 0.00 | 0.00 | 1 | 1017.6 |
| 20260901141224 | 31 | 82 | 0.0 | 3.2 | 0.00 | 0.00 | 0.00 | 1 | 1017.5 |
| 20260901141103 | 31 | 82 | 0.0 | 1.6 | 0.00 | 0.00 | 0.00 | 1 | 1017.5 |
| 20260901141003 | 31 | 82 | 0.0 | 1.6 | 0.00 | 0.00 | 0.00 | 1 | 1017.5 |
| 20260901140903 | 30 | 82 | 0.0 | 1.6 | 0.00 | 0.00 | 0.00 | 1 | 1017.5 |
| 20260901140803 | 30 | 82 | 0.0 | 1.6 | 0.00 | 0.00 | 0.00 | 1 | 1017.5 |
| 20260901140703 | 30 | 82 | 0.0 | 1.6 | 0.00 | 0.00 | 0.00 | 1 | 1017.6 |
| 20260901140603 | 30 | 82 | 0.0 | 3.2 | 0.00 | 0.00 | 0.00 | 1 | 1017.6 |
| 20260901140524 | 30 | 82 | 0.0 | 3.2 | 0.00 | 0.00 | 0.00 | 1 | 1017.5 |
| 20260901140403 | 30 | 82 | 0.0 | 3.2 | 0.00 | 0.00 | 0.00 | 1 | 1017.6 |
| 20260901140324 | 30 | 81 | 0.0 | 3.2 | 0.00 | 0.00 | 0.00 | 1 | 1017.5 |
| 20260901140203 | 30 | 81 | 0.0 | 3.2 | 0.00 | 0.00 | 0.00 | 1 | 1017.5 |
| 20260901140103 | 29 | 81 | 0.0 | 3.2 | 0.00 | 0.00 | 0.00 | 1 | 1017.6 |
| 20260901140003 | 29 | 81 | 0.0 | 3.2 | 0.00 | 0.00 | 0.00 | 1 | 1017.6 |
| 20260901135903 | 29 | 81 | 0.0 | 3.2 | 0.00 | 0.00 | 0.00 | 1 | 1017.6 |
| 20260901135803 | 29 | 81 | 0.0 | 3.2 | 0.00 | 0.00 | 0.00 | 1 | 1017.5 |
| 20260901135703 | 29 | 81 | 0.0 | 3.2 | 0.00 | 0.00 | 0.00 | 1 | 1017.6 |
| 20260901135603 | 29 | 81 | 0.0 | 3.2 | 0.00 | 0.00 | 0.00 | 1 | 1017.5 |
| 20260901135503 | 29 | 81 | 0.0 | 1.6 | 0.00 | 0.00 | 0.00 | 1 | 1017.5 |
| 20260901135403 | 29 | 0 | 0.0 | 0.0 | 0.00 | 0.00 | 0.00 | 1 | 1017.6 |
| 20260901135305 | 29 | 0 | 0.0 | 0.0 | 0.00 | 0.00 | 0.00 | 1 | 1017.6 |
| 20260901135203 | 28 | 0 | 0.0 | 0.0 | 0.00 | 0.00 | 0.00 | 1 | 1017.5 |
| 20260901135103 | 28 | 0 | 0.0 | 0.0 | 0.00 | 0.00 | 0.00 | 1 | 1017.5 |
| 20260901135003 | 28 | 0 | 0.0 | 0.0 | 0.00 | 0.00 | 0.00 | 1 | 1017.5 |
| 20260901134903 | 28 | 0 | 0.0 | 0.0 | 0.00 | 0.00 | 0.00 | 1 | 1017.5 |
| 20260901134803 | 28 | 0 | 0.0 | 0.0 | 0.00 | 0.00 | 0.00 | 1 | 1017.5 |
| 20260901134703 | 28 | 0 | 0.0 | 0.0 | 0.00 | 0.00 | 0.00 | 1 | 1017.6 |
| 20260901134624 | 28 | 0 | 0.0 | 0.0 | 0.00 | 0.00 | 0.00 | 1 | 1017.5 |
| 20260901134503 | 28 | 0 | 0.0 | 0.0 | 0.00 | 0.00 | 0.00 | 1 | 1017.5 |
| 20260901134424 | 28 | 0 | 0.0 | 0.0 | 0.00 | 0.00 | 0.00 | 1 | 1017.5 |
| 20260901134303 | 28 | 0 | 0.0 | 0.0 | 0.00 | 0.00 | 0.00 | 1 | 1017.5 |
| 20260901134203 | 28 | 0 | 0.0 | 0.0 | 0.00 | 0.00 | 0.00 | 1 | 1017.5 |
| 20260901134103 | 27 | 0 | 0.0 | 0.0 | 0.00 | 0.00 | 0.00 | 1 | 1017.5 |
| 20260901134003 | 27 | 0 | 0.0 | 0.0 | 0.00 | 0.00 | 0.00 | 1 | 1017.4 |
| 20260901133903 | 27 | 0 | 0.0 | 0.0 | 0.00 | 0.00 | 0.00 | 1 | 1017.4 |
| 20260901133803 | 27 | 0 | 0.0 | 0.0 | 0.00 | 0.00 | 0.00 | 1 | 1017.5 |
| 20260901133704 | 27 | 0 | 0.0 | 0.0 | 0.00 | 0.00 | 0.00 | 1 | 1017.5 |
| 20260901133603 | 27 | 0 | 0.0 | 0.0 | 0.00 | 0.00 | 0.00 | 1 | 1017.4 |
| 20260901133503 | 27 | 0 | 0.0 | 0.0 | 0.00 | 0.00 | 0.00 | 1 | 1017.4 |
| 20260901133403 | 27 | 0 | 0.0 | 0.0 | 0.00 | 0.00 | 0.00 | 1 | 1017.4 |
| 20260901133303 | 27 | 0 | 0.0 | 0.0 | 0.00 | 0.00 | 0.00 | 1 | 1017.4 |
| 20260901133203 | 27 | 0 | 0.0 | 0.0 | 0.00 | 0.00 | 0.00 | 1 | 1017.3 |
| 20260901133103 | 27 | 0 | 0.0 | 0.0 | 0.00 | 0.00 | 0.00 | 1 | 1017.3 |
| 20260901133003 | 27 | 0 | 0.0 | 0.0 | 0.00 | 0.00 | 0.00 | 1 | 1017.4 |
| 20260901132903 | 27 | 0 | 0.0 | 0.0 | 0.00 | 0.00 | 0.00 | 1 | 1017.3 |
| 20260901132803 | 27 | 0 | 0.0 | 0.0 | 0.00 | 0.00 | 0.00 | 1 | 1017.4 |
| 20260901132703 | 27 | 0 | 0.0 | 0.0 | 0.00 | 0.00 | 0.00 | 1 | 1017.4 |
| 20260901132603 | 27 | 0 | 0.0 | 0.0 | 0.00 | 0.00 | 0.00 | 1 | 1017.4 |
| 20260901132503 | 27 | 0 | 0.0 | 0.0 | 0.00 | 0.00 | 0.00 | 1 | 1017.4 |
| 20260901132403 | 27 | 0 | 0.0 | 0.0 | 0.00 | 0.00 | 0.00 | 1 | 1017.4 |
| 20260901132307 | 27 | 0 | 0.0 | 0.0 | 0.00 | 0.00 | 0.00 | 1 | 1017.4 |
| 20260901132203 | 27 | 0 | 0.0 | 0.0 | 0.00 | 0.00 | 0.00 | 1 | 1017.3 |
| 20260901132103 | 27 | 0 | 0.0 | 0.0 | 0.00 | 0.00 | 0.00 | 1 | 1017.3 |
| 20260901132003 | 27 | 0 | 0.0 | 0.0 | 0.00 | 0.00 | 0.00 | 1 | 1017.3 |
| 20260901131903 | 26 | 0 | 0.0 | 0.0 | 0.00 | 0.00 | 0.00 | 1 | 1017.3 |
| 20260901131803 | 26 | 0 | 0.0 | 0.0 | 0.00 | 0.00 | 0.00 | 1 | 1017.3 |
| 20260901131704 | 26 | 0 | 0.0 | 0.0 | 0.00 | 0.00 | 0.00 | 1 | 1017.3 |
| 20260901131603 | 26 | 0 | 0.0 | 0.0 | 0.00 | 0.00 | 0.00 | 1 | 1017.3 |
| 20260901131503 | 26 | 0 | 0.0 | 0.0 | 0.00 | 0.00 | 0.00 | 1 | 1017.3 |
| 20260901131403 | 26 | 0 | 0.0 | 0.0 | 0.00 | 0.00 | 0.00 | 1 | 1017.3 |
| 20260901131303 | 26 | 0 | 0.0 | 0.0 | 0.00 | 0.00 | 0.00 | 1 | 1017.2 |
| 20260901131203 | 26 | 0 | 0.0 | 0.0 | 0.00 | 0.00 | 0.00 | 1 | 1017.3 |
| 20260901131103 | 26 | 0 | 0.0 | 0.0 | 0.00 | 0.00 | 0.00 | 1 | 1017.3 |
| 20260901131003 | 26 | 0 | 0.0 | 0.0 | 0.00 | 0.00 | 0.00 | 1 | 1017.2 |
| 20260901130903 | 26 | 0 | 0.0 | 0.0 | 0.00 | 0.00 | 0.00 | 1 | 1017.2 |
| 20260901130824 | 26 | 0 | 0.0 | 0.0 | 0.00 | 0.00 | 0.00 | 1 | 1017.2 |
| 20260901130703 | 26 | 0 | 0.0 | 0.0 | 0.00 | 0.00 | 0.00 | 1 | 1017.2 |
| 20260901130624 | 26 | 0 | 0.0 | 0.0 | 0.00 | 0.00 | 0.00 | 1 | 1017.2 |
| 20260901130503 | 26 | 0 | 0.0 | 0.0 | 0.00 | 0.00 | 0.00 | 1 | 1017.2 |
| 20260901130424 | 26 | 0 | 0.0 | 0.0 | 0.00 | 0.00 | 0.00 | 1 | 1017.2 |
| 20260901130303 | 26 | 0 | 0.0 | 0.0 | 0.00 | 0.00 | 0.00 | 1 | 1017.2 |
| 20260901130203 | 26 | 0 | 0.0 | 0.0 | 0.00 | 0.00 | 0.00 | 1 | 1017.2 |
| 20260901130124 | 26 | 0 | 0.0 | 0.0 | 0.00 | 0.00 | 0.00 | 1 | 1017.1 |
| 20260901130024 | 26 | 0 | 0.0 | 0.0 | 0.00 | 0.00 | 0.00 | 1 | 1017.1 |
| 20260901125924 | 26 | 0 | 0.0 | 0.0 | 0.00 | 0.00 | 0.00 | 1 | 1017.1 |
| 20260901125804 | 26 | 0 | 0.0 | 0.0 | 0.00 | 0.00 | 0.00 | 1 | 1017.1 |
| 20260901125704 | 26 | 0 | 0.0 | 0.0 | 0.00 | 0.00 | 0.00 | 1 | 1017.0 |
| 20260901125604 | 26 | 0 | 0.0 | 0.0 | 0.00 | 0.00 | 0.00 | 1 | 1017.1 |
| 20260901125504 | 26 | 0 | 0.0 | 0.0 | 0.00 | 0.00 | 0.00 | 1 | 1017.0 |
| 20260901125404 | 26 | 0 | 0.0 | 0.0 | 0.00 | 0.00 | 0.00 | 1 | 1017.0 |
| 20260901125308 | 26 | 0 | 0.0 | 0.0 | 0.00 | 0.00 | 0.00 | 1 | 1017.0 |
| 20260901125225 | 26 | 0 | 0.0 | 0.0 | 0.00 | 0.00 | 0.00 | 1 | 1017.0 |
| 20260901125104 | 26 | 0 | 0.0 | 0.0 | 0.00 | 0.00 | 0.00 | 1 | 1017.0 |
| 20260901125004 | 25 | 0 | 0.0 | 0.0 | 0.00 | 0.00 | 0.00 | 1 | 1017.0 |
| 20260901124904 | 25 | 0 | 0.0 | 0.0 | 0.00 | 0.00 | 0.00 | 1 | 1017.0 |
| 20260901124804 | 25 | 0 | 0.0 | 0.0 | 0.00 | 0.00 | 0.00 | 1 | 1017.0 |
| 20260901124704 | 25 | 0 | 0.0 | 0.0 | 0.00 | 0.00 | 0.00 | 1 | 1017.0 |
| 20260901124604 | 25 | 0 | 0.0 | 0.0 | 0.00 | 0.00 | 0.00 | 1 | 1017.0 |
| 20260901124505 | 25 | 0 | 0.0 | 0.0 | 0.00 | 0.00 | 0.00 | 1 | 1017.0 |
| 20260901124404 | 25 | 0 | 0.0 | 0.0 | 0.00 | 0.00 | 0.00 | 1 | 1016.9 |
| 20260901124325 | 25 | 0 | 0.0 | 0.0 | 0.00 | 0.00 | 0.00 | 1 | 1017.0 |
| 20260901124204 | 24 | 0 | 0.0 | 0.0 | 0.00 | 0.00 | 0.00 | 1 | 1017.0 |
| 20260901124104 | 24 | 0 | 0.0 | 0.0 | 0.00 | 0.00 | 0.00 | 1 | 1016.9 |
| 20260901124025 | 24 | 0 | 0.0 | 0.0 | 0.00 | 0.00 | 0.00 | 1 | 1016.9 |
| 20260901123904 | 24 | 0 | 0.0 | 0.0 | 0.00 | 0.00 | 0.00 | 1 | 1016.9 |
| 20260901123804 | 24 | 0 | 0.0 | 0.0 | 0.00 | 0.00 | 0.00 | 1 | 1016.9 |
| 20260901123704 | 24 | 0 | 0.0 | 0.0 | 0.00 | 0.00 | 0.00 | 1 | 1016.9 |
| 20260901123604 | 24 | 0 | 0.0 | 0.0 | 0.00 | 0.00 | 0.00 | 1 | 1016.9 |
| 20260901123525 | 24 | 0 | 0.0 | 0.0 | 0.00 | 0.00 | 0.00 | 1 | 1016.9 |
| 20260901123404 | 24 | 0 | 0.0 | 0.0 | 0.00 | 0.00 | 0.00 | 1 | 1016.9 |
| 20260901123304 | 24 | 0 | 0.0 | 0.0 | 0.00 | 0.00 | 0.00 | 1 | 1016.9 |
| 20260901123204 | 24 | 0 | 0.0 | 0.0 | 0.00 | 0.00 | 0.00 | 1 | 1016.9 |
| 20260901123104 | 24 | 0 | 0.0 | 0.0 | 0.00 | 0.00 | 0.00 | 1 | 1016.9 |
| 20260901123004 | 24 | 0 | 0.0 | 0.0 | 0.00 | 0.00 | 0.00 | 1 | 1016.8 |
| 20260901122904 | 24 | 0 | 0.0 | 0.0 | 0.00 | 0.00 | 0.00 | 1 | 1016.8 |
| 20260901122804 | 24 | 0 | 0.0 | 0.0 | 0.00 | 0.00 | 0.00 | 1 | 1016.8 |
| 20260901122704 | 24 | 0 | 0.0 | 0.0 | 0.00 | 0.00 | 0.00 | 1 | 1016.7 |
| 20260901122604 | 24 | 0 | 0.0 | 0.0 | 0.00 | 0.00 | 0.00 | 1 | 1016.7 |
| 20260901122504 | 24 | 0 | 0.0 | 0.0 | 0.00 | 0.00 | 0.00 | 1 | 1016.7 |
| 20260901122404 | 24 | 0 | 0.0 | 0.0 | 0.00 | 0.00 | 0.00 | 1 | 1016.7 |
| 20260901122306 | 24 | 0 | 0.0 | 0.0 | 0.00 | 0.00 | 0.00 | 1 | 1016.6 |
| 20260901122204 | 24 | 0 | 0.0 | 0.0 | 0.00 | 0.00 | 0.00 | 1 | 1016.6 |
| 20260901122104 | 24 | 0 | 0.0 | 0.0 | 0.00 | 0.00 | 0.00 | 1 | 1016.6 |
| 20260901122004 | 24 | 0 | 0.0 | 0.0 | 0.00 | 0.00 | 0.00 | 1 | 1016.6 |
| 20260901121904 | 24 | 0 | 0.0 | 0.0 | 0.00 | 0.00 | 0.00 | 1 | 1016.6 |
| 20260901121804 | 24 | 0 | 0.0 | 0.0 | 0.00 | 0.00 | 0.00 | 1 | 1016.5 |
| 20260901121704 | 24 | 0 | 0.0 | 0.0 | 0.00 | 0.00 | 0.00 | 1 | 1016.5 |
| 20260901121604 | 24 | 0 | 0.0 | 0.0 | 0.00 | 0.00 | 0.00 | 1 | 1016.6 |
| 20260901121504 | 24 | 0 | 0.0 | 0.0 | 0.00 | 0.00 | 0.00 | 1 | 1016.6 |
| 20260901121425 | 24 | 0 | 0.0 | 0.0 | 0.00 | 0.00 | 0.00 | 1 | 1016.5 |
| 20260901121304 | 24 | 0 | 0.0 | 0.0 | 0.00 | 0.00 | 0.00 | 1 | 1016.5 |
| 20260901121204 | 24 | 0 | 0.0 | 0.0 | 0.00 | 0.00 | 0.00 | 1 | 1016.6 |
| 20260901121104 | 24 | 0 | 0.0 | 0.0 | 0.00 | 0.00 | 0.00 | 1 | 1016.6 |
| 20260901121025 | 24 | 0 | 0.0 | 0.0 | 0.00 | 0.00 | 0.00 | 1 | 1016.6 |
| 20260901120925 | 24 | 0 | 0.0 | 0.0 | 0.00 | 0.00 | 0.00 | 1 | 1016.6 |
| 20260901120804 | 24 | 0 | 0.0 | 0.0 | 0.00 | 0.00 | 0.00 | 1 | 1016.5 |
| 20260901120704 | 24 | 0 | 0.0 | 0.0 | 0.00 | 0.00 | 0.00 | 1 | 1016.6 |
| 20260901120604 | 24 | 0 | 0.0 | 0.0 | 0.00 | 0.00 | 0.00 | 1 | 1016.5 |
| 20260901120504 | 24 | 0 | 0.0 | 0.0 | 0.00 | 0.00 | 0.00 | 1 | 1016.5 |
| 20260901120404 | 24 | 0 | 0.0 | 0.0 | 0.00 | 0.00 | 0.00 | 1 | 1016.5 |
| 20260901120325 | 24 | 0 | 0.0 | 0.0 | 0.00 | 0.00 | 0.00 | 1 | 1016.5 |
| 20260901120204 | 24 | 0 | 0.0 | 0.0 | 0.00 | 0.00 | 0.00 | 1 | 1016.4 |
| 20260901120104 | 24 | 0 | 0.0 | 0.0 | 0.00 | 0.00 | 0.00 | 1 | 1016.4 |
| 20260901120004 | 24 | 0 | 0.0 | 0.0 | 0.00 | 0.00 | 0.00 | 1 | 1016.4 |
| 20260901115904 | 24 | 0 | 0.0 | 0.0 | 0.00 | 0.00 | 0.00 | 1 | 1016.4 |
| 20260901115804 | 24 | 0 | 0.0 | 1.6 | 0.00 | 0.00 | 0.00 | 1 | 1016.4 |
| 20260901115704 | 24 | 0 | 0.0 | 1.6 | 0.00 | 0.00 | 0.00 | 1 | 1016.4 |
| 20260901115604 | 24 | 0 | 0.0 | 1.6 | 0.00 | 0.00 | 0.00 | 1 | 1016.4 |
| 20260901115504 | 24 | 0 | 0.0 | 1.6 | 0.00 | 0.00 | 0.00 | 1 | 1016.4 |
| 20260901115404 | 25 | 0 | 0.0 | 1.6 | 0.00 | 0.00 | 0.00 | 1 | 1016.5 |
| 20260901115306 | 25 | 0 | 0.0 | 1.6 | 0.00 | 0.00 | 0.00 | 1 | 1016.4 |
| 20260901115204 | 25 | 0 | 0.0 | 1.6 | 0.00 | 0.00 | 0.00 | 1 | 1016.4 |
| 20260901115104 | 25 | 0 | 0.0 | 1.6 | 0.00 | 0.00 | 0.00 | 1 | 1016.5 |
| 20260901115004 | 25 | 0 | 0.0 | 1.6 | 0.00 | 0.00 | 0.00 | 1 | 1016.4 |
| 20260901114904 | 25 | 0 | 0.0 | 1.6 | 0.00 | 0.00 | 0.00 | 1 | 1016.4 |
| 20260901114804 | 25 | 0 | 0.0 | 1.6 | 0.00 | 0.00 | 0.00 | 1 | 1016.4 |
| 20260901114704 | 25 | 0 | 0.0 | 1.6 | 0.00 | 0.00 | 0.00 | 1 | 1016.5 |
| 20260901114604 | 25 | 0 | 0.0 | 1.6 | 0.00 | 0.00 | 0.00 | 1 | 1016.5 |
| 20260901114504 | 25 | 0 | 0.0 | 1.6 | 0.00 | 0.00 | 0.00 | 1 | 1016.5 |
| 20260901114404 | 25 | 0 | 0.0 | 1.6 | 0.00 | 0.00 | 0.00 | 1 | 1016.5 |
| 20260901114304 | 25 | 0 | 0.0 | 1.6 | 0.00 | 0.00 | 0.00 | 1 | 1016.4 |
| 20260901114204 | 25 | 0 | 0.0 | 1.6 | 0.00 | 0.00 | 0.00 | 1 | 1016.5 |
| 20260901114104 | 25 | 0 | 0.0 | 1.6 | 0.00 | 0.00 | 0.00 | 1 | 1016.5 |
| 20260901114004 | 25 | 0 | 0.0 | 1.6 | 0.00 | 0.00 | 0.00 | 1 | 1016.5 |
| 20260901113904 | 25 | 0 | 0.0 | 1.6 | 0.00 | 0.00 | 0.00 | 1 | 1016.5 |
| 20260901113804 | 25 | 0 | 0.0 | 0.0 | 0.00 | 0.00 | 0.00 | 1 | 1016.5 |
| 20260901113725 | 25 | 0 | 0.0 | 0.0 | 0.00 | 0.00 | 0.00 | 1 | 1016.5 |
| 20260901113604 | 25 | 0 | 0.0 | 0.0 | 0.00 | 0.00 | 0.00 | 1 | 1016.5 |
| 20260901113504 | 25 | 75 | 0.0 | 1.6 | 0.00 | 0.00 | 0.00 | 1 | 1016.6 |
| 20260901113404 | 25 | 75 | 0.0 | 1.6 | 0.00 | 0.00 | 0.00 | 1 | 1016.5 |
| 20260901113304 | 25 | 75 | 0.0 | 1.6 | 0.00 | 0.00 | 0.00 | 1 | 1016.5 |
| 20260901113204 | 25 | 75 | 0.0 | 1.6 | 0.00 | 0.00 | 0.00 | 1 | 1016.6 |
| 20260901113125 | 25 | 75 | 0.0 | 1.6 | 0.00 | 0.00 | 0.00 | 1 | 1016.6 |
| 20260901113004 | 25 | 75 | 0.0 | 1.6 | 0.00 | 0.00 | 0.00 | 1 | 1016.5 |
| 20260901112904 | 25 | 75 | 0.0 | 1.6 | 0.00 | 0.00 | 0.00 | 1 | 1016.5 |
| 20260901112804 | 25 | 75 | 0.0 | 1.6 | 0.00 | 0.00 | 0.00 | 1 | 1016.5 |
| 20260901112704 | 25 | 75 | 0.0 | 1.6 | 0.00 | 0.00 | 0.00 | 1 | 1016.5 |
| 20260901112604 | 25 | 75 | 0.0 | 1.6 | 0.00 | 0.00 | 0.00 | 1 | 1016.5 |
| 20260901112525 | 25 | 75 | 0.0 | 1.6 | 0.00 | 0.00 | 0.00 | 1 | 1016.5 |
| 20260901112425 | 25 | 75 | 0.0 | 1.6 | 0.00 | 0.00 | 0.00 | 1 | 1016.5 |
| 20260901112306 | 25 | 75 | 0.0 | 1.6 | 0.00 | 0.00 | 0.00 | 1 | 1016.5 |
| 20260901112204 | 25 | 75 | 0.0 | 1.6 | 0.00 | 0.00 | 0.00 | 1 | 1016.5 |
| 20260901112104 | 25 | 75 | 0.0 | 1.6 | 0.00 | 0.00 | 0.00 | 1 | 1016.4 |
| 20260901112004 | 25 | 75 | 0.0 | 1.6 | 0.00 | 0.00 | 0.00 | 1 | 1016.4 |
| 20260901111925 | 25 | 75 | 0.0 | 1.6 | 0.00 | 0.00 | 0.00 | 1 | 1016.4 |
| 20260901111804 | 25 | 75 | 0.0 | 1.6 | 0.00 | 0.00 | 0.00 | 1 | 1016.4 |
| 20260901111704 | 25 | 75 | 0.0 | 1.6 | 0.00 | 0.00 | 0.00 | 1 | 1016.4 |
| 20260901111604 | 25 | 75 | 0.0 | 1.6 | 0.00 | 0.00 | 0.00 | 1 | 1016.4 |
| 20260901111525 | 25 | 75 | 0.0 | 1.6 | 0.00 | 0.00 | 0.00 | 1 | 1016.4 |
| 20260901111404 | 25 | 75 | 0.0 | 1.6 | 0.00 | 0.00 | 0.00 | 1 | 1016.4 |
| 20260901111304 | 25 | 75 | 0.0 | 1.6 | 0.00 | 0.00 | 0.00 | 1 | 1016.4 |
| 20260901111204 | 25 | 75 | 0.0 | 1.6 | 0.00 | 0.00 | 0.00 | 1 | 1016.4 |
| 20260901111104 | 25 | 75 | 0.0 | 1.6 | 0.00 | 0.00 | 0.00 | 1 | 1016.4 |
| 20260901111004 | 25 | 75 | 0.0 | 3.2 | 0.00 | 0.00 | 0.00 | 1 | 1016.5 |
| 20260901110904 | 25 | 75 | 0.0 | 3.2 | 0.00 | 0.00 | 0.00 | 1 | 1016.4 |
| 20260901110804 | 25 | 75 | 1.6 | 3.2 | 0.00 | 0.00 | 0.00 | 1 | 1016.5 |
| 20260901110704 | 25 | 75 | 1.6 | 3.2 | 0.00 | 0.00 | 0.00 | 1 | 1016.5 |
| 20260901110604 | 25 | 75 | 1.6 | 3.2 | 0.00 | 0.00 | 0.00 | 1 | 1016.5 |
| 20260901110504 | 25 | 75 | 1.6 | 4.8 | 0.00 | 0.00 | 0.00 | 1 | 1016.5 |
| 20260901110425 | 25 | 75 | 1.6 | 4.8 | 0.00 | 0.00 | 0.00 | 1 | 1016.4 |
| 20260901110304 | 25 | 75 | 1.6 | 4.8 | 0.00 | 0.00 | 0.00 | 1 | 1016.4 |
| 20260901110204 | 25 | 75 | 1.6 | 4.8 | 0.00 | 0.00 | 0.00 | 1 | 1016.4 |
| 20260901110104 | 25 | 75 | 1.6 | 4.8 | 0.00 | 0.00 | 0.00 | 1 | 1016.4 |
| 20260901110004 | 25 | 75 | 3.2 | 4.8 | 0.00 | 0.00 | 0.00 | 1 | 1016.4 |
| 20260901105904 | 25 | 75 | 3.2 | 4.8 | 0.00 | 0.00 | 0.00 | 1 | 1016.4 |
| 20260901105804 | 25 | 75 | 3.2 | 4.8 | 0.00 | 0.00 | 0.00 | 1 | 1016.4 |
| 20260901105704 | 25 | 75 | 3.2 | 4.8 | 0.00 | 0.00 | 0.00 | 1 | 1016.4 |
| 20260901105604 | 25 | 75 | 3.2 | 4.8 | 0.00 | 0.00 | 0.00 | 1 | 1016.4 |
| 20260901105504 | 25 | 74 | 3.2 | 4.8 | 0.00 | 0.00 | 0.00 | 1 | 1016.4 |
| 20260901105404 | 25 | 74 | 3.2 | 4.8 | 0.00 | 0.00 | 0.00 | 1 | 1016.4 |
| 20260901105305 | 25 | 74 | 3.2 | 4.8 | 0.00 | 0.00 | 0.00 | 1 | 1016.5 |
| 20260901105204 | 25 | 74 | 3.2 | 4.8 | 0.00 | 0.00 | 0.00 | 1 | 1016.4 |
| 20260901105104 | 25 | 74 | 3.2 | 4.8 | 0.00 | 0.00 | 0.00 | 1 | 1016.4 |
| 20260901105004 | 25 | 74 | 3.2 | 4.8 | 0.00 | 0.00 | 0.00 | 1 | 1016.5 |
| 20260901104904 | 25 | 73 | 3.2 | 4.8 | 0.00 | 0.00 | 0.00 | 1 | 1016.4 |
| 20260901104804 | 25 | 73 | 3.2 | 4.8 | 0.00 | 0.00 | 0.00 | 1 | 1016.4 |
| 20260901104725 | 25 | 73 | 3.2 | 4.8 | 0.00 | 0.00 | 0.00 | 1 | 1016.4 |
| 20260901104625 | 25 | 73 | 3.2 | 4.8 | 0.00 | 0.00 | 0.00 | 1 | 1016.4 |
| 20260901104525 | 25 | 73 | 3.2 | 4.8 | 0.00 | 0.00 | 0.00 | 1 | 1016.4 |
| 20260901104404 | 25 | 73 | 3.2 | 4.8 | 0.00 | 0.00 | 0.00 | 1 | 1016.4 |
| 20260901104304 | 25 | 73 | 3.2 | 4.8 | 0.00 | 0.00 | 0.00 | 1 | 1016.4 |
| 20260901104204 | 25 | 73 | 1.6 | 4.8 | 0.00 | 0.00 | 0.00 | 1 | 1016.3 |
| 20260901104104 | 25 | 73 | 1.6 | 4.8 | 0.00 | 0.00 | 0.00 | 1 | 1016.3 |
| 20260901104004 | 25 | 73 | 1.6 | 4.8 | 0.00 | 0.00 | 0.00 | 1 | 1016.3 |
| 20260901103904 | 25 | 73 | 3.2 | 4.8 | 0.00 | 0.00 | 0.00 | 1 | 1016.3 |
| 20260901103804 | 25 | 73 | 1.6 | 4.8 | 0.00 | 0.00 | 0.00 | 1 | 1016.3 |
| 20260901103725 | 25 | 73 | 1.6 | 4.8 | 0.00 | 0.00 | 0.00 | 1 | 1016.3 |
| 20260901103604 | 25 | 73 | 1.6 | 4.8 | 0.00 | 0.00 | 0.00 | 1 | 1016.3 |
| 20260901103504 | 25 | 73 | 1.6 | 4.8 | 0.00 | 0.00 | 0.00 | 1 | 1016.3 |
| 20260901103404 | 25 | 73 | 1.6 | 4.8 | 0.00 | 0.00 | 0.00 | 1 | 1016.3 |
| 20260901103325 | 25 | 73 | 1.6 | 4.8 | 0.00 | 0.00 | 0.00 | 1 | 1016.3 |
| 20260901103204 | 25 | 73 | 1.6 | 4.8 | 0.00 | 0.00 | 0.00 | 1 | 1016.3 |
| 20260901103104 | 25 | 73 | 1.6 | 4.8 | 0.00 | 0.00 | 0.00 | 1 | 1016.3 |
| 20260901103004 | 25 | 73 | 1.6 | 4.8 | 0.00 | 0.00 | 0.00 | 1 | 1016.3 |
| 20260901102904 | 25 | 72 | 1.6 | 4.8 | 0.00 | 0.00 | 0.00 | 1 | 1016.3 |
| 20260901102825 | 25 | 72 | 1.6 | 4.8 | 0.00 | 0.00 | 0.00 | 1 | 1016.3 |
| 20260901102704 | 25 | 72 | 1.6 | 4.8 | 0.00 | 0.00 | 0.00 | 1 | 1016.3 |
| 20260901102604 | 25 | 72 | 1.6 | 3.2 | 0.00 | 0.00 | 0.00 | 1 | 1016.3 |
| 20260901102525 | 25 | 72 | 1.6 | 3.2 | 0.00 | 0.00 | 0.00 | 1 | 1016.3 |
| 20260901102404 | 25 | 72 | 1.6 | 3.2 | 0.00 | 0.00 | 0.00 | 1 | 1016.3 |
| 20260901102306 | 25 | 72 | 1.6 | 3.2 | 0.00 | 0.00 | 0.00 | 1 | 1016.3 |
| 20260901102204 | 25 | 72 | 1.6 | 3.2 | 0.00 | 0.00 | 0.00 | 1 | 1016.3 |
| 20260901102104 | 25 | 72 | 1.6 | 4.8 | 0.00 | 0.00 | 0.00 | 1 | 1016.2 |
| 20260901102004 | 25 | 72 | 1.6 | 4.8 | 0.00 | 0.00 | 0.00 | 1 | 1016.3 |
| 20260901101904 | 25 | 72 | 1.6 | 4.8 | 0.00 | 0.00 | 0.00 | 1 | 1016.3 |
| 20260901101825 | 25 | 72 | 1.6 | 4.8 | 0.00 | 0.00 | 0.00 | 1 | 1016.3 |
| 20260901101704 | 25 | 72 | 3.2 | 4.8 | 0.00 | 0.00 | 0.00 | 1 | 1016.2 |
| 20260901101604 | 25 | 72 | 3.2 | 6.4 | 0.00 | 0.00 | 0.00 | 1 | 1016.3 |
| 20260901101525 | 25 | 72 | 1.6 | 6.4 | 0.00 | 0.00 | 0.00 | 1 | 1016.2 |
| 20260901101404 | 25 | 72 | 1.6 | 6.4 | 0.00 | 0.00 | 0.00 | 1 | 1016.2 |
| 20260901101304 | 25 | 72 | 3.2 | 6.4 | 0.00 | 0.00 | 0.00 | 1 | 1016.2 |
| 20260901101225 | 25 | 72 | 3.2 | 6.4 | 0.00 | 0.00 | 0.00 | 1 | 1016.2 |
| 20260901101104 | 25 | 72 | 3.2 | 6.4 | 0.00 | 0.00 | 0.00 | 1 | 1016.2 |
| 20260901101025 | 25 | 72 | 3.2 | 6.4 | 0.00 | 0.00 | 0.00 | 1 | 1016.2 |
| 20260901100904 | 25 | 71 | 3.2 | 6.4 | 0.00 | 0.00 | 0.00 | 1 | 1016.2 |
| 20260901100804 | 25 | 71 | 3.2 | 6.4 | 0.00 | 0.00 | 0.00 | 1 | 1016.2 |
| 20260901100704 | 25 | 71 | 3.2 | 6.4 | 0.00 | 0.00 | 0.00 | 1 | 1016.2 |
| 20260901100604 | 25 | 71 | 3.2 | 6.4 | 0.00 | 0.00 | 0.00 | 1 | 1016.2 |
| 20260901100504 | 25 | 71 | 3.2 | 6.4 | 0.00 | 0.00 | 0.00 | 1 | 1016.2 |
| 20260901100404 | 25 | 70 | 3.2 | 6.4 | 0.00 | 0.00 | 0.00 | 1 | 1016.2 |
| 20260901100325 | 25 | 70 | 3.2 | 6.4 | 0.00 | 0.00 | 0.00 | 1 | 1016.2 |
| 20260901100204 | 25 | 70 | 3.2 | 6.4 | 0.00 | 0.00 | 0.00 | 1 | 1016.2 |
| 20260901100104 | 25 | 70 | 3.2 | 6.4 | 0.00 | 0.00 | 0.00 | 1 | 1016.2 |
| 20260901100004 | 25 | 70 | 3.2 | 6.4 | 0.00 | 0.00 | 0.00 | 1 | 1016.1 |
| 20260901095904 | 25 | 69 | 3.2 | 6.4 | 0.00 | 0.00 | 0.00 | 1 | 1016.2 |
| 20260901095804 | 25 | 69 | 3.2 | 6.4 | 0.00 | 0.00 | 0.00 | 1 | 1016.2 |
| 20260901095704 | 25 | 68 | 3.2 | 6.4 | 0.00 | 0.00 | 0.00 | 1 | 1016.2 |
| 20260901095625 | 25 | 68 | 3.2 | 6.4 | 0.00 | 0.00 | 0.00 | 1 | 1016.1 |
| 20260901095504 | 25 | 68 | 3.2 | 6.4 | 0.00 | 0.00 | 0.00 | 1 | 1016.2 |
| 20260901095404 | 25 | 68 | 3.2 | 6.4 | 0.00 | 0.00 | 0.00 | 1 | 1016.2 |
| 20260901095306 | 25 | 67 | 3.2 | 6.4 | 0.00 | 0.00 | 0.00 | 1 | 1016.3 |
| 20260901095205 | 25 | 67 | 3.2 | 6.4 | 0.00 | 0.00 | 0.00 | 1 | 1016.2 |
| 20260901095104 | 25 | 66 | 3.2 | 6.4 | 0.00 | 0.00 | 0.00 | 1 | 1016.2 |
| 20260901095004 | 25 | 66 | 3.2 | 6.4 | 0.00 | 0.00 | 0.00 | 1 | 1016.3 |
| 20260901094904 | 25 | 65 | 3.2 | 6.4 | 0.00 | 0.00 | 0.00 | 1 | 1016.2 |
| 20260901094804 | 25 | 65 | 3.2 | 6.4 | 0.00 | 0.00 | 0.00 | 1 | 1016.2 |
| 20260901094704 | 25 | 65 | 3.2 | 6.4 | 0.00 | 0.00 | 0.00 | 1 | 1016.3 |
| 20260901094604 | 25 | 64 | 3.2 | 6.4 | 0.00 | 0.00 | 0.00 | 1 | 1016.3 |
| 20260901094504 | 25 | 64 | 3.2 | 6.4 | 0.00 | 0.00 | 0.00 | 1 | 1016.3 |
| 20260901094425 | 25 | 63 | 3.2 | 8.0 | 0.00 | 0.00 | 0.00 | 1 | 1016.3 |
| 20260901094304 | 25 | 63 | 4.8 | 8.0 | 0.00 | 0.00 | 0.00 | 1 | 1016.3 |
| 20260901094204 | 25 | 63 | 4.8 | 8.0 | 0.00 | 0.00 | 0.00 | 1 | 1016.3 |
| 20260901094104 | 25 | 62 | 4.8 | 8.0 | 0.00 | 0.00 | 0.00 | 1 | 1016.3 |
| 20260901094004 | 25 | 62 | 4.8 | 8.0 | 0.00 | 0.00 | 0.00 | 1 | 1016.3 |
| 20260901093925 | 25 | 62 | 4.8 | 8.0 | 0.00 | 0.00 | 0.00 | 1 | 1016.3 |
| 20260901093804 | 25 | 62 | 4.8 | 8.0 | 0.00 | 0.00 | 0.00 | 1 | 1016.3 |
| 20260901093704 | 25 | 61 | 4.8 | 8.0 | 0.00 | 0.00 | 0.00 | 1 | 1016.3 |
| 20260901093604 | 26 | 61 | 4.8 | 8.0 | 0.00 | 0.00 | 0.00 | 1 | 1016.3 |
| 20260901093504 | 26 | 59 | 4.8 | 8.0 | 0.00 | 0.00 | 0.00 | 1 | 1016.4 |
| 20260901093404 | 26 | 58 | 4.8 | 9.7 | 0.00 | 0.00 | 0.00 | 1 | 1016.4 |
| 20260901093304 | 26 | 58 | 4.8 | 9.7 | 0.00 | 0.00 | 0.00 | 1 | 1016.4 |
| 20260901093225 | 26 | 57 | 4.8 | 9.7 | 0.00 | 0.00 | 0.00 | 1 | 1016.4 |
| 20260901093104 | 26 | 56 | 4.8 | 9.7 | 0.00 | 0.00 | 0.00 | 1 | 1016.4 |
| 20260901093025 | 26 | 55 | 4.8 | 9.7 | 0.00 | 0.00 | 0.00 | 1 | 1016.4 |
| 20260901092904 | 26 | 54 | 4.8 | 9.7 | 0.00 | 0.00 | 0.00 | 1 | 1016.4 |
| 20260901092804 | 26 | 54 | 4.8 | 9.7 | 0.00 | 0.00 | 0.00 | 1 | 1016.4 |
| 20260901092704 | 26 | 53 | 3.2 | 9.7 | 0.00 | 0.00 | 0.00 | 1 | 1016.4 |
| 20260901092604 | 26 | 53 | 3.2 | 9.7 | 0.00 | 0.00 | 0.00 | 1 | 1016.4 |
| 20260901092504 | 26 | 53 | 3.2 | 9.7 | 0.00 | 0.00 | 0.00 | 1 | 1016.4 |
| 20260901092404 | 26 | 53 | 3.2 | 8.0 | 0.00 | 0.00 | 0.00 | 1 | 1016.4 |
| 20260901092325 | 26 | 53 | 3.2 | 8.0 | 0.00 | 0.00 | 0.00 | 1 | 1016.4 |
| 20260901092204 | 26 | 54 | 3.2 | 8.0 | 0.00 | 0.00 | 0.00 | 1 | 1016.4 |
| 20260901092104 | 26 | 55 | 3.2 | 8.0 | 0.00 | 0.00 | 0.00 | 1 | 1016.4 |
| 20260901092004 | 26 | 55 | 3.2 | 8.0 | 0.00 | 0.00 | 0.00 | 1 | 1016.4 |
| 20260901091925 | 26 | 56 | 3.2 | 8.0 | 0.00 | 0.00 | 0.00 | 1 | 1016.4 |
| 20260901091804 | 26 | 56 | 3.2 | 6.4 | 0.00 | 0.00 | 0.00 | 1 | 1016.4 |
| 20260901091704 | 26 | 56 | 3.2 | 6.4 | 0.00 | 0.00 | 0.00 | 1 | 1016.4 |
| 20260901091625 | 26 | 56 | 3.2 | 6.4 | 0.00 | 0.00 | 0.00 | 1 | 1016.4 |
| 20260901091504 | 26 | 56 | 3.2 | 6.4 | 0.00 | 0.00 | 0.00 | 1 | 1016.4 |
| 20260901091404 | 26 | 56 | 3.2 | 6.4 | 0.00 | 0.00 | 0.00 | 1 | 1016.4 |
| 20260901091304 | 26 | 55 | 3.2 | 6.4 | 0.00 | 0.00 | 0.00 | 1 | 1016.4 |
| 20260901091204 | 26 | 55 | 3.2 | 6.4 | 0.00 | 0.00 | 0.00 | 1 | 1016.4 |
| 20260901091104 | 26 | 55 | 3.2 | 6.4 | 0.00 | 0.00 | 0.00 | 1 | 1016.4 |
| 20260901091004 | 26 | 55 | 3.2 | 6.4 | 0.00 | 0.00 | 0.00 | 1 | 1016.4 |
| 20260901090904 | 26 | 55 | 1.6 | 6.4 | 0.00 | 0.00 | 0.00 | 1 | 1016.4 |
| 20260901090804 | 26 | 55 | 3.2 | 6.4 | 0.00 | 0.00 | 0.00 | 1 | 1016.4 |
| 20260901090704 | 26 | 55 | 3.2 | 6.4 | 0.00 | 0.00 | 0.00 | 1 | 1016.4 |
| 20260901090604 | 26 | 55 | 3.2 | 6.4 | 0.00 | 0.00 | 0.00 | 1 | 1016.4 |
| 20260901090504 | 26 | 55 | 3.2 | 6.4 | 0.00 | 0.00 | 0.00 | 1 | 1016.4 |
| 20260901090404 | 26 | 55 | 3.2 | 6.4 | 0.00 | 0.00 | 0.00 | 1 | 1016.4 |
| 20260901090304 | 26 | 55 | 1.6 | 6.4 | 0.00 | 0.00 | 0.00 | 1 | 1016.5 |
| 20260901090204 | 26 | 55 | 1.6 | 4.8 | 0.00 | 0.00 | 0.00 | 1 | 1016.5 |
| 20260901090104 | 26 | 55 | 1.6 | 4.8 | 0.00 | 0.00 | 0.00 | 1 | 1016.5 |
| 20260901090004 | 26 | 55 | 1.6 | 4.8 | 0.00 | 0.00 | 0.00 | 1 | 1016.5 |
| 20260901085904 | 26 | 55 | 1.6 | 4.8 | 0.00 | 0.00 | 0.00 | 1 | 1016.5 |
| 20260901085804 | 26 | 55 | 1.6 | 4.8 | 0.00 | 0.00 | 0.00 | 1 | 1016.5 |
| 20260901085725 | 26 | 55 | 1.6 | 8.0 | 0.00 | 0.00 | 0.00 | 1 | 1016.5 |
| 20260901085604 | 26 | 55 | 1.6 | 8.0 | 0.00 | 0.00 | 0.00 | 1 | 1016.5 |
| 20260901085504 | 26 | 55 | 1.6 | 8.0 | 0.00 | 0.00 | 0.00 | 1 | 1016.5 |
| 20260901085425 | 26 | 55 | 1.6 | 8.0 | 0.00 | 0.00 | 0.00 | 1 | 1016.5 |
| 20260901085306 | 26 | 55 | 1.6 | 8.0 | 0.00 | 0.00 | 0.00 | 1 | 1016.5 |
| 20260901085205 | 26 | 55 | 3.2 | 8.0 | 0.00 | 0.00 | 0.00 | 1 | 1016.5 |
| 20260901085125 | 26 | 55 | 3.2 | 8.0 | 0.00 | 0.00 | 0.00 | 1 | 1016.5 |
| 20260901085004 | 26 | 56 | 3.2 | 8.0 | 0.00 | 0.00 | 0.00 | 1 | 1016.5 |
| 20260901084904 | 26 | 56 | 3.2 | 8.0 | 0.00 | 0.00 | 0.00 | 1 | 1016.5 |
| 20260901084804 | 26 | 56 | 3.2 | 8.0 | 0.00 | 0.00 | 0.00 | 1 | 1016.5 |
| 20260901084704 | 26 | 56 | 3.2 | 8.0 | 0.00 | 0.00 | 0.00 | 1 | 1016.5 |
| 20260901084604 | 26 | 57 | 3.2 | 8.0 | 0.00 | 0.00 | 0.00 | 1 | 1016.5 |
| 20260901084504 | 26 | 57 | 3.2 | 6.4 | 0.00 | 0.00 | 0.00 | 1 | 1016.5 |
| 20260901084425 | 26 | 57 | 3.2 | 6.4 | 0.00 | 0.00 | 0.00 | 1 | 1016.5 |
| 20260901084325 | 26 | 57 | 3.2 | 6.4 | 0.00 | 0.00 | 0.00 | 1 | 1016.5 |
| 20260901084204 | 26 | 57 | 3.2 | 6.4 | 0.00 | 0.00 | 0.00 | 1 | 1016.5 |
| 20260901084104 | 26 | 57 | 3.2 | 6.4 | 0.00 | 0.00 | 0.00 | 1 | 1016.5 |
| 20260901084004 | 26 | 57 | 3.2 | 4.8 | 0.00 | 0.00 | 0.00 | 1 | 1016.4 |
| 20260901083925 | 26 | 57 | 3.2 | 4.8 | 0.00 | 0.00 | 0.00 | 1 | 1016.5 |
| 20260901083804 | 26 | 57 | 3.2 | 4.8 | 0.00 | 0.00 | 0.00 | 1 | 1016.5 |
| 20260901083704 | 26 | 57 | 3.2 | 4.8 | 0.00 | 0.00 | 0.00 | 1 | 1016.5 |
| 20260901083604 | 26 | 57 | 3.2 | 4.8 | 0.00 | 0.00 | 0.00 | 1 | 1016.5 |
| 20260901083525 | 26 | 57 | 1.6 | 4.8 | 0.00 | 0.00 | 0.00 | 1 | 1016.5 |
| 20260901083404 | 26 | 57 | 1.6 | 4.8 | 0.00 | 0.00 | 0.00 | 1 | 1016.5 |
| 20260901083304 | 26 | 57 | 1.6 | 4.8 | 0.00 | 0.00 | 0.00 | 1 | 1016.5 |
| 20260901083204 | 26 | 57 | 1.6 | 4.8 | 0.00 | 0.00 | 0.00 | 1 | 1016.5 |
| 20260901083104 | 26 | 57 | 1.6 | 4.8 | 0.00 | 0.00 | 0.00 | 1 | 1016.5 |
| 20260901083025 | 26 | 57 | 1.6 | 4.8 | 0.00 | 0.00 | 0.00 | 1 | 1016.5 |
| 20260901082904 | 26 | 57 | 1.6 | 4.8 | 0.00 | 0.00 | 0.00 | 1 | 1016.5 |
| 20260901082804 | 26 | 57 | 1.6 | 4.8 | 0.00 | 0.00 | 0.00 | 1 | 1016.5 |
| 20260901082704 | 27 | 57 | 1.6 | 6.4 | 0.00 | 0.00 | 0.00 | 1 | 1016.5 |
| 20260901082625 | 27 | 57 | 1.6 | 6.4 | 0.00 | 0.00 | 0.00 | 1 | 1016.5 |
| 20260901082504 | 27 | 57 | 1.6 | 6.4 | 0.00 | 0.00 | 0.00 | 1 | 1016.5 |
| 20260901082404 | 27 | 56 | 1.6 | 6.4 | 0.00 | 0.00 | 0.00 | 1 | 1016.5 |
| 20260901082306 | 27 | 56 | 1.6 | 6.4 | 0.00 | 0.00 | 0.00 | 1 | 1016.5 |
| 20260901082204 | 27 | 56 | 1.6 | 6.4 | 0.00 | 0.00 | 0.00 | 1 | 1016.5 |
| 20260901082104 | 27 | 56 | 1.6 | 6.4 | 0.00 | 0.00 | 0.00 | 1 | 1016.5 |
| 20260901082004 | 27 | 56 | 1.6 | 6.4 | 0.00 | 0.00 | 0.00 | 1 | 1016.4 |
| 20260901081904 | 27 | 56 | 1.6 | 6.4 | 0.00 | 0.00 | 0.00 | 1 | 1016.5 |
| 20260901081804 | 27 | 56 | 1.6 | 6.4 | 0.00 | 0.00 | 0.00 | 1 | 1016.4 |
| 20260901081704 | 27 | 56 | 1.6 | 4.8 | 0.00 | 0.00 | 0.00 | 1 | 1016.4 |
| 20260901081604 | 27 | 56 | 1.6 | 4.8 | 0.00 | 0.00 | 0.00 | 1 | 1016.4 |
| 20260901081525 | 27 | 56 | 1.6 | 4.8 | 0.00 | 0.00 | 0.00 | 1 | 1016.4 |
| 20260901081425 | 27 | 56 | 1.6 | 4.8 | 0.00 | 0.00 | 0.00 | 1 | 1016.4 |
| 20260901081304 | 27 | 56 | 1.6 | 4.8 | 0.00 | 0.00 | 0.00 | 1 | 1016.4 |
| 20260901081204 | 27 | 56 | 3.2 | 6.4 | 0.00 | 0.00 | 0.00 | 1 | 1016.3 |
| 20260901081104 | 27 | 56 | 3.2 | 6.4 | 0.00 | 0.00 | 0.00 | 1 | 1016.4 |
| 20260901081025 | 27 | 56 | 3.2 | 6.4 | 0.00 | 0.00 | 0.00 | 1 | 1016.4 |
| 20260901080904 | 27 | 56 | 1.6 | 6.4 | 0.00 | 0.00 | 0.00 | 1 | 1016.3 |
| 20260901080804 | 27 | 56 | 1.6 | 6.4 | 0.00 | 0.00 | 0.00 | 1 | 1016.3 |
| 20260901080704 | 27 | 56 | 1.6 | 6.4 | 0.00 | 0.00 | 0.00 | 1 | 1016.4 |
| 20260901080625 | 27 | 55 | 1.6 | 6.4 | 0.00 | 0.00 | 0.00 | 1 | 1016.4 |
| 20260901080504 | 27 | 55 | 1.6 | 6.4 | 0.00 | 0.00 | 0.00 | 1 | 1016.3 |
| 20260901080425 | 27 | 55 | 1.6 | 6.4 | 0.00 | 0.00 | 0.00 | 1 | 1016.4 |
| 20260901080304 | 27 | 55 | 1.6 | 6.4 | 0.00 | 0.00 | 0.00 | 1 | 1016.4 |
| 20260901080204 | 27 | 55 | 1.6 | 4.8 | 0.00 | 0.00 | 0.00 | 1 | 1016.4 |
| 20260901080104 | 27 | 55 | 1.6 | 4.8 | 0.00 | 0.00 | 0.00 | 1 | 1016.4 |
| 20260901080004 | 27 | 55 | 1.6 | 4.8 | 0.00 | 0.00 | 0.00 | 1 | 1016.4 |
| 20260901075904 | 27 | 55 | 1.6 | 4.8 | 0.00 | 0.00 | 0.00 | 1 | 1016.4 |
| 20260901075804 | 27 | 55 | 1.6 | 4.8 | 0.00 | 0.00 | 0.00 | 1 | 1016.4 |
| 20260901075704 | 27 | 54 | 1.6 | 4.8 | 0.00 | 0.00 | 0.00 | 1 | 1016.4 |
| 20260901075625 | 27 | 54 | 1.6 | 4.8 | 0.00 | 0.00 | 0.00 | 1 | 1016.4 |
| 20260901075525 | 27 | 54 | 1.6 | 4.8 | 0.00 | 0.00 | 0.00 | 1 | 1016.4 |
| 20260901075404 | 27 | 54 | 1.6 | 4.8 | 0.00 | 0.00 | 0.00 | 1 | 1016.4 |
| 20260901075325 | 27 | 54 | 1.6 | 4.8 | 0.00 | 0.00 | 0.00 | 1 | 1016.5 |
| 20260901075206 | 27 | 54 | 1.6 | 4.8 | 0.00 | 0.00 | 0.00 | 1 | 1016.4 |
| 20260901075104 | 27 | 54 | 1.6 | 4.8 | 0.00 | 0.00 | 0.00 | 1 | 1016.4 |
| 20260901075004 | 27 | 54 | 1.6 | 4.8 | 0.00 | 0.00 | 0.00 | 1 | 1016.4 |
| 20260901074904 | 27 | 54 | 1.6 | 4.8 | 0.00 | 0.00 | 0.00 | 1 | 1016.3 |
| 20260901074804 | 27 | 53 | 1.6 | 4.8 | 0.00 | 0.00 | 0.00 | 1 | 1016.3 |
| 20260901074704 | 27 | 53 | 1.6 | 4.8 | 0.00 | 0.00 | 0.00 | 1 | 1016.3 |
| 20260901074604 | 27 | 53 | 1.6 | 4.8 | 0.00 | 0.00 | 0.00 | 1 | 1016.4 |
| 20260901074504 | 27 | 53 | 1.6 | 4.8 | 0.00 | 0.00 | 0.00 | 1 | 1016.3 |
| 20260901074404 | 27 | 53 | 1.6 | 4.8 | 0.00 | 0.00 | 0.00 | 1 | 1016.3 |
| 20260901074325 | 27 | 53 | 1.6 | 4.8 | 0.00 | 0.00 | 0.00 | 1 | 1016.3 |
| 20260901074204 | 27 | 53 | 1.6 | 4.8 | 0.00 | 0.00 | 0.00 | 1 | 1016.3 |
| 20260901074104 | 27 | 53 | 1.6 | 4.8 | 0.00 | 0.00 | 0.00 | 1 | 1016.3 |
| 20260901074004 | 27 | 52 | 1.6 | 4.8 | 0.00 | 0.00 | 0.00 | 1 | 1016.3 |
| 20260901073904 | 27 | 52 | 1.6 | 4.8 | 0.00 | 0.00 | 0.00 | 1 | 1016.3 |
| 20260901073825 | 27 | 52 | 1.6 | 4.8 | 0.00 | 0.00 | 0.00 | 1 | 1016.3 |
| 20260901073704 | 27 | 52 | 1.6 | 4.8 | 0.00 | 0.00 | 0.00 | 1 | 1016.3 |
| 20260901073604 | 27 | 51 | 1.6 | 4.8 | 0.00 | 0.00 | 0.00 | 1 | 1016.3 |
| 20260901073525 | 27 | 51 | 1.6 | 4.8 | 0.00 | 0.00 | 0.00 | 1 | 1016.3 |
| 20260901073404 | 27 | 51 | 1.6 | 4.8 | 0.00 | 0.00 | 0.00 | 1 | 1016.3 |
| 20260901073304 | 27 | 51 | 1.6 | 4.8 | 0.00 | 0.00 | 0.00 | 1 | 1016.3 |
| 20260901073204 | 27 | 51 | 0.0 | 4.8 | 0.00 | 0.00 | 0.00 | 1 | 1016.4 |
| 20260901073104 | 27 | 51 | 0.0 | 4.8 | 0.00 | 0.00 | 0.00 | 1 | 1016.3 |
| 20260901073004 | 27 | 51 | 0.0 | 3.2 | 0.00 | 0.00 | 0.00 | 1 | 1016.4 |
| 20260901072925 | 27 | 51 | 1.6 | 3.2 | 0.00 | 0.00 | 0.00 | 1 | 1016.4 |
| 20260901072804 | 27 | 51 | 1.6 | 3.2 | 0.00 | 0.00 | 0.00 | 1 | 1016.4 |
| 20260901072704 | 27 | 51 | 1.6 | 6.4 | 0.00 | 0.00 | 0.00 | 1 | 1016.4 |
| 20260901072604 | 27 | 51 | 1.6 | 6.4 | 0.00 | 0.00 | 0.00 | 1 | 1016.4 |
| 20260901072504 | 27 | 51 | 1.6 | 6.4 | 0.00 | 0.00 | 0.00 | 1 | 1016.4 |
| 20260901072404 | 27 | 51 | 1.6 | 6.4 | 0.00 | 0.00 | 0.00 | 1 | 1016.4 |
| 20260901072308 | 27 | 51 | 1.6 | 6.4 | 0.00 | 0.00 | 0.00 | 1 | 1016.4 |
| 20260901072204 | 27 | 51 | 1.6 | 6.4 | 0.00 | 0.00 | 0.00 | 1 | 1016.4 |
| 20260901072104 | 27 | 51 | 1.6 | 6.4 | 0.00 | 0.00 | 0.00 | 1 | 1016.4 |
| 20260901072004 | 27 | 51 | 1.6 | 6.4 | 0.00 | 0.00 | 0.00 | 1 | 1016.5 |
| 20260901071904 | 27 | 51 | 1.6 | 6.4 | 0.00 | 0.00 | 0.00 | 1 | 1016.5 |
| 20260901071804 | 27 | 51 | 1.6 | 6.4 | 0.00 | 0.00 | 0.00 | 1 | 1016.4 |
| 20260901071704 | 27 | 51 | 1.6 | 6.4 | 0.00 | 0.00 | 0.00 | 1 | 1016.5 |
| 20260901071604 | 27 | 51 | 1.6 | 6.4 | 0.00 | 0.00 | 0.00 | 1 | 1016.5 |
| 20260901071504 | 27 | 51 | 1.6 | 4.8 | 0.00 | 0.00 | 0.00 | 1 | 1016.5 |
| 20260901071425 | 27 | 51 | 1.6 | 4.8 | 0.00 | 0.00 | 0.00 | 1 | 1016.5 |
| 20260901071304 | 27 | 51 | 1.6 | 4.8 | 0.00 | 0.00 | 0.00 | 1 | 1016.5 |
| 20260901071204 | 27 | 50 | 1.6 | 4.8 | 0.00 | 0.00 | 0.00 | 1 | 1016.5 |
| 20260901071104 | 27 | 50 | 1.6 | 4.8 | 0.00 | 0.00 | 0.00 | 1 | 1016.5 |
| 20260901071004 | 27 | 50 | 1.6 | 4.8 | 0.00 | 0.00 | 0.00 | 1 | 1016.5 |
| 20260901070904 | 27 | 50 | 1.6 | 4.8 | 0.00 | 0.00 | 0.00 | 1 | 1016.5 |
| 20260901070825 | 27 | 50 | 1.6 | 4.8 | 0.00 | 0.00 | 0.00 | 1 | 1016.4 |
| 20260901070725 | 27 | 50 | 1.6 | 4.8 | 0.00 | 0.00 | 0.00 | 1 | 1016.4 |
| 20260901070604 | 27 | 50 | 1.6 | 4.8 | 0.00 | 0.00 | 0.00 | 1 | 1016.5 |
| 20260901070506 | 27 | 50 | 1.6 | 4.8 | 0.00 | 0.00 | 0.00 | 1 | 1016.5 |
| 20260901070425 | 27 | 50 | 1.6 | 4.8 | 0.00 | 0.00 | 0.00 | 1 | 1016.5 |
| 20260901070304 | 27 | 50 | 1.6 | 4.8 | 0.00 | 0.00 | 0.00 | 1 | 1016.5 |
| 20260901070225 | 27 | 50 | 1.6 | 4.8 | 0.00 | 0.00 | 0.00 | 1 | 1016.5 |
| 20260901070104 | 27 | 50 | 1.6 | 6.4 | 0.00 | 0.00 | 0.00 | 1 | 1016.4 |
| 20260901070004 | 27 | 50 | 1.6 | 6.4 | 0.00 | 0.00 | 0.00 | 1 | 1016.4 |
| 20260901065904 | 27 | 50 | 1.6 | 6.4 | 0.00 | 0.00 | 0.00 | 1 | 1016.3 |
| 20260901065804 | 27 | 50 | 1.6 | 6.4 | 0.00 | 0.00 | 0.00 | 1 | 1016.4 |
| 20260901065704 | 27 | 50 | 3.2 | 6.4 | 0.00 | 0.00 | 0.00 | 1 | 1016.3 |
| 20260901065604 | 27 | 50 | 3.2 | 6.4 | 0.00 | 0.00 | 0.00 | 1 | 1016.4 |
| 20260901065504 | 27 | 50 | 3.2 | 6.4 | 0.00 | 0.00 | 0.00 | 1 | 1016.3 |
| 20260901065404 | 27 | 50 | 3.2 | 6.4 | 0.00 | 0.00 | 0.00 | 1 | 1016.4 |
| 20260901065305 | 27 | 50 | 3.2 | 6.4 | 0.00 | 0.00 | 0.00 | 1 | 1016.4 |
| 20260901065204 | 27 | 50 | 3.2 | 6.4 | 0.00 | 0.00 | 0.00 | 1 | 1016.4 |
| 20260901065104 | 27 | 50 | 3.2 | 6.4 | 0.00 | 0.00 | 0.00 | 1 | 1016.4 |
| 20260901065004 | 28 | 49 | 3.2 | 6.4 | 0.00 | 0.00 | 0.00 | 1 | 1016.4 |
| 20260901064904 | 28 | 49 | 3.2 | 6.4 | 0.00 | 0.00 | 0.00 | 1 | 1016.4 |
| 20260901064804 | 28 | 49 | 3.2 | 6.4 | 0.00 | 0.00 | 0.00 | 1 | 1016.3 |
| 20260901064704 | 28 | 49 | 3.2 | 6.4 | 0.00 | 0.00 | 0.00 | 1 | 1016.3 |
| 20260901064604 | 28 | 49 | 3.2 | 6.4 | 0.00 | 0.00 | 0.00 | 1 | 1016.3 |
| 20260901064504 | 28 | 49 | 3.2 | 8.0 | 0.00 | 0.00 | 0.00 | 1 | 1016.3 |
| 20260901064425 | 28 | 49 | 3.2 | 8.0 | 0.00 | 0.00 | 0.00 | 1 | 1016.3 |
| 20260901064304 | 28 | 49 | 3.2 | 8.0 | 0.00 | 0.00 | 0.00 | 1 | 1016.3 |
| 20260901064204 | 28 | 49 | 3.2 | 8.0 | 0.00 | 0.00 | 0.00 | 1 | 1016.3 |
| 20260901064125 | 28 | 49 | 3.2 | 8.0 | 0.00 | 0.00 | 0.00 | 1 | 1016.3 |
| 20260901064004 | 28 | 48 | 3.2 | 8.0 | 0.00 | 0.00 | 0.00 | 1 | 1016.3 |
| 20260901063904 | 28 | 48 | 3.2 | 8.0 | 0.00 | 0.00 | 0.00 | 1 | 1016.3 |
| 20260901063804 | 28 | 47 | 3.2 | 9.7 | 0.00 | 0.00 | 0.00 | 1 | 1016.3 |
| 20260901063704 | 28 | 47 | 3.2 | 9.7 | 0.00 | 0.00 | 0.00 | 1 | 1016.3 |
| 20260901063625 | 28 | 47 | 3.2 | 9.7 | 0.00 | 0.00 | 0.00 | 1 | 1016.3 |
| 20260901063504 | 28 | 46 | 3.2 | 9.7 | 0.00 | 0.00 | 0.00 | 1 | 1016.2 |
| 20260901063425 | 28 | 45 | 4.8 | 9.7 | 0.00 | 0.00 | 0.00 | 1 | 1016.2 |
| 20260901063304 | 28 | 41 | 4.8 | 11.3 | 0.00 | 0.00 | 0.00 | 1 | 1016.3 |
| 20260901063204 | 28 | 41 | 4.8 | 11.3 | 0.00 | 0.00 | 0.00 | 1 | 1016.3 |
| 20260901063125 | 28 | 41 | 4.8 | 11.3 | 0.00 | 0.00 | 0.00 | 1 | 1016.3 |
| 20260901063004 | 28 | 40 | 4.8 | 11.3 | 0.00 | 0.00 | 0.00 | 1 | 1016.2 |
| 20260901062904 | 28 | 40 | 4.8 | 11.3 | 0.00 | 0.00 | 0.00 | 1 | 1016.3 |
| 20260901062804 | 28 | 39 | 4.8 | 11.3 | 0.00 | 0.00 | 0.00 | 1 | 1016.2 |
| 20260901062704 | 28 | 39 | 4.8 | 11.3 | 0.00 | 0.00 | 0.00 | 1 | 1016.3 |
| 20260901062604 | 28 | 39 | 4.8 | 11.3 | 0.00 | 0.00 | 0.00 | 1 | 1016.2 |
| 20260901062504 | 28 | 39 | 4.8 | 11.3 | 0.00 | 0.00 | 0.00 | 1 | 1016.3 |
| 20260901062404 | 28 | 41 | 4.8 | 9.7 | 0.00 | 0.00 | 0.00 | 1 | 1016.2 |
| 20260901062309 | 28 | 41 | 4.8 | 11.3 | 0.00 | 0.00 | 0.00 | 1 | 1016.3 |
| 20260901062204 | 28 | 42 | 4.8 | 11.3 | 0.00 | 0.00 | 0.00 | 1 | 1016.3 |
| 20260901062104 | 28 | 42 | 4.8 | 11.3 | 0.00 | 0.00 | 0.00 | 1 | 1016.2 |
| 20260901062004 | 28 | 41 | 4.8 | 11.3 | 0.00 | 0.00 | 0.00 | 1 | 1016.3 |
| 20260901061904 | 28 | 40 | 4.8 | 11.3 | 0.00 | 0.00 | 0.00 | 1 | 1016.3 |
| 20260901061804 | 28 | 38 | 4.8 | 16.1 | 0.00 | 0.00 | 0.00 | 1 | 1016.2 |
| 20260901061704 | 28 | 37 | 4.8 | 16.1 | 0.00 | 0.00 | 0.00 | 1 | 1016.2 |
| 20260901061604 | 28 | 37 | 4.8 | 16.1 | 0.00 | 0.00 | 0.00 | 1 | 1016.2 |
| 20260901061525 | 28 | 37 | 4.8 | 16.1 | 0.00 | 0.00 | 0.00 | 1 | 1016.2 |
| 20260901061404 | 28 | 38 | 4.8 | 16.1 | 0.00 | 0.00 | 0.00 | 1 | 1016.2 |
| 20260901061304 | 28 | 38 | 4.8 | 16.1 | 0.00 | 0.00 | 0.00 | 1 | 1016.1 |
| 20260901061204 | 28 | 37 | 4.8 | 16.1 | 0.00 | 0.00 | 0.00 | 1 | 1016.2 |
| 20260901061125 | 28 | 37 | 4.8 | 16.1 | 0.00 | 0.00 | 0.00 | 1 | 1016.2 |
| 20260901061004 | 28 | 39 | 4.8 | 16.1 | 0.00 | 0.00 | 0.00 | 1 | 1016.2 |
| 20260901060904 | 28 | 39 | 4.8 | 16.1 | 0.00 | 0.00 | 0.00 | 1 | 1016.2 |
| 20260901060804 | 28 | 39 | 4.8 | 11.3 | 0.00 | 0.00 | 0.00 | 1 | 1016.2 |
| 20260901060704 | 28 | 41 | 4.8 | 11.3 | 0.00 | 0.00 | 0.00 | 1 | 1016.2 |
| 20260901060626 | 28 | 41 | 4.8 | 11.3 | 0.00 | 0.00 | 0.00 | 1 | 1016.1 |
| 20260901060525 | 28 | 42 | 4.8 | 11.3 | 0.00 | 0.00 | 0.00 | 1 | 1016.1 |
| 20260901060404 | 28 | 40 | 4.8 | 14.5 | 0.00 | 0.00 | 0.00 | 1 | 1016.1 |
| 20260901060304 | 28 | 40 | 6.4 | 19.3 | 0.00 | 0.00 | 0.00 | 1 | 1016.1 |
| 20260901060204 | 28 | 40 | 6.4 | 19.3 | 0.00 | 0.00 | 0.00 | 1 | 1016.1 |
| 20260901060104 | 28 | 40 | 6.4 | 19.3 | 0.00 | 0.00 | 0.00 | 1 | 1016.2 |
| 20260901060004 | 28 | 40 | 6.4 | 19.3 | 0.00 | 0.00 | 0.00 | 1 | 1016.1 |
| 20260901055904 | 28 | 40 | 6.4 | 19.3 | 0.00 | 0.00 | 0.00 | 1 | 1016.1 |
| 20260901055804 | 28 | 42 | 8.0 | 19.3 | 0.00 | 0.00 | 0.00 | 1 | 1016.1 |
| 20260901055704 | 28 | 42 | 8.0 | 19.3 | 0.00 | 0.00 | 0.00 | 1 | 1016.2 |
| 20260901055604 | 28 | 41 | 8.0 | 19.3 | 0.00 | 0.00 | 0.00 | 1 | 1016.1 |
| 20260901055525 | 28 | 42 | 8.0 | 19.3 | 0.00 | 0.00 | 0.00 | 1 | 1016.1 |
| 20260901055425 | 28 | 42 | 8.0 | 19.3 | 0.00 | 0.00 | 0.00 | 1 | 1016.1 |
| 20260901055306 | 28 | 43 | 8.0 | 16.1 | 0.00 | 0.00 | 0.00 | 1 | 1016.1 |
| 20260901055204 | 28 | 43 | 8.0 | 16.1 | 0.00 | 0.00 | 0.00 | 1 | 1016.1 |
| 20260901055104 | 28 | 45 | 8.0 | 16.1 | 0.00 | 0.00 | 0.00 | 1 | 1016.1 |
| 20260901055004 | 28 | 45 | 8.0 | 16.1 | 0.00 | 0.00 | 0.00 | 1 | 1016.0 |
| 20260901054904 | 28 | 48 | 8.0 | 16.1 | 0.00 | 0.00 | 0.00 | 1 | 1016.1 |
| 20260901054804 | 28 | 48 | 6.4 | 16.1 | 0.00 | 0.00 | 0.00 | 1 | 1016.0 |
| 20260901054704 | 28 | 49 | 6.4 | 16.1 | 0.00 | 0.00 | 0.00 | 1 | 1016.0 |
| 20260901054625 | 28 | 50 | 6.4 | 16.1 | 0.00 | 0.00 | 0.00 | 1 | 1016.0 |
| 20260901054504 | 28 | 48 | 6.4 | 14.5 | 0.00 | 0.00 | 0.00 | 1 | 1016.1 |
| 20260901054404 | 28 | 44 | 4.8 | 14.5 | 0.00 | 0.00 | 0.00 | 1 | 1016.1 |
| 20260901054325 | 28 | 41 | 4.8 | 14.5 | 0.00 | 0.00 | 0.00 | 1 | 1016.1 |
| 20260901054204 | 28 | 31 | 4.8 | 11.3 | 0.00 | 0.00 | 0.00 | 1 | 1016.1 |
| 20260901054104 | 28 | 20 | 4.8 | 11.3 | 0.00 | 0.00 | 0.00 | 1 | 1016.1 |
| 20260901054004 | 28 | 10 | 4.8 | 11.3 | 0.00 | 0.00 | 0.00 | 1 | 1016.0 |
| 20260901053904 | 28 | 360 | 4.8 | 11.3 | 0.00 | 0.00 | 0.00 | 1 | 1016.0 |
| 20260901053804 | 28 | 360 | 4.8 | 11.3 | 0.00 | 0.00 | 0.00 | 1 | 1016.1 |
| 20260901053704 | 28 | 357 | 4.8 | 11.3 | 0.00 | 0.00 | 0.00 | 1 | 1016.0 |
| 20260901053604 | 28 | 353 | 4.8 | 11.3 | 0.00 | 0.00 | 0.00 | 1 | 1016.0 |
| 20260901053504 | 28 | 1 | 4.8 | 11.3 | 0.00 | 0.00 | 0.00 | 1 | 1016.0 |
| 20260901053404 | 28 | 360 | 4.8 | 11.3 | 0.00 | 0.00 | 0.00 | 1 | 1016.1 |
| 20260901053304 | 28 | 356 | 4.8 | 11.3 | 0.00 | 0.00 | 0.00 | 1 | 1016.1 |
| 20260901053204 | 28 | 354 | 4.8 | 11.3 | 0.00 | 0.00 | 0.00 | 1 | 1016.0 |
| 20260901053125 | 28 | 355 | 4.8 | 11.3 | 0.00 | 0.00 | 0.00 | 1 | 1016.0 |
| 20260901053004 | 28 | 352 | 4.8 | 11.3 | 0.00 | 0.00 | 0.00 | 1 | 1016.0 |
| 20260901052904 | 28 | 346 | 3.2 | 11.3 | 0.00 | 0.00 | 0.00 | 1 | 1016.0 |
| 20260901052804 | 28 | 345 | 3.2 | 11.3 | 0.00 | 0.00 | 0.00 | 1 | 1016.0 |
| 20260901052704 | 28 | 338 | 3.2 | 11.3 | 0.00 | 0.00 | 0.00 | 1 | 1016.0 |
| 20260901052604 | 28 | 331 | 3.2 | 11.3 | 0.00 | 0.00 | 0.00 | 1 | 1016.0 |
| 20260901052504 | 29 | 317 | 3.2 | 11.3 | 0.00 | 0.00 | 0.00 | 1 | 1016.0 |
| 20260901052425 | 29 | 319 | 3.2 | 11.3 | 0.00 | 0.00 | 0.00 | 2 | 1016.0 |
| 20260901052307 | 29 | 325 | 3.2 | 11.3 | 0.00 | 0.00 | 0.00 | 3 | 1016.0 |
| 20260901052204 | 29 | 331 | 3.2 | 11.3 | 0.00 | 0.00 | 0.00 | 3 | 1016.1 |
| 20260901052125 | 29 | 334 | 4.8 | 11.3 | 0.00 | 0.00 | 0.00 | 3 | 1016.1 |
| 20260901052004 | 29 | 338 | 4.8 | 11.3 | 0.00 | 0.00 | 0.00 | 4 | 1016.1 |
| 20260901051904 | 29 | 344 | 4.8 | 11.3 | 0.00 | 0.00 | 0.00 | 5 | 1016.0 |
| 20260901051804 | 29 | 343 | 4.8 | 12.9 | 0.00 | 0.00 | 0.00 | 5 | 1016.0 |
| 20260901051705 | 29 | 345 | 4.8 | 12.9 | 0.00 | 0.00 | 0.00 | 6 | 1016.0 |
| 20260901051604 | 29 | 351 | 4.8 | 12.9 | 0.00 | 0.00 | 0.00 | 6 | 1016.0 |
| 20260901051525 | 29 | 356 | 4.8 | 12.9 | 0.00 | 0.00 | 0.00 | 7 | 1015.9 |
| 20260901051404 | 29 | 5 | 4.8 | 12.9 | 0.00 | 0.00 | 0.00 | 7 | 1015.9 |
| 20260901051304 | 29 | 8 | 4.8 | 12.9 | 0.00 | 0.00 | 0.00 | 8 | 1015.9 |
| 20260901051204 | 29 | 9 | 4.8 | 12.9 | 0.00 | 0.00 | 0.00 | 8 | 1015.8 |
| 20260901051104 | 29 | 9 | 4.8 | 12.9 | 0.00 | 0.00 | 0.00 | 8 | 1015.8 |
| 20260901051004 | 29 | 12 | 4.8 | 12.9 | 0.00 | 0.00 | 0.00 | 9 | 1015.8 |
| 20260901050925 | 29 | 13 | 4.8 | 12.9 | 0.00 | 0.00 | 0.00 | 9 | 1015.9 |
| 20260901050804 | 29 | 10 | 4.8 | 11.3 | 0.00 | 0.00 | 0.00 | 10 | 1015.8 |
| 20260901050704 | 29 | 6 | 4.8 | 11.3 | 0.00 | 0.00 | 0.00 | 10 | 1015.8 |
| 20260901050604 | 29 | 358 | 4.8 | 12.9 | 0.00 | 0.00 | 0.00 | 11 | 1015.8 |
| 20260901050504 | 29 | 353 | 4.8 | 14.5 | 0.00 | 0.00 | 0.00 | 11 | 1015.7 |
| 20260901050425 | 29 | 349 | 4.8 | 14.5 | 0.00 | 0.00 | 0.00 | 11 | 1015.8 |
| 20260901050304 | 29 | 354 | 4.8 | 14.5 | 0.00 | 0.00 | 0.00 | 12 | 1015.7 |
| 20260901050204 | 29 | 1 | 4.8 | 14.5 | 0.00 | 0.00 | 0.00 | 13 | 1015.7 |
| 20260901050104 | 29 | 7 | 4.8 | 14.5 | 0.00 | 0.00 | 0.00 | 13 | 1015.7 |
| 20260901050004 | 29 | 5 | 6.4 | 14.5 | 0.00 | 0.00 | 0.00 | 13 | 1015.7 |
| 20260901045925 | 29 | 9 | 6.4 | 17.7 | 0.00 | 0.00 | 0.00 | 13 | 1015.7 |
| 20260901045804 | 29 | 14 | 6.4 | 17.7 | 0.00 | 0.00 | 0.00 | 14 | 1015.7 |
| 20260901045704 | 29 | 19 | 6.4 | 17.7 | 0.00 | 0.00 | 0.00 | 14 | 1015.7 |
| 20260901045604 | 29 | 25 | 6.4 | 17.7 | 0.00 | 0.00 | 0.00 | 14 | 1015.7 |
| 20260901045504 | 29 | 31 | 4.8 | 17.7 | 0.00 | 0.00 | 0.00 | 14 | 1015.7 |
| 20260901045404 | 29 | 34 | 4.8 | 17.7 | 0.00 | 0.00 | 0.00 | 14 | 1015.7 |
| 20260901045306 | 29 | 31 | 4.8 | 17.7 | 0.00 | 0.00 | 0.00 | 15 | 1015.7 |
| 20260901045204 | 29 | 27 | 4.8 | 17.7 | 0.00 | 0.00 | 0.00 | 15 | 1015.6 |
| 20260901045104 | 29 | 19 | 4.8 | 17.7 | 0.00 | 0.00 | 0.00 | 15 | 1015.6 |
| 20260901045004 | 30 | 17 | 4.8 | 17.7 | 0.00 | 0.00 | 0.00 | 15 | 1015.6 |
| 20260901044904 | 30 | 15 | 4.8 | 11.3 | 0.00 | 0.00 | 0.00 | 16 | 1015.6 |
| 20260901044804 | 30 | 21 | 4.8 | 11.3 | 0.00 | 0.00 | 0.00 | 17 | 1015.6 |
| 20260901044704 | 30 | 18 | 4.8 | 11.3 | 0.00 | 0.00 | 0.00 | 17 | 1015.5 |
| 20260901044604 | 30 | 11 | 4.8 | 11.3 | 0.00 | 0.00 | 0.00 | 17 | 1015.5 |
| 20260901044506 | 30 | 7 | 4.8 | 11.3 | 0.00 | 0.00 | 0.00 | 18 | 1015.6 |
| 20260901044404 | 30 | 1 | 4.8 | 11.3 | 0.00 | 0.00 | 0.00 | 18 | 1015.5 |
| 20260901044304 | 30 | 353 | 4.8 | 11.3 | 0.00 | 0.00 | 0.00 | 19 | 1015.5 |
| 20260901044204 | 30 | 347 | 4.8 | 11.3 | 0.00 | 0.00 | 0.00 | 19 | 1015.6 |
| 20260901044104 | 30 | 348 | 4.8 | 11.3 | 0.00 | 0.00 | 0.00 | 20 | 1015.5 |
| 20260901044004 | 30 | 356 | 4.8 | 11.3 | 0.00 | 0.00 | 0.00 | 20 | 1015.5 |
| 20260901043904 | 30 | 357 | 4.8 | 11.3 | 0.00 | 0.00 | 0.00 | 20 | 1015.5 |
| 20260901043804 | 30 | 351 | 4.8 | 11.3 | 0.00 | 0.00 | 0.00 | 21 | 1015.5 |
| 20260901043704 | 30 | 347 | 4.8 | 11.3 | 0.00 | 0.00 | 0.00 | 21 | 1015.5 |
| 20260901043604 | 30 | 348 | 4.8 | 11.3 | 0.00 | 0.00 | 0.00 | 21 | 1015.5 |
| 20260901043525 | 30 | 347 | 4.8 | 11.3 | 0.00 | 0.00 | 0.00 | 21 | 1015.6 |
| 20260901043404 | 30 | 341 | 4.8 | 11.3 | 0.00 | 0.00 | 0.00 | 22 | 1015.5 |
| 20260901043304 | 30 | 342 | 4.8 | 11.3 | 0.00 | 0.00 | 0.00 | 22 | 1015.5 |
| 20260901043204 | 30 | 343 | 4.8 | 11.3 | 0.00 | 0.00 | 0.00 | 22 | 1015.6 |
| 20260901043125 | 30 | 344 | 4.8 | 11.3 | 0.00 | 0.00 | 0.00 | 23 | 1015.6 |
| 20260901043004 | 30 | 339 | 4.8 | 11.3 | 0.00 | 0.00 | 0.00 | 23 | 1015.6 |
| 20260901042904 | 30 | 332 | 4.8 | 11.3 | 0.00 | 0.00 | 0.00 | 23 | 1015.6 |
| 20260901042804 | 30 | 330 | 4.8 | 11.3 | 0.00 | 0.00 | 0.00 | 24 | 1015.5 |
| 20260901042704 | 30 | 329 | 6.4 | 11.3 | 0.00 | 0.00 | 0.00 | 24 | 1015.5 |
| 20260901042604 | 30 | 329 | 6.4 | 11.3 | 0.00 | 0.00 | 0.00 | 24 | 1015.5 |
| 20260901042504 | 30 | 331 | 6.4 | 11.3 | 0.00 | 0.00 | 0.00 | 24 | 1015.5 |
| 20260901042404 | 30 | 331 | 6.4 | 12.9 | 0.00 | 0.00 | 0.00 | 25 | 1015.5 |
| 20260901042306 | 30 | 328 | 6.4 | 17.7 | 0.00 | 0.00 | 0.00 | 25 | 1015.5 |
| 20260901042204 | 30 | 325 | 6.4 | 17.7 | 0.00 | 0.00 | 0.00 | 25 | 1015.5 |
| 20260901042125 | 30 | 327 | 6.4 | 17.7 | 0.00 | 0.00 | 0.00 | 25 | 1015.5 |
| 20260901042004 | 30 | 321 | 6.4 | 17.7 | 0.00 | 0.00 | 0.00 | 26 | 1015.4 |
| 20260901041904 | 30 | 323 | 6.4 | 17.7 | 0.00 | 0.00 | 0.00 | 26 | 1015.4 |
| 20260901041804 | 30 | 323 | 6.4 | 17.7 | 0.00 | 0.00 | 0.00 | 27 | 1015.4 |
| 20260901041704 | 30 | 322 | 6.4 | 17.7 | 0.00 | 0.00 | 0.00 | 27 | 1015.3 |
| 20260901041625 | 30 | 323 | 6.4 | 17.7 | 0.00 | 0.00 | 0.00 | 27 | 1015.3 |
| 20260901041504 | 30 | 316 | 6.4 | 17.7 | 0.00 | 0.00 | 0.00 | 27 | 1015.4 |
| 20260901041404 | 30 | 315 | 6.4 | 17.7 | 0.00 | 0.00 | 0.00 | 28 | 1015.4 |
| 20260901041304 | 30 | 315 | 4.8 | 12.9 | 0.00 | 0.00 | 0.00 | 28 | 1015.4 |
| 20260901041206 | 30 | 314 | 6.4 | 16.1 | 0.00 | 0.00 | 0.00 | 28 | 1015.4 |
| 20260901041104 | 30 | 310 | 6.4 | 16.1 | 0.00 | 0.00 | 0.00 | 29 | 1015.4 |
| 20260901041025 | 30 | 310 | 6.4 | 16.1 | 0.00 | 0.00 | 0.00 | 29 | 1015.4 |
| 20260901040904 | 30 | 309 | 6.4 | 16.1 | 0.00 | 0.00 | 0.00 | 29 | 1015.4 |
| 20260901040804 | 30 | 304 | 6.4 | 16.1 | 0.00 | 0.00 | 0.00 | 29 | 1015.4 |
| 20260901040704 | 30 | 303 | 6.4 | 16.1 | 0.00 | 0.00 | 0.00 | 30 | 1015.4 |
| 20260901040604 | 30 | 299 | 6.4 | 16.1 | 0.00 | 0.00 | 0.00 | 30 | 1015.4 |
| 20260901040525 | 30 | 300 | 6.4 | 16.1 | 0.00 | 0.00 | 0.00 | 31 | 1015.4 |
| 20260901040404 | 30 | 299 | 6.4 | 16.1 | 0.00 | 0.00 | 0.00 | 31 | 1015.5 |
| 20260901040304 | 30 | 302 | 6.4 | 16.1 | 0.00 | 0.00 | 0.00 | 31 | 1015.4 |
| 20260901040204 | 30 | 306 | 6.4 | 14.5 | 0.00 | 0.00 | 0.00 | 32 | 1015.5 |
| 20260901040125 | 30 | 308 | 6.4 | 14.5 | 0.00 | 0.00 | 0.00 | 32 | 1015.4 |
| 20260901040004 | 30 | 311 | 6.4 | 14.5 | 0.00 | 0.00 | 0.00 | 32 | 1015.5 |
| 20260901035904 | 30 | 308 | 6.4 | 12.9 | 0.00 | 0.00 | 0.00 | 33 | 1015.5 |
| 20260901035804 | 30 | 311 | 6.4 | 12.9 | 0.00 | 0.00 | 0.00 | 33 | 1015.4 |
| 20260901035704 | 30 | 312 | 6.4 | 12.9 | 0.00 | 0.00 | 0.00 | 33 | 1015.5 |
| 20260901035604 | 30 | 316 | 6.4 | 12.9 | 0.00 | 0.00 | 0.00 | 33 | 1015.5 |
| 20260901035504 | 30 | 316 | 6.4 | 12.9 | 0.00 | 0.00 | 0.00 | 34 | 1015.5 |
| 20260901035425 | 30 | 317 | 6.4 | 12.9 | 0.00 | 0.00 | 0.00 | 34 | 1015.4 |
| 20260901035306 | 30 | 318 | 6.4 | 12.9 | 0.00 | 0.00 | 0.00 | 35 | 1015.4 |
| 20260901035204 | 30 | 316 | 6.4 | 12.9 | 0.00 | 0.00 | 0.00 | 35 | 1015.4 |
| 20260901035104 | 30 | 314 | 6.4 | 12.9 | 0.00 | 0.00 | 0.00 | 35 | 1015.4 |
| 20260901035004 | 30 | 319 | 6.4 | 12.9 | 0.00 | 0.00 | 0.00 | 36 | 1015.4 |
| 20260901034904 | 30 | 320 | 6.4 | 12.9 | 0.00 | 0.00 | 0.00 | 36 | 1015.3 |
| 20260901034804 | 30 | 319 | 6.4 | 12.9 | 0.00 | 0.00 | 0.00 | 36 | 1015.4 |
| 20260901034704 | 30 | 319 | 6.4 | 12.9 | 0.00 | 0.00 | 0.00 | 37 | 1015.4 |
| 20260901034604 | 30 | 318 | 6.4 | 12.9 | 0.00 | 0.00 | 0.00 | 37 | 1015.4 |
| 20260901034525 | 30 | 319 | 6.4 | 14.5 | 0.00 | 0.00 | 0.00 | 37 | 1015.4 |
| 20260901034404 | 30 | 322 | 6.4 | 14.5 | 0.00 | 0.00 | 0.00 | 38 | 1015.4 |
| 20260901034325 | 30 | 320 | 6.4 | 14.5 | 0.00 | 0.00 | 0.00 | 38 | 1015.3 |
| 20260901034205 | 30 | 322 | 6.4 | 14.5 | 0.00 | 0.00 | 0.00 | 38 | 1015.4 |
| 20260901034104 | 30 | 322 | 6.4 | 14.5 | 0.00 | 0.00 | 0.00 | 39 | 1015.4 |
| 20260901034004 | 30 | 320 | 4.8 | 14.5 | 0.00 | 0.00 | 0.00 | 39 | 1015.4 |
| 20260901033904 | 30 | 322 | 4.8 | 14.5 | 0.00 | 0.00 | 0.00 | 39 | 1015.4 |
| 20260901033804 | 30 | 324 | 4.8 | 14.5 | 0.00 | 0.00 | 0.00 | 40 | 1015.4 |
| 20260901033704 | 30 | 323 | 4.8 | 14.5 | 0.00 | 0.00 | 0.00 | 40 | 1015.4 |
| 20260901033604 | 30 | 323 | 4.8 | 14.5 | 0.00 | 0.00 | 0.00 | 40 | 1015.4 |
| 20260901033525 | 30 | 323 | 4.8 | 14.5 | 0.00 | 0.00 | 0.00 | 40 | 1015.4 |
| 20260901033404 | 30 | 320 | 4.8 | 14.5 | 0.00 | 0.00 | 0.00 | 41 | 1015.5 |
| 20260901033304 | 30 | 321 | 4.8 | 14.5 | 0.00 | 0.00 | 0.00 | 41 | 1015.4 |
| 20260901033204 | 30 | 320 | 4.8 | 14.5 | 0.00 | 0.00 | 0.00 | 41 | 1015.4 |
| 20260901033104 | 30 | 318 | 4.8 | 14.5 | 0.00 | 0.00 | 0.00 | 42 | 1015.4 |
| 20260901033025 | 30 | 319 | 6.4 | 14.5 | 0.00 | 0.00 | 0.00 | 42 | 1015.4 |
| 20260901032925 | 31 | 316 | 6.4 | 14.5 | 0.00 | 0.00 | 0.00 | 42 | 1015.4 |
| 20260901032804 | 31 | 309 | 4.8 | 14.5 | 0.00 | 0.00 | 0.00 | 42 | 1015.4 |
| 20260901032704 | 31 | 309 | 6.4 | 14.5 | 0.00 | 0.00 | 0.00 | 42 | 1015.4 |
| 20260901032604 | 31 | 313 | 6.4 | 14.5 | 0.00 | 0.00 | 0.00 | 43 | 1015.4 |
| 20260901032504 | 31 | 311 | 6.4 | 14.5 | 0.00 | 0.00 | 0.00 | 43 | 1015.4 |
| 20260901032404 | 31 | 314 | 6.4 | 16.1 | 0.00 | 0.00 | 0.00 | 43 | 1015.4 |
| 20260901032325 | 31 | 314 | 6.4 | 16.1 | 0.00 | 0.00 | 0.00 | 43 | 1015.4 |
| 20260901032204 | 31 | 309 | 6.4 | 16.1 | 0.00 | 0.00 | 0.00 | 44 | 1015.4 |
| 20260901032104 | 31 | 310 | 6.4 | 16.1 | 0.00 | 0.00 | 0.00 | 44 | 1015.4 |
| 20260901032004 | 31 | 312 | 4.8 | 16.1 | 0.00 | 0.00 | 0.00 | 44 | 1015.3 |
| 20260901031925 | 31 | 318 | 6.4 | 16.1 | 0.00 | 0.00 | 0.00 | 44 | 1015.3 |
| 20260901031804 | 31 | 325 | 6.4 | 16.1 | 0.00 | 0.00 | 0.00 | 45 | 1015.3 |
| 20260901031725 | 31 | 328 | 4.8 | 16.1 | 0.00 | 0.00 | 0.00 | 45 | 1015.3 |
| 20260901031604 | 31 | 331 | 4.8 | 16.1 | 0.00 | 0.00 | 0.00 | 45 | 1015.3 |
| 20260901031504 | 31 | 332 | 4.8 | 16.1 | 0.00 | 0.00 | 0.00 | 45 | 1015.3 |
| 20260901031425 | 31 | 327 | 4.8 | 14.5 | 0.00 | 0.00 | 0.00 | 46 | 1015.3 |
| 20260901031304 | 31 | 334 | 4.8 | 12.9 | 0.00 | 0.00 | 0.00 | 46 | 1015.3 |
| 20260901031204 | 31 | 336 | 4.8 | 12.9 | 0.00 | 0.00 | 0.00 | 46 | 1015.2 |
| 20260901031104 | 31 | 335 | 4.8 | 12.9 | 0.00 | 0.00 | 0.00 | 46 | 1015.2 |
| 20260901031004 | 31 | 330 | 4.8 | 12.9 | 0.00 | 0.00 | 0.00 | 46 | 1015.3 |
| 20260901030904 | 31 | 326 | 4.8 | 12.9 | 0.00 | 0.00 | 0.00 | 47 | 1015.2 |
| 20260901030804 | 31 | 323 | 4.8 | 12.9 | 0.00 | 0.00 | 0.00 | 47 | 1015.2 |
| 20260901030725 | 31 | 319 | 4.8 | 12.9 | 0.00 | 0.00 | 0.00 | 47 | 1015.2 |
| 20260901030604 | 31 | 315 | 4.8 | 12.9 | 0.00 | 0.00 | 0.00 | 47 | 1015.1 |
| 20260901030506 | 31 | 317 | 4.8 | 12.9 | 0.00 | 0.00 | 0.00 | 47 | 1015.1 |
| 20260901030404 | 31 | 319 | 6.4 | 12.9 | 0.00 | 0.00 | 0.00 | 47 | 1015.1 |
| 20260901030304 | 31 | 316 | 6.4 | 12.9 | 0.00 | 0.00 | 0.00 | 48 | 1015.0 |
| 20260901030204 | 31 | 312 | 6.4 | 12.9 | 0.00 | 0.00 | 0.00 | 48 | 1015.1 |
| 20260901030125 | 31 | 311 | 6.4 | 14.5 | 0.00 | 0.00 | 0.00 | 48 | 1015.1 |
| 20260901030004 | 31 | 312 | 6.4 | 14.5 | 0.00 | 0.00 | 0.00 | 48 | 1015.0 |
| 20260901025904 | 31 | 309 | 6.4 | 14.5 | 0.00 | 0.00 | 0.00 | 48 | 1015.0 |
| 20260901025804 | 31 | 307 | 6.4 | 14.5 | 0.00 | 0.00 | 0.00 | 48 | 1014.9 |
| 20260901025704 | 31 | 305 | 4.8 | 14.5 | 0.00 | 0.00 | 0.00 | 48 | 1015.0 |
| 20260901025604 | 31 | 303 | 4.8 | 14.5 | 0.00 | 0.00 | 0.00 | 48 | 1015.0 |
| 20260901025504 | 31 | 303 | 4.8 | 14.5 | 0.00 | 0.00 | 0.00 | 48 | 1014.9 |
| 20260901025404 | 31 | 302 | 4.8 | 14.5 | 0.00 | 0.00 | 0.00 | 48 | 1014.9 |
| 20260901025306 | 31 | 303 | 4.8 | 14.5 | 0.00 | 0.00 | 0.00 | 48 | 1014.9 |
| 20260901025204 | 31 | 306 | 4.8 | 14.5 | 0.00 | 0.00 | 0.00 | 48 | 1014.9 |
| 20260901025104 | 31 | 307 | 4.8 | 12.9 | 0.00 | 0.00 | 0.00 | 48 | 1014.9 |
| 20260901025004 | 31 | 303 | 3.2 | 12.9 | 0.00 | 0.00 | 0.00 | 48 | 1014.9 |
| 20260901024904 | 31 | 301 | 3.2 | 12.9 | 0.00 | 0.00 | 0.00 | 48 | 1014.9 |
| 20260901024825 | 31 | 300 | 3.2 | 12.9 | 0.00 | 0.00 | 0.00 | 48 | 1014.9 |
| 20260901024725 | 31 | 298 | 3.2 | 12.9 | 0.00 | 0.00 | 0.00 | 48 | 1014.9 |
| 20260901024604 | 31 | 296 | 4.8 | 12.9 | 0.00 | 0.00 | 0.00 | 48 | 1014.9 |
| 20260901024525 | 31 | 294 | 3.2 | 9.7 | 0.00 | 0.00 | 0.00 | 48 | 1014.8 |
| 20260901024404 | 31 | 286 | 3.2 | 9.7 | 0.00 | 0.00 | 0.00 | 48 | 1014.8 |
| 20260901024304 | 31 | 283 | 3.2 | 9.7 | 0.00 | 0.00 | 0.00 | 48 | 1014.7 |
| 20260901024204 | 31 | 277 | 3.2 | 9.7 | 0.00 | 0.00 | 0.00 | 47 | 1014.7 |
| 20260901024128 | 31 | 275 | 3.2 | 8.0 | 0.00 | 0.00 | 0.00 | 47 | 1014.7 |
| 20260901024004 | 31 | 270 | 3.2 | 8.0 | 0.00 | 0.00 | 0.00 | 47 | 1014.7 |
| 20260901023907 | 31 | 268 | 3.2 | 8.0 | 0.00 | 0.00 | 0.00 | 47 | 1014.7 |
| 20260901023804 | 31 | 266 | 3.2 | 8.0 | 0.00 | 0.00 | 0.00 | 47 | 1014.7 |
| 20260901023704 | 31 | 263 | 3.2 | 8.0 | 0.00 | 0.00 | 0.00 | 47 | 1014.6 |
| 20260901023604 | 31 | 261 | 3.2 | 8.0 | 0.00 | 0.00 | 0.00 | 47 | 1014.6 |
| 20260901023525 | 31 | 260 | 3.2 | 8.0 | 0.00 | 0.00 | 0.00 | 47 | 1014.6 |
| 20260901023404 | 31 | 257 | 3.2 | 8.0 | 0.00 | 0.00 | 0.00 | 46 | 1014.6 |
| 20260901023304 | 31 | 255 | 3.2 | 8.0 | 0.00 | 0.00 | 0.00 | 46 | 1014.5 |
| 20260901023204 | 31 | 253 | 3.2 | 8.0 | 0.00 | 0.00 | 0.00 | 46 | 1014.5 |
| 20260901023104 | 31 | 251 | 3.2 | 8.0 | 0.00 | 0.00 | 0.00 | 46 | 1014.5 |
| 20260901023004 | 31 | 250 | 3.2 | 8.0 | 0.00 | 0.00 | 0.00 | 46 | 1014.5 |
| 20260901022904 | 31 | 249 | 3.2 | 8.0 | 0.00 | 0.00 | 0.00 | 46 | 1014.5 |
| 20260901022825 | 31 | 249 | 3.2 | 8.0 | 0.00 | 0.00 | 0.00 | 46 | 1014.4 |
| 20260901022725 | 31 | 249 | 3.2 | 8.0 | 0.00 | 0.00 | 0.00 | 45 | 1014.4 |
| 20260901022604 | 31 | 249 | 3.2 | 8.0 | 0.00 | 0.00 | 0.00 | 45 | 1014.4 |
| 20260901022504 | 31 | 249 | 3.2 | 8.0 | 0.00 | 0.00 | 0.00 | 45 | 1014.3 |
| 20260901022404 | 31 | 248 | 3.2 | 6.4 | 0.00 | 0.00 | 0.00 | 45 | 1014.3 |
| 20260901022325 | 31 | 248 | 1.6 | 6.4 | 0.00 | 0.00 | 0.00 | 45 | 1014.3 |
| 20260901022206 | 31 | 248 | 1.6 | 6.4 | 0.00 | 0.00 | 0.00 | 45 | 1014.3 |
| 20260901022104 | 31 | 248 | 1.6 | 6.4 | 0.00 | 0.00 | 0.00 | 44 | 1014.3 |
| 20260901022004 | 31 | 248 | 1.6 | 6.4 | 0.00 | 0.00 | 0.00 | 44 | 1014.3 |
| 20260901021904 | 31 | 248 | 1.6 | 6.4 | 0.00 | 0.00 | 0.00 | 44 | 1014.2 |
| 20260901021804 | 31 | 248 | 1.6 | 6.4 | 0.00 | 0.00 | 0.00 | 44 | 1014.2 |
| 20260901021725 | 31 | 248 | 1.6 | 6.4 | 0.00 | 0.00 | 0.00 | 44 | 1014.2 |
| 20260901021604 | 31 | 248 | 1.6 | 6.4 | 0.00 | 0.00 | 0.00 | 44 | 1014.2 |
| 20260901021504 | 31 | 248 | 1.6 | 6.4 | 0.00 | 0.00 | 0.00 | 44 | 1014.3 |
| 20260901021404 | 31 | 248 | 1.6 | 6.4 | 0.00 | 0.00 | 0.00 | 44 | 1014.2 |
| 20260901021304 | 31 | 247 | 1.6 | 6.4 | 0.00 | 0.00 | 0.00 | 44 | 1014.2 |
| 20260901021204 | 31 | 247 | 3.2 | 6.4 | 0.00 | 0.00 | 0.00 | 44 | 1014.2 |
| 20260901021104 | 31 | 247 | 3.2 | 6.4 | 0.00 | 0.00 | 0.00 | 44 | 1014.2 |
| 20260901021004 | 31 | 247 | 1.6 | 6.4 | 0.00 | 0.00 | 0.00 | 44 | 1014.1 |
| 20260901020904 | 32 | 246 | 1.6 | 6.4 | 0.00 | 0.00 | 0.00 | 44 | 1014.1 |
| 20260901020804 | 32 | 246 | 1.6 | 6.4 | 0.00 | 0.00 | 0.00 | 44 | 1014.1 |
| 20260901020704 | 32 | 246 | 1.6 | 6.4 | 0.00 | 0.00 | 0.00 | 43 | 1014.1 |
| 20260901020605 | 32 | 245 | 1.6 | 6.4 | 0.00 | 0.00 | 0.00 | 43 | 1014.1 |
| 20260901020504 | 32 | 245 | 1.6 | 4.8 | 0.00 | 0.00 | 0.00 | 43 | 1014.0 |
| 20260901020404 | 32 | 245 | 1.6 | 6.4 | 0.00 | 0.00 | 0.00 | 43 | 1014.1 |
| 20260901020304 | 32 | 245 | 1.6 | 6.4 | 0.00 | 0.00 | 0.00 | 43 | 1014.1 |
| 20260901020204 | 32 | 245 | 1.6 | 6.4 | 0.00 | 0.00 | 0.00 | 43 | 1014.0 |
| 20260901020104 | 32 | 245 | 1.6 | 6.4 | 0.00 | 0.00 | 0.00 | 43 | 1014.0 |
| 20260901020004 | 32 | 245 | 3.2 | 6.4 | 0.00 | 0.00 | 0.00 | 43 | 1014.0 |
| 20260901015904 | 32 | 245 | 1.6 | 6.4 | 0.00 | 0.00 | 0.00 | 43 | 1014.0 |
| 20260901015804 | 32 | 245 | 1.6 | 6.4 | 0.00 | 0.00 | 0.00 | 43 | 1013.9 |
| 20260901015704 | 32 | 245 | 1.6 | 6.4 | 0.00 | 0.00 | 0.00 | 43 | 1013.9 |
| 20260901015604 | 32 | 245 | 1.6 | 6.4 | 0.00 | 0.00 | 0.00 | 43 | 1013.9 |
| 20260901015504 | 32 | 245 | 1.6 | 6.4 | 0.00 | 0.00 | 0.00 | 43 | 1013.9 |
| 20260901015404 | 32 | 245 | 1.6 | 4.8 | 0.00 | 0.00 | 0.00 | 43 | 1013.9 |
| 20260901015305 | 32 | 246 | 1.6 | 4.8 | 0.00 | 0.00 | 0.00 | 42 | 1013.9 |
| 20260901015204 | 32 | 246 | 1.6 | 4.8 | 0.00 | 0.00 | 0.00 | 42 | 1013.9 |
| 20260901015104 | 32 | 246 | 1.6 | 4.8 | 0.00 | 0.00 | 0.00 | 42 | 1013.9 |
| 20260901015004 | 32 | 246 | 1.6 | 4.8 | 0.00 | 0.00 | 0.00 | 42 | 1013.9 |
| 20260901014904 | 32 | 246 | 1.6 | 4.8 | 0.00 | 0.00 | 0.00 | 42 | 1013.8 |
| 20260901014804 | 32 | 246 | 3.2 | 6.4 | 0.00 | 0.00 | 0.00 | 42 | 1013.8 |
| 20260901014704 | 32 | 246 | 3.2 | 8.0 | 0.00 | 0.00 | 0.00 | 42 | 1013.8 |
| 20260901014625 | 32 | 246 | 3.2 | 8.0 | 0.00 | 0.00 | 0.00 | 42 | 1013.8 |
| 20260901014525 | 32 | 246 | 3.2 | 8.0 | 0.00 | 0.00 | 0.00 | 42 | 1013.8 |
| 20260901014404 | 32 | 245 | 3.2 | 8.0 | 0.00 | 0.00 | 0.00 | 42 | 1013.8 |
| 20260901014304 | 32 | 246 | 3.2 | 8.0 | 0.00 | 0.00 | 0.00 | 42 | 1013.8 |
| 20260901014225 | 32 | 246 | 3.2 | 8.0 | 0.00 | 0.00 | 0.00 | 42 | 1013.8 |
| 20260901014104 | 32 | 246 | 3.2 | 8.0 | 0.00 | 0.00 | 0.00 | 41 | 1013.8 |
| 20260901014004 | 32 | 246 | 3.2 | 8.0 | 0.00 | 0.00 | 0.00 | 41 | 1013.8 |
| 20260901013904 | 32 | 246 | 3.2 | 8.0 | 0.00 | 0.00 | 0.00 | 41 | 1013.8 |
| 20260901013804 | 32 | 246 | 3.2 | 8.0 | 0.00 | 0.00 | 0.00 | 41 | 1013.9 |
| 20260901013725 | 32 | 246 | 3.2 | 8.0 | 0.00 | 0.00 | 0.00 | 41 | 1013.8 |
| 20260901013625 | 32 | 246 | 3.2 | 8.0 | 0.00 | 0.00 | 0.00 | 41 | 1013.8 |
| 20260901013504 | 32 | 246 | 1.6 | 8.0 | 0.00 | 0.00 | 0.00 | 41 | 1013.8 |
| 20260901013404 | 33 | 246 | 1.6 | 8.0 | 0.00 | 0.00 | 0.00 | 41 | 1013.9 |
| 20260901013304 | 33 | 246 | 1.6 | 8.0 | 0.00 | 0.00 | 0.00 | 41 | 1013.8 |
| 20260901013204 | 33 | 246 | 1.6 | 6.4 | 0.00 | 0.00 | 0.00 | 41 | 1013.8 |
| 20260901013104 | 33 | 246 | 1.6 | 6.4 | 0.00 | 0.00 | 0.00 | 41 | 1013.8 |
| 20260901013004 | 33 | 246 | 3.2 | 8.0 | 0.00 | 0.00 | 0.00 | 41 | 1013.8 |
| 20260901012904 | 33 | 246 | 3.2 | 8.0 | 0.00 | 0.00 | 0.00 | 41 | 1013.7 |
| 20260901012825 | 33 | 246 | 3.2 | 8.0 | 0.00 | 0.00 | 0.00 | 41 | 1013.7 |
| 20260901012725 | 33 | 246 | 3.2 | 8.0 | 0.00 | 0.00 | 0.00 | 41 | 1013.7 |
| 20260901012604 | 33 | 246 | 3.2 | 8.0 | 0.00 | 0.00 | 0.00 | 40 | 1013.8 |
| 20260901012525 | 33 | 246 | 3.2 | 8.0 | 0.00 | 0.00 | 0.00 | 40 | 1013.7 |
| 20260901012404 | 33 | 245 | 3.2 | 8.0 | 0.00 | 0.00 | 0.00 | 40 | 1013.6 |
| 20260901012306 | 33 | 245 | 3.2 | 8.0 | 0.00 | 0.00 | 0.00 | 40 | 1013.6 |
| 20260901012204 | 33 | 245 | 3.2 | 8.0 | 0.00 | 0.00 | 0.00 | 40 | 1013.7 |
| 20260901012104 | 33 | 245 | 3.2 | 8.0 | 0.00 | 0.00 | 0.00 | 40 | 1013.7 |
| 20260901012004 | 33 | 245 | 3.2 | 6.4 | 0.00 | 0.00 | 0.00 | 40 | 1013.6 |
| 20260901011904 | 33 | 245 | 3.2 | 6.4 | 0.00 | 0.00 | 0.00 | 40 | 1013.6 |
| 20260901011804 | 33 | 245 | 3.2 | 6.4 | 0.00 | 0.00 | 0.00 | 40 | 1013.6 |
| 20260901011704 | 33 | 245 | 1.6 | 6.4 | 0.00 | 0.00 | 0.00 | 40 | 1013.5 |
| 20260901011604 | 33 | 245 | 1.6 | 6.4 | 0.00 | 0.00 | 0.00 | 40 | 1013.6 |
| 20260901011525 | 33 | 245 | 1.6 | 4.8 | 0.00 | 0.00 | 0.00 | 40 | 1013.6 |
| 20260901011404 | 33 | 245 | 1.6 | 4.8 | 0.00 | 0.00 | 0.00 | 40 | 1013.5 |
| 20260901011304 | 33 | 245 | 1.6 | 4.8 | 0.00 | 0.00 | 0.00 | 40 | 1013.5 |
| 20260901011204 | 33 | 245 | 1.6 | 4.8 | 0.00 | 0.00 | 0.00 | 40 | 1013.5 |
| 20260901011125 | 33 | 245 | 3.2 | 4.8 | 0.00 | 0.00 | 0.00 | 40 | 1013.5 |
| 20260901011004 | 33 | 246 | 3.2 | 6.4 | 0.00 | 0.00 | 0.00 | 40 | 1013.5 |
| 20260901010904 | 33 | 246 | 3.2 | 6.4 | 0.00 | 0.00 | 0.00 | 40 | 1013.5 |
| 20260901010804 | 33 | 246 | 3.2 | 6.4 | 0.00 | 0.00 | 0.00 | 40 | 1013.5 |
| 20260901010704 | 33 | 246 | 3.2 | 6.4 | 0.00 | 0.00 | 0.00 | 40 | 1013.5 |
| 20260901010604 | 33 | 246 | 3.2 | 8.0 | 0.00 | 0.00 | 0.00 | 40 | 1013.5 |
| 20260901010504 | 33 | 247 | 3.2 | 8.0 | 0.00 | 0.00 | 0.00 | 40 | 1013.4 |
| 20260901010404 | 33 | 249 | 3.2 | 8.0 | 0.00 | 0.00 | 0.00 | 40 | 1013.5 |
| 20260901010304 | 33 | 253 | 3.2 | 9.7 | 0.00 | 0.00 | 0.00 | 39 | 1013.4 |
| 20260901010204 | 33 | 260 | 3.2 | 9.7 | 0.00 | 0.00 | 0.00 | 40 | 1013.4 |
| 20260901010104 | 33 | 266 | 3.2 | 9.7 | 0.00 | 0.00 | 0.00 | 39 | 1013.4 |
| 20260901010025 | 33 | 270 | 3.2 | 9.7 | 0.00 | 0.00 | 0.00 | 40 | 1013.4 |
| 20260901005904 | 34 | 281 | 3.2 | 9.7 | 0.00 | 0.00 | 0.00 | 39 | 1013.4 |
| 20260901005804 | 34 | 285 | 3.2 | 9.7 | 0.00 | 0.00 | 0.00 | 39 | 1013.5 |
| 20260901005704 | 34 | 287 | 3.2 | 9.7 | 0.00 | 0.00 | 0.00 | 39 | 1013.5 |
| 20260901005604 | 34 | 290 | 3.2 | 9.7 | 0.00 | 0.00 | 0.00 | 39 | 1013.4 |
| 20260901005504 | 34 | 290 | 3.2 | 9.7 | 0.00 | 0.00 | 0.00 | 39 | 1013.4 |
| 20260901005404 | 34 | 287 | 3.2 | 9.7 | 0.00 | 0.00 | 0.00 | 39 | 1013.5 |
| 20260901005306 | 34 | 284 | 3.2 | 8.0 | 0.00 | 0.00 | 0.00 | 39 | 1013.5 |
| 20260901005225 | 34 | 279 | 3.2 | 8.0 | 0.00 | 0.00 | 0.00 | 39 | 1013.5 |
| 20260901005104 | 34 | 270 | 3.2 | 8.0 | 0.00 | 0.00 | 0.00 | 39 | 1013.4 |
| 20260901005004 | 34 | 264 | 3.2 | 8.0 | 0.00 | 0.00 | 0.00 | 39 | 1013.4 |
| 20260901004904 | 34 | 257 | 3.2 | 8.0 | 0.00 | 0.00 | 0.00 | 39 | 1013.4 |
| 20260901004804 | 34 | 256 | 3.2 | 8.0 | 0.00 | 0.00 | 0.00 | 39 | 1013.4 |
| 20260901004704 | 34 | 256 | 3.2 | 8.0 | 0.00 | 0.00 | 0.00 | 39 | 1013.4 |
| 20260901004604 | 34 | 255 | 3.2 | 8.0 | 0.00 | 0.00 | 0.00 | 39 | 1013.4 |
| 20260901004504 | 35 | 255 | 3.2 | 8.0 | 0.00 | 0.00 | 0.00 | 39 | 1013.4 |
| 20260901004404 | 35 | 255 | 3.2 | 8.0 | 0.00 | 0.00 | 0.00 | 39 | 1013.4 |
| 20260901004304 | 35 | 256 | 3.2 | 8.0 | 0.00 | 0.00 | 0.00 | 38 | 1013.4 |
| 20260901004204 | 35 | 255 | 3.2 | 8.0 | 0.00 | 0.00 | 0.00 | 38 | 1013.4 |
| 20260901004104 | 35 | 255 | 3.2 | 8.0 | 0.00 | 0.00 | 0.00 | 38 | 1013.4 |
| 20260901004025 | 35 | 255 | 3.2 | 9.7 | 0.00 | 0.00 | 0.00 | 38 | 1013.5 |
| 20260901003904 | 35 | 255 | 4.8 | 11.3 | 0.00 | 0.00 | 0.00 | 38 | 1013.4 |
| 20260901003825 | 35 | 254 | 4.8 | 11.3 | 0.00 | 0.00 | 0.00 | 38 | 1013.4 |
| 20260901003704 | 35 | 255 | 4.8 | 11.3 | 0.00 | 0.00 | 0.00 | 38 | 1013.4 |
| 20260901003604 | 35 | 254 | 4.8 | 11.3 | 0.00 | 0.00 | 0.00 | 38 | 1013.4 |
| 20260901003525 | 35 | 255 | 4.8 | 11.3 | 0.00 | 0.00 | 0.00 | 38 | 1013.4 |
| 20260901003404 | 35 | 255 | 6.4 | 11.3 | 0.00 | 0.00 | 0.00 | 38 | 1013.4 |
| 20260901003304 | 35 | 254 | 6.4 | 11.3 | 0.00 | 0.00 | 0.00 | 38 | 1013.4 |
| 20260901003204 | 35 | 256 | 6.4 | 12.9 | 0.00 | 0.00 | 0.00 | 38 | 1013.4 |
| 20260901003104 | 35 | 256 | 6.4 | 12.9 | 0.00 | 0.00 | 0.00 | 38 | 1013.4 |
| 20260901003004 | 35 | 257 | 6.4 | 12.9 | 0.00 | 0.00 | 0.00 | 38 | 1013.4 |
| 20260901002904 | 35 | 258 | 6.4 | 12.9 | 0.00 | 0.00 | 0.00 | 38 | 1013.5 |
| 20260901002804 | 35 | 260 | 4.8 | 12.9 | 0.00 | 0.00 | 0.00 | 38 | 1013.4 |
| 20260901002704 | 35 | 260 | 4.8 | 12.9 | 0.00 | 0.00 | 0.00 | 38 | 1013.4 |
| 20260901002604 | 35 | 262 | 4.8 | 12.9 | 0.00 | 0.00 | 0.00 | 37 | 1013.4 |
| 20260901002504 | 35 | 263 | 4.8 | 12.9 | 0.00 | 0.00 | 0.00 | 37 | 1013.4 |
| 20260901002404 | 35 | 265 | 3.2 | 12.9 | 0.00 | 0.00 | 0.00 | 37 | 1013.4 |
| 20260901002325 | 35 | 267 | 3.2 | 12.9 | 0.00 | 0.00 | 0.00 | 37 | 1013.4 |
| 20260901002204 | 35 | 268 | 3.2 | 8.0 | 0.00 | 0.00 | 0.00 | 37 | 1013.3 |
| 20260901002104 | 35 | 269 | 3.2 | 8.0 | 0.00 | 0.00 | 0.00 | 37 | 1013.4 |
| 20260901002004 | 35 | 271 | 3.2 | 6.4 | 0.00 | 0.00 | 0.00 | 37 | 1013.3 |
| 20260901001904 | 35 | 273 | 3.2 | 6.4 | 0.00 | 0.00 | 0.00 | 37 | 1013.3 |
| 20260901001825 | 35 | 273 | 3.2 | 6.4 | 0.00 | 0.00 | 0.00 | 37 | 1013.3 |
| 20260901001704 | 35 | 275 | 3.2 | 11.3 | 0.00 | 0.00 | 0.00 | 36 | 1013.3 |
| 20260901001604 | 35 | 278 | 3.2 | 11.3 | 0.00 | 0.00 | 0.00 | 37 | 1013.3 |
| 20260901001504 | 35 | 276 | 3.2 | 11.3 | 0.00 | 0.00 | 0.00 | 36 | 1013.4 |
| 20260901001404 | 35 | 273 | 3.2 | 11.3 | 0.00 | 0.00 | 0.00 | 36 | 1013.3 |
| 20260901001304 | 35 | 271 | 4.8 | 11.3 | 0.00 | 0.00 | 0.00 | 36 | 1013.3 |
| 20260901001204 | 35 | 268 | 4.8 | 11.3 | 0.00 | 0.00 | 0.00 | 36 | 1013.3 |
| 20260901001125 | 35 | 267 | 4.8 | 11.3 | 0.00 | 0.00 | 0.00 | 36 | 1013.3 |
| 20260901001004 | 36 | 263 | 4.8 | 11.3 | 0.00 | 0.00 | 0.00 | 36 | 1013.3 |
| 20260901000904 | 36 | 261 | 4.8 | 11.3 | 0.00 | 0.00 | 0.00 | 36 | 1013.3 |
| 20260901000804 | 36 | 259 | 4.8 | 11.3 | 0.00 | 0.00 | 0.00 | 35 | 1013.2 |
| 20260901000704 | 36 | 257 | 4.8 | 11.3 | 0.00 | 0.00 | 0.00 | 35 | 1013.3 |
| 20260901000604 | 36 | 251 | 3.2 | 8.0 | 0.00 | 0.00 | 0.00 | 35 | 1013.2 |
| 20260901000504 | 36 | 250 | 4.8 | 11.3 | 0.00 | 0.00 | 0.00 | 35 | 1013.3 |
| 20260901000425 | 36 | 249 | 4.8 | 11.3 | 0.00 | 0.00 | 0.00 | 35 | 1013.2 |
| 20260901000304 | 36 | 248 | 4.8 | 11.3 | 0.00 | 0.00 | 0.00 | 35 | 1013.3 |
| 20260901000204 | 36 | 248 | 4.8 | 11.3 | 0.00 | 0.00 | 0.00 | 35 | 1013.3 |
| 20260901000106 | 36 | 248 | 4.8 | 11.3 | 0.00 | 0.00 | 0.00 | 35 | 1013.2 |
| 20260901000004 | 36 | 251 | 4.8 | 11.3 | 0.00 | 0.00 | 0.00 | 36 | 1013.3 |
| 20260831235925 | 36 | 252 | 4.8 | 11.3 | 0.00 | 0.00 | 0.00 | 36 | 1013.2 |
| 20260831235804 | 36 | 262 | 4.8 | 12.9 | 0.00 | 0.00 | 0.00 | 36 | 1013.2 |
| 20260831235704 | 36 | 266 | 4.8 | 12.9 | 0.00 | 0.00 | 0.00 | 35 | 1013.3 |
| 20260831235604 | 36 | 270 | 4.8 | 12.9 | 0.00 | 0.00 | 0.00 | 35 | 1013.2 |
| 20260831235504 | 36 | 272 | 4.8 | 12.9 | 0.00 | 0.00 | 0.00 | 35 | 1013.3 |
| 20260831235404 | 36 | 273 | 4.8 | 12.9 | 0.00 | 0.00 | 0.00 | 35 | 1013.3 |
| 20260831235325 | 36 | 274 | 4.8 | 12.9 | 0.00 | 0.00 | 0.00 | 35 | 1013.3 |
| 20260831235204 | 36 | 275 | 4.8 | 12.9 | 0.00 | 0.00 | 0.00 | 35 | 1013.3 |
| 20260831235104 | 36 | 277 | 4.8 | 12.9 | 0.00 | 0.00 | 0.00 | 35 | 1013.3 |
| 20260831235025 | 36 | 274 | 4.8 | 12.9 | 0.00 | 0.00 | 0.00 | 35 | 1013.3 |
| 20260831234904 | 36 | 269 | 4.8 | 14.5 | 0.00 | 0.00 | 0.00 | 36 | 1013.3 |